[[{"header":{"parameterUnit":"m.s-1","parameterCategory":1,"la1":31.0,"la2":29.5877,"lo1":-88.7671,"lo2":-86.6584,"dy":0.0162,"dx":0.0185,"nx":115,"ny":88,"refTime":"2024-07-05T18:00:00:Z","depth":0,"parameterNumber":2,"parameterNumberName":"U-component_of_WINDS"},"data":[0.0,0.0,0.0,0.0,0.0,0.0,0.0,0.0,0.0,0.0,0.0,0.0,0.0,0.0,0.0,0.0,0.0,0.0,0.0,0.0,0.0,0.0,0.0,0.0,0.0,0.0,0.0,0.0,0.0,0.0,0.0,0.0,0.0,0.0,0.0,0.0,0.0,0.0,0.0,0.0,0.0,0.0,0.0,0.0,0.0,0.0,0.0,0.0,0.0,0.0,0.0,0.0,0.0,0.0,0.0,0.0,0.0,0.0,0.0,0.0,0.0,0.0,0.0,0.0,0.0,0.0,0.0,0.0,0.0,0.0,0.0,0.0,0.0,0.0,0.0,0.0,0.0,0.0,0.0,0.0,0.0,0.0,0.0,0.0,0.0,0.0,0.0,0.0,0.0,0.0,0.0,0.0,0.0,0.0,0.0,0.0,0.0,0.0,0.0,0.0,0.0,0.0,0.0,0.0,0.0,0.0,0.0,0.0,0.0,0.0,0.0,0.0,0.0,0.0,0.0,0.0,0.0,0.0,0.0,0.0,0.0,0.0,0.0,0.0,0.0,0.0,0.0,0.0,0.0,0.0,0.0,0.0,0.0,0.0,0.0,0.0,0.0,0.0,0.0,0.0,0.0,0.0,0.0,0.0,0.0,0.0,0.0,0.0,0.0,0.0,0.0,0.0,0.0,0.0,0.0,0.0,0.0,0.0,0.0,0.0,0.0,0.0,0.0,0.0,0.0,0.0,0.0,0.0,0.0,0.0,0.0,0.0,0.0,0.0,0.0,0.0,0.0,0.0,0.0,0.0,0.0,0.0,0.0,0.0,0.0,0.0,0.0,0.0,0.0,0.0,0.0,0.0,0.0,0.0,0.0,0.0,0.0,0.0,0.0,0.0,0.0,0.0,0.0,0.0,0.0,0.0,0.0,0.0,0.0,0.0,0.0,0.0,0.0,0.0,0.0,0.0,0.0,0.0,0.0,0.0,0.0,0.0,0.0,0.0,0.0,0.0,0.0,0.0,0.0,0.0,0.0,0.0,0.0,0.0,0.0,0.0,0.0,0.0,0.0,0.0,0.0,0.0,0.0,0.0,0.0,0.0,0.0,0.0,0.0,0.0,0.0,0.0,0.0,0.0,0.0,0.0,0.0,0.0,0.0,0.0,0.0,0.0,0.0,0.0,0.0,0.0,0.0,0.0,0.0,0.0,0.0,0.0,0.0,0.0,0.0,0.0,0.0,0.0,0.0,0.0,0.0,0.0,0.0,0.0,0.0,0.0,0.0,0.0,0.0,0.0,0.0,0.0,0.0,0.0,0.0,0.0,0.0,0.0,0.0,0.0,0.0,0.0,0.0,0.0,0.0,0.0,0.0,0.0,0.0,0.0,0.0,0.0,0.0,0.0,0.0,0.0,0.0,0.0,0.0,0.0,0.0,0.0,0.0,0.0,0.0,0.0,0.0,0.0,0.0,0.0,0.0,0.0,0.0,0.0,0.0,0.0,0.0,0.0,0.0,0.0,0.0,0.0,0.0,0.0,0.0,0.0,0.0,0.0,0.0,0.0,0.0,0.0,0.0,0.0,0.0,0.0,0.0,0.0,0.0,0.0,0.0,0.0,0.0,0.0,0.0,0.0,0.0,0.0,0.0,0.0,0.0,0.0,0.0,0.0,0.0,0.0,0.0,0.0,0.0,0.0,0.0,0.0,0.0,0.0,0.0,0.0,0.0,0.0,0.0,0.0,0.0,0.0,0.0,0.0,0.0,0.0,0.0,0.0,0.0,0.0,0.0,0.0,0.0,0.0,0.0,0.0,0.0,0.0,0.0,0.0,0.0,0.0,0.0,0.0,0.0,0.0,0.0,0.0,0.0,0.0,0.0,0.0,0.0,0.0,0.0,0.0,0.0,0.0,0.0,0.0,0.0,0.0,0.0,0.0,0.0,0.0,0.0,0.0,0.0,0.0,0.0,0.0,0.0,0.0,0.0,0.0,0.0,0.0,0.0,0.0,0.0,0.0,0.0,0.0,0.0,0.0,0.0,0.0,0.0,0.0,0.0,0.0,0.0,0.0,0.0,0.0,0.0,0.0,0.0,0.0,0.0,0.0,0.0,0.0,0.0,0.0,0.0,0.0,0.0,0.0,0.0,0.0,0.0,0.0,0.0,0.0,0.0,0.0,0.0,0.0,0.0,0.0,0.0,0.0,0.0,0.0,0.0,0.0,0.0,0.0,0.0,0.0,0.0,0.0,0.0,0.0,0.0,0.0,0.0,0.0,0.0,0.0,0.0,0.0,0.0,0.0,0.0,0.0,0.0,0.0,0.0,0.0,0.0,0.0,0.0,0.0,0.0,0.0,0.0,0.0,0.0,0.0,0.0,0.0,0.0,0.0,0.0,0.0,0.0,0.0,0.0,0.0,0.0,0.0,0.0,0.0,0.0,0.0,0.0,0.0,0.0,0.0,0.0,0.0,0.0,0.0,0.0,0.0,0.0,0.0,0.0,0.0,0.0,0.0,0.0,0.0,0.0,0.0,0.0,0.0,0.0,0.0,0.0,0.0,0.0,0.0,0.0,0.0,0.0,0.0,0.0,0.0,0.0,0.0,0.0,0.0,0.0,0.0,0.0,0.0,0.0,0.0,0.0,0.0,0.0,0.0,0.0,0.0,0.0,0.0,0.0,0.0,0.0,0.0,0.0,0.0,0.0,0.0,0.0,0.0,0.0,0.0,0.0,0.0,0.0,0.0,0.0,0.0,0.0,0.0,0.0,0.0,0.0,0.0,0.0,0.0,0.0,0.0,0.0,0.0,0.0,0.0,0.0,0.0,0.0,0.0,0.0,0.0,0.0,0.0,0.0,0.0,0.0,0.0,0.0,0.0,0.0,0.0,0.0,0.0,0.0,0.0,0.0,0.0,0.0,0.0,0.0,0.0,0.0,0.0,0.0,0.0,0.0,0.0,0.0,0.0,0.0,0.0,0.0,0.0,0.0,0.0,0.0,0.0,0.0,0.0,0.0,0.0,0.0,0.0,0.0,0.0,0.0,0.0,0.0,0.0,0.0,0.0,0.0,0.0,0.0,0.0,0.0,0.0,0.0,0.0,0.0,0.0,0.0,0.0,0.0,0.0,0.0,0.0,0.0,0.0,0.0,0.0,0.0,0.0,0.0,0.0,0.0,0.0,0.0,0.0,0.0,0.0,0.0,0.0,0.0,0.0,0.0,0.0,0.0,0.0,0.0,0.0,0.0,0.0,0.0,0.0,0.0,0.0,0.0,0.0,0.0,0.0,0.0,0.0,0.0,0.0,0.0,0.0,0.0,0.0,0.0,0.0,0.0,0.0,0.0,0.0,0.0,0.0,0.0,0.0,0.0,0.0,0.0,0.0,0.0,0.0,0.0,0.0,0.0,0.0,0.0,0.0,0.0,0.0,0.0,0.0,0.0,0.0,0.0,0.0,0.0,0.0,0.0,0.0,0.0,0.0,0.0,0.0,0.0,0.0,0.0,0.0,0.0,0.0,0.0,0.0,0.0,0.0,0.0,0.0,0.0,0.0,0.0,0.0,0.0,0.0,0.0,0.0,0.0,0.0,0.0,0.0,0.0,0.0,0.0,0.0,0.0,0.0,0.0,0.0,0.0,0.0,0.0,0.0,0.0,0.0,0.0,0.0,0.0,0.0,0.0,0.0,0.0,0.0,0.0,0.0,0.0,0.0,0.0,0.0,0.0,0.0,0.0,0.0,0.0,0.0,0.0,0.0,0.0,0.0,0.0,0.0,0.0,0.0,0.0,0.0,0.0,0.0,0.0,0.0,0.0,0.0,0.0,0.0,0.0,0.0,0.0,0.0,0.0,0.0,0.0,0.0,0.0,0.0,0.0,0.0,0.0,0.0,0.0,0.0,0.0,0.0,0.0,0.0,0.0,0.0,0.0,0.0,0.0,0.0,0.0,0.0,0.0,0.0,0.0,0.0,0.0,0.0,0.0,0.0,0.0,0.0,0.0,0.0,0.0,0.0,0.0,0.0,0.0,0.0,0.0,0.0,0.0,0.0,0.0,0.0,0.0,0.0,0.0,0.0,0.0,0.0,0.0,0.0,0.0,0.0,0.0,0.0,0.0,0.0,0.0,0.0,0.0,0.0,0.0,0.0,0.0,0.0,0.0,0.0,0.0,0.0,0.0,0.0,0.0,0.0,0.0,0.0,0.0,0.0,0.0,0.0,0.0,0.0,0.0,0.0,0.0,0.0,0.0,0.0,0.0,0.0,0.0,0.0,0.0,0.0,0.0,0.0,0.0,0.0,-1.4707,0.0,0.0,0.0,0.0,0.0,0.0,0.0,0.0,0.0,0.0,0.0,0.0,0.0,0.0,0.0,0.0,0.0,0.0,0.0,0.0,0.0,0.0,0.0,0.0,0.0,0.0,0.0,0.0,0.0,0.0,0.0,0.0,0.0,0.0,0.0,0.0,0.0,0.0,0.0,0.0,0.0,0.0,0.0,0.0,0.0,0.0,0.0,0.0,0.0,0.0,0.0,0.0,0.0,0.0,0.0,0.0,0.0,0.0,0.0,0.0,0.0,0.0,0.0,0.0,0.0,0.0,0.0,0.0,0.0,0.0,0.0,0.0,0.0,0.0,0.0,0.0,0.0,0.0,0.0,0.0,0.0,0.0,0.0,0.0,0.0,0.0,0.0,0.0,0.0,0.0,0.0,0.0,0.0,0.0,0.0,0.0,0.0,0.0,0.0,0.0,0.0,0.0,0.0,0.0,0.0,0.0,0.0,0.0,0.0,0.0,-1.5881,-1.6032,-1.5639,-1.5133,-1.4523,0.0,0.0,0.0,0.0,0.0,0.0,0.0,0.0,0.0,0.0,0.0,0.0,0.0,0.0,0.0,0.0,0.0,0.0,0.0,0.0,0.0,0.0,0.0,0.0,0.0,0.0,0.0,0.0,0.0,0.0,0.0,0.0,0.0,0.0,0.0,0.0,0.0,0.0,0.0,0.0,0.0,0.0,0.0,0.0,0.0,0.0,0.0,0.0,0.0,0.0,0.0,0.0,0.0,0.0,0.0,0.0,0.0,0.0,0.0,0.0,0.0,0.0,0.0,0.0,0.0,0.0,0.0,0.0,0.0,0.0,0.0,0.0,0.0,0.0,0.0,0.0,0.0,0.0,0.0,0.0,0.0,0.0,0.0,0.0,0.0,0.0,0.0,0.0,0.0,0.0,0.0,0.0,0.0,0.0,0.0,0.0,0.0,0.0,0.0,0.0,0.0,0.0,0.0,0.0,0.0,0.0,0.0,0.0,0.0,0.0,0.0,0.0,-1.5836,-1.5301,-1.4281,0.0,0.0,0.0,0.0,0.0,0.0,0.0,0.0,0.0,0.0,0.0,0.0,0.0,0.0,0.0,0.0,0.0,0.0,0.0,0.0,0.0,0.0,0.0,0.0,0.0,0.0,0.0,0.0,0.0,0.0,0.0,0.0,0.0,0.0,0.0,0.0,0.0,0.0,0.0,0.0,0.0,0.0,0.0,0.0,0.0,0.0,0.0,0.0,0.0,0.0,0.0,0.0,0.0,0.0,0.0,0.0,0.0,0.0,0.0,0.0,0.0,0.0,0.0,0.0,0.0,0.0,0.0,0.0,0.0,0.0,0.0,0.0,0.0,0.0,0.0,0.0,0.0,0.0,0.0,0.0,0.0,0.0,0.0,0.0,0.0,0.0,0.0,0.0,0.0,0.0,0.0,0.0,0.0,0.0,0.0,0.0,0.0,0.0,0.0,0.0,0.0,0.0,0.0,0.0,0.0,0.0,0.0,0.0,0.0,0.0,-1.5957,-1.6238,-1.5944,0.0,-1.4127,0.0,0.0,0.0,0.0,0.0,0.0,0.0,0.0,0.0,0.0,0.0,0.0,0.0,0.0,0.0,0.0,0.0,0.0,0.0,0.0,0.0,0.0,0.0,0.0,0.0,0.0,0.0,0.0,0.0,0.0,0.0,0.0,0.0,0.0,0.0,0.0,0.0,0.0,0.0,0.0,0.0,0.0,0.0,0.0,0.0,0.0,0.0,0.0,0.0,0.0,0.0,0.0,0.0,0.0,0.0,0.0,0.0,0.0,0.0,0.0,0.0,0.0,0.0,0.0,0.0,0.0,0.0,0.0,0.0,0.0,0.0,0.0,0.0,0.0,0.0,0.0,0.0,0.0,0.0,0.0,0.0,0.0,0.0,0.0,0.0,0.0,0.0,0.0,0.0,0.0,0.0,0.0,0.0,0.0,0.0,0.0,0.0,0.0,0.0,0.0,0.0,0.0,0.0,0.0,0.0,0.0,0.0,0.0,0.0,0.0,-1.5988,-1.6107,-1.538,-1.4735,0.0,0.0,0.0,0.0,0.0,0.0,0.0,0.0,0.0,0.0,0.0,0.0,0.0,0.0,0.0,0.0,0.0,0.0,0.0,0.0,0.0,0.0,0.0,0.0,0.0,0.0,0.0,0.0,0.0,0.0,0.0,0.0,0.0,0.0,0.0,0.0,0.0,0.0,0.0,0.0,0.0,0.0,0.0,0.0,0.0,0.0,0.0,0.0,0.0,0.0,0.0,0.0,0.0,0.0,0.0,0.0,0.0,0.0,0.0,0.0,0.0,0.0,0.0,0.0,0.0,0.0,0.0,0.0,0.0,0.0,0.0,0.0,0.0,0.0,0.0,0.0,0.0,0.0,0.0,0.0,0.0,0.0,0.0,0.0,0.0,0.0,0.0,0.0,0.0,0.0,0.0,0.0,0.0,0.0,0.0,0.0,0.0,0.0,0.0,0.0,0.0,0.0,0.0,0.0,0.0,0.0,0.0,0.0,0.0,0.0,-1.6076,-1.6133,-1.5973,-1.5369,-1.4747,-1.4135,0.0,0.0,0.0,0.0,0.0,0.0,0.0,0.0,0.0,0.0,0.0,0.0,0.0,0.0,0.0,0.0,0.0,0.0,0.0,0.0,0.0,0.0,0.0,0.0,0.0,0.0,0.0,0.0,0.0,0.0,0.0,0.0,0.0,0.0,0.0,0.0,0.0,0.0,0.0,0.0,0.0,0.0,0.0,0.0,0.0,0.0,0.0,0.0,0.0,0.0,0.0,0.0,0.0,0.0,0.0,0.0,0.0,0.0,0.0,0.0,0.0,0.0,0.0,0.0,0.0,0.0,0.0,0.0,0.0,0.0,0.0,0.0,0.0,0.0,0.0,0.0,0.0,0.0,0.0,0.0,0.0,0.0,0.0,0.0,0.0,0.0,0.0,0.0,0.0,0.0,0.0,0.0,0.0,0.0,0.0,0.0,0.0,0.0,0.0,0.0,0.0,0.0,0.0,0.0,0.0,0.0,0.0,0.0,0.0,-1.6497,-1.651,-1.5985,-1.6338,-1.5652,0.0,0.0,0.0,0.0,0.0,0.0,0.0,0.0,0.0,0.0,0.0,0.0,0.0,0.0,0.0,0.0,0.0,0.0,0.0,0.0,0.0,0.0,0.0,0.0,0.0,0.0,0.0,0.0,0.0,0.0,0.0,0.0,0.0,0.0,0.0,0.0,0.0,0.0,0.0,0.0,0.0,0.0,0.0,0.0,0.0,0.0,0.0,0.0,0.0,0.0,0.0,0.0,0.0,0.0,0.0,0.0,0.0,0.0,0.0,0.0,0.0,0.0,0.0,0.0,0.0,0.0,0.0,0.0,0.0,0.0,0.0,0.0,0.0,0.0,0.0,0.0,0.0,0.0,0.0,0.0,0.0,0.0,0.0,0.0,0.0,0.0,0.0,0.0,0.0,0.0,0.0,0.0,0.0,0.0,0.0,0.0,0.0,0.0,0.0,0.0,0.0,0.0,0.0,0.0,0.0,0.0,0.0,0.0,0.0,-1.5953,-1.6894,-1.7151,-1.66,-1.6057,-1.5219,0.0,0.0,0.0,0.0,0.0,0.0,0.0,0.0,0.0,0.0,0.0,0.0,0.0,0.0,0.0,0.0,0.0,0.0,0.0,0.0,0.0,0.0,0.0,0.0,0.0,0.0,0.0,0.0,0.0,0.0,0.0,0.0,0.0,0.0,0.0,0.0,0.0,0.0,0.0,0.0,0.0,0.0,0.0,0.0,0.0,0.0,0.0,0.0,0.0,0.0,0.0,0.0,0.0,0.0,0.0,0.0,0.0,0.0,0.0,0.0,0.0,0.0,0.0,0.0,0.0,0.0,0.0,0.0,0.0,0.0,0.0,0.0,0.0,0.0,0.0,0.0,0.0,0.0,0.0,0.0,0.0,0.0,0.0,0.0,0.0,0.0,0.0,0.0,0.0,0.0,0.0,0.0,0.0,0.0,0.0,0.0,0.0,0.0,0.0,0.0,0.0,0.0,0.0,0.0,0.0,0.0,0.0,0.0,0.0,-1.6217,0.0,-1.7341,0.0,-1.6009,-1.512,0.0,0.0,0.0,0.0,0.0,0.0,0.0,0.0,0.0,0.0,0.0,0.0,0.0,0.0,0.0,0.0,0.0,0.0,0.0,0.0,0.0,0.0,0.0,0.0,0.0,0.0,0.0,0.0,0.0,0.0,0.0,0.0,0.0,0.0,0.0,0.0,0.0,0.0,0.0,0.0,0.0,0.0,0.0,0.0,0.0,0.0,0.0,0.0,0.0,0.0,0.0,0.0,0.0,0.0,0.0,0.0,0.0,0.0,0.0,0.0,0.0,0.0,0.0,0.0,0.0,0.0,0.0,0.0,0.0,0.0,0.0,0.0,0.0,0.0,0.0,0.0,0.0,0.0,0.0,0.0,0.0,0.0,0.0,0.0,0.0,0.0,0.0,0.0,0.0,0.0,0.0,0.0,0.0,0.0,0.0,0.0,0.0,0.0,0.0,0.0,0.0,0.0,0.0,0.0,0.0,0.0,0.0,0.0,-1.6191,-1.6858,-1.7089,-1.7142,-1.6885,-1.631,-1.5466,0.0,0.0,0.0,0.0,0.0,0.0,0.0,0.0,0.0,0.0,0.0,0.0,0.0,0.0,0.0,0.0,0.0,0.0,0.0,0.0,0.0,0.0,0.0,0.0,0.0,0.0,0.0,0.0,0.0,0.0,0.0,0.0,0.0,0.0,0.0,0.0,0.0,0.0,0.0,0.0,0.0,0.0,0.0,0.0,0.0,0.0,0.0,0.0,0.0,0.0,0.0,0.0,0.0,0.0,0.0,0.0,0.0,0.0,0.0,0.0,0.0,0.0,0.0,0.0,0.0,0.0,0.0,0.0,0.0,0.0,0.0,0.0,0.0,0.0,0.0,0.0,0.0,0.0,0.0,0.0,0.0,0.0,0.0,0.0,0.0,0.0,0.0,0.0,0.0,0.0,0.0,0.0,0.0,0.0,0.0,0.0,0.0,0.0,0.0,0.0,0.0,0.0,0.0,0.0,0.0,0.0,0.0,0.0,0.0,-1.6883,-1.737,-1.7436,-1.7074,-1.6371,-1.5678,0.0,0.0,0.0,0.0,0.0,0.0,0.0,0.0,0.0,0.0,0.0,0.0,0.0,0.0,0.0,0.0,0.0,0.0,0.0,0.0,0.0,0.0,0.0,0.0,0.0,0.0,0.0,0.0,0.0,0.0,0.0,0.0,0.0,0.0,0.0,0.0,0.0,0.0,0.0,0.0,0.0,0.0,0.0,0.0,0.0,0.0,0.0,0.0,0.0,0.0,0.0,0.0,0.0,0.0,0.0,0.0,0.0,0.0,0.0,0.0,0.0,0.0,0.0,0.0,0.0,0.0,0.0,0.0,0.0,0.0,0.0,0.0,0.0,0.0,0.0,0.0,0.0,0.0,0.0,0.0,0.0,0.0,0.0,0.0,0.0,0.0,0.0,0.0,0.0,0.0,0.0,0.0,0.0,0.0,0.0,0.0,0.0,0.0,0.0,0.0,0.0,0.0,0.0,0.0,0.0,0.0,0.0,0.0,0.0,-1.697,-1.7194,-1.7256,-1.7212,-1.6271,-1.5734,-1.5599,0.0,0.0,0.0,0.0,0.0,0.0,0.0,0.0,0.0,0.0,0.0,0.0,0.0,0.0,0.0,0.0,0.0,0.0,0.0,0.0,0.0,0.0,0.0,0.0,0.0,0.0,0.0,0.0,0.0,0.0,0.0,0.0,0.0,0.0,0.0,0.0,0.0,0.0,0.0,0.0,0.0,0.0,0.0,0.0,0.0,0.0,0.0,0.0,0.0,0.0,0.0,0.0,0.0,0.0,0.0,0.0,0.0,0.0,0.0,0.0,0.0,0.0,0.0,0.0,0.0,0.0,0.0,0.0,0.0,0.0,0.0,0.0,0.0,0.0,0.0,0.0,0.0,0.0,0.0,0.0,0.0,0.0,0.0,0.0,0.0,0.0,0.0,0.0,0.0,0.0,0.0,0.0,0.0,0.0,0.0,0.0,0.0,0.0,0.0,0.0,0.0,0.0,0.0,0.0,0.0,0.0,0.0,0.0,-1.7157,-1.6723,-1.6723,-1.7144,-1.6032,-1.562,0.0,0.0,0.0,0.0,0.0,0.0,0.0,0.0,0.0,0.0,0.0,0.0,0.0,0.0,0.0,0.0,0.0,0.0,0.0,0.0,0.0,0.0,0.0,0.0,0.0,0.0,0.0,0.0,0.0,0.0,0.0,0.0,0.0,0.0,0.0,0.0,0.0,0.0,0.0,0.0,0.0,0.0,0.0,0.0,0.0,0.0,0.0,0.0,0.0,0.0,0.0,0.0,0.0,0.0,0.0,0.0,0.0,0.0,0.0,0.0,0.0,0.0,0.0,0.0,0.0,0.0,0.0,0.0,0.0,0.0,0.0,0.0,0.0,0.0,0.0,0.0,0.0,0.0,0.0,0.0,0.0,0.0,0.0,0.0,0.0,0.0,0.0,0.0,0.0,0.0,0.0,0.0,0.0,0.0,0.0,0.0,0.0,0.0,0.0,0.0,0.0,0.0,0.0,0.0,0.0,0.0,0.0,0.0,0.0,-1.668,-1.6565,-1.6552,-1.6693,-1.6225,-1.6034,0.0,0.0,0.0,0.0,0.0,0.0,0.0,0.0,0.0,0.0,0.0,0.0,0.0,0.0,0.0,0.0,0.0,0.0,0.0,0.0,0.0,0.0,0.0,0.0,0.0,0.0,0.0,0.0,0.0,0.0,0.0,0.0,0.0,0.0,0.0,0.0,0.0,0.0,0.0,0.0,0.0,0.0,0.0,0.0,0.0,0.0,0.0,0.0,0.0,0.0,0.0,0.0,0.0,0.0,0.0,0.0,0.0,0.0,0.0,0.0,0.0,0.0,0.0,0.0,0.0,0.0,0.0,0.0,0.0,0.0,0.0,0.0,0.0,0.0,0.0,0.0,0.0,0.0,0.0,0.0,0.0,0.0,0.0,0.0,0.0,0.0,0.0,0.0,0.0,0.0,0.0,0.0,0.0,0.0,0.0,0.0,0.0,0.0,0.0,0.0,0.0,0.0,0.0,0.0,0.0,0.0,0.0,0.0,-1.6362,-1.6479,-1.6534,-1.6479,-1.6436,-1.6287,-1.62,0.0,0.0,0.0,0.0,0.0,0.0,0.0,0.0,0.0,0.0,0.0,0.0,0.0,0.0,0.0,0.0,0.0,0.0,0.0,0.0,0.0,0.0,0.0,0.0,0.0,0.0,0.0,0.0,0.0,0.0,0.0,0.0,0.0,0.0,0.0,0.0,0.0,0.0,0.0,0.0,0.0,0.0,0.0,0.0,0.0,0.0,0.0,0.0,0.0,0.0,0.0,0.0,0.0,0.0,0.0,0.0,0.0,0.0,0.0,0.0,0.0,0.0,0.0,0.0,0.0,0.0,0.0,0.0,0.0,0.0,0.0,0.0,0.0,0.0,0.0,0.0,0.0,0.0,0.0,0.0,0.0,0.0,0.0,0.0,0.0,0.0,0.0,0.0,0.0,0.0,0.0,0.0,0.0,0.0,0.0,0.0,0.0,0.0,0.0,0.0,0.0,0.0,0.0,0.0,0.0,0.0,0.0,0.0,-1.6479,-1.6479,-1.6479,-1.6491,-1.6405,-1.6287,-1.62,0.0,0.0,0.0,0.0,0.0,0.0,0.0,0.0,0.0,0.0,0.0,0.0,0.0,0.0,0.0,0.0,0.0,0.0,0.0,0.0,0.0,0.0,0.0,0.0,0.0,0.0,0.0,0.0,0.0,0.0,0.0,0.0,0.0,0.0,0.0,0.0,0.0,0.0,0.0,0.0,0.0,0.0,0.0,0.0,0.0,0.0,0.0,0.0,0.0,0.0,0.0,0.0,0.0,0.0,0.0,0.0,0.0,0.0,0.0,0.0,0.0,0.0,0.0,0.0,0.0,0.0,0.0,0.0,0.0,0.0,0.0,0.0,0.0,0.0,0.0,0.0,0.0,0.0,0.0,0.0,0.0,0.0,0.0,0.0,0.0,0.0,0.0,0.0,0.0,0.0,0.0,0.0,0.0,0.0,0.0,0.0,0.0,0.0,0.0,0.0,0.0,0.0,0.0,0.0,0.0,0.0,0.0,0.0,-1.6331,-1.6436,-1.6479,-1.6479,-1.6392,-1.6275,-1.6144,0.0,0.0,0.0,0.0,0.0,0.0,0.0,0.0,0.0,0.0,0.0,0.0,0.0,0.0,0.0,0.0,0.0,0.0,0.0,0.0,0.0,0.0,0.0,0.0,0.0,0.0,0.0,0.0,0.0,0.0,0.0,0.0,0.0,0.0,0.0,0.0,0.0,0.0,0.0,0.0,0.0,0.0,0.0,0.0,0.0,0.0,0.0,0.0,-0.9198,0.0,0.0,0.0,0.0,0.0,0.0,0.0,0.0,0.0,0.0,0.0,0.0,0.0,0.0,0.0,0.0,0.0,0.0,0.0,0.0,0.0,0.0,0.0,0.0,0.0,0.0,0.0,0.0,0.0,0.0,0.0,0.0,0.0,0.0,0.0,0.0,0.0,0.0,0.0,0.0,0.0,0.0,0.0,0.0,0.0,0.0,0.0,0.0,0.0,0.0,0.0,0.0,0.0,0.0,0.0,0.0,0.0,0.0,0.0,-1.6318,-1.6392,-1.6436,-1.6392,-1.6219,-1.6144,-1.6044,0.0,0.0,0.0,0.0,0.0,0.0,0.0,0.0,0.0,0.0,0.0,0.0,0.0,0.0,0.0,0.0,0.0,0.0,0.0,0.0,0.0,0.0,0.0,0.0,0.0,0.0,0.0,0.0,0.0,0.0,0.0,0.0,0.0,0.0,0.0,0.0,0.0,0.0,0.0,0.0,0.0,0.0,0.0,0.0,0.0,0.0,0.0,0.0,0.0,0.0,0.0,0.0,0.0,0.0,0.0,0.0,0.0,0.0,0.0,0.0,0.0,0.0,0.0,0.0,0.0,0.0,0.0,0.0,0.0,0.0,0.0,0.0,0.0,0.0,0.0,0.0,0.0,0.0,0.0,0.0,0.0,0.0,0.0,0.0,0.0,0.0,0.0,0.0,0.0,0.0,0.0,0.0,0.0,0.0,0.0,0.0,0.0,0.0,0.0,0.0,0.0,0.0,0.0,0.0,0.0,0.0,0.0,-1.6361,-1.6436,-1.6349,-1.6436,-1.6349,-1.6001,-1.6001,-1.5944,-1.5856,0.0,0.0,0.0,0.0,0.0,0.0,0.0,0.0,0.0,0.0,0.0,0.0,0.0,0.0,0.0,0.0,0.0,0.0,0.0,0.0,0.0,0.0,0.0,0.0,0.0,0.0,0.0,0.0,0.0,0.0,0.0,0.0,0.0,0.0,0.0,0.0,0.0,0.0,-0.9753,-1.0287,0.0,0.0,0.0,0.0,0.0,0.0,0.0,0.0,-1.0073,0.0,0.0,0.0,0.0,0.0,0.0,0.0,0.0,0.0,0.0,0.0,0.0,0.0,0.0,0.0,0.0,0.0,0.0,0.0,0.0,0.0,0.0,0.0,0.0,0.0,0.0,0.0,0.0,0.0,0.0,0.0,0.0,0.0,0.0,0.0,0.0,0.0,0.0,0.0,0.0,0.0,0.0,0.0,0.0,0.0,0.0,0.0,0.0,0.0,0.0,0.0,0.0,0.0,0.0,0.0,0.0,-1.5881,-1.654,-1.6643,-1.61,-1.663,-1.6598,-1.6025,-1.6001,-1.5768,-1.5232,0.0,0.0,0.0,0.0,0.0,0.0,0.0,0.0,0.0,0.0,0.0,0.0,0.0,0.0,0.0,0.0,0.0,0.0,0.0,0.0,0.0,0.0,0.0,0.0,0.0,0.0,0.0,0.0,0.0,0.0,0.0,0.0,0.0,0.0,0.0,0.0,0.0,0.0,0.0,-1.0755,-1.1174,0.0,0.0,0.0,0.0,0.0,0.0,0.0,0.0,-1.0087,0.0,0.0,0.0,0.0,0.0,0.0,0.0,0.0,0.0,0.0,0.0,0.0,0.0,0.0,0.0,0.0,0.0,0.0,0.0,0.0,0.0,0.0,0.0,0.0,0.0,0.0,0.0,0.0,0.0,0.0,0.0,0.0,0.0,0.0,0.0,0.0,0.0,0.0,0.0,0.0,0.0,0.0,0.0,0.0,0.0,0.0,0.0,0.0,0.0,0.0,0.0,0.0,0.0,0.0,0.0,-1.63,-1.6727,-1.6861,-1.6852,-1.7154,-1.6985,-1.636,-1.6324,-1.5784,0.0,0.0,0.0,0.0,0.0,0.0,0.0,0.0,0.0,0.0,0.0,0.0,0.0,0.0,0.0,0.0,0.0,0.0,0.0,0.0,0.0,0.0,0.0,0.0,0.0,0.0,0.0,0.0,0.0,0.0,0.0,0.0,0.0,0.0,0.0,0.0,0.0,0.0,0.0,0.0,-1.1209,-1.1639,-1.1633,0.0,0.0,0.0,0.0,0.0,0.0,-1.089,-1.0821,0.0,0.0,0.0,0.0,0.0,0.0,0.0,0.0,0.0,0.0,0.0,0.0,0.0,0.0,0.0,0.0,0.0,0.0,0.0,0.0,0.0,0.0,0.0,0.0,0.0,0.0,0.0,0.0,0.0,0.0,0.0,0.0,0.0,0.0,0.0,0.0,0.0,0.0,0.0,0.0,0.0,0.0,0.0,0.0,0.0,0.0,0.0,0.0,0.0,0.0,0.0,0.0,0.0,0.0,0.0,-1.672,-1.701,-1.7242,-1.7569,-1.769,-1.7328,-1.6596,-1.6525,-1.5753,0.0,0.0,0.0,0.0,0.0,0.0,0.0,0.0,0.0,0.0,0.0,0.0,0.0,0.0,0.0,0.0,0.0,0.0,0.0,0.0,0.0,0.0,0.0,0.0,0.0,0.0,0.0,0.0,0.0,0.0,0.0,0.0,0.0,0.0,0.0,0.0,0.0,0.0,0.0,0.0,0.0,-1.2567,-1.2467,-1.2877,0.0,0.0,0.0,0.0,-1.1365,-1.1476,0.0,0.0,0.0,0.0,0.0,0.0,0.0,0.0,0.0,0.0,0.0,0.0,0.0,0.0,0.0,0.0,0.0,0.0,0.0,0.0,0.0,0.0,0.0,0.0,0.0,0.0,0.0,0.0,0.0,0.0,0.0,0.0,0.0,0.0,0.0,0.0,0.0,0.0,0.0,0.0,0.0,0.0,0.0,0.0,0.0,0.0,0.0,0.0,0.0,0.0,0.0,0.0,0.0,0.0,0.0,0.0,-1.6654,-1.7654,-1.7944,-1.746,-1.7881,-1.764,-1.662,-1.6197,-1.5472,0.0,0.0,0.0,0.0,0.0,0.0,0.0,0.0,0.0,0.0,0.0,0.0,0.0,0.0,0.0,0.0,0.0,0.0,0.0,0.0,0.0,0.0,0.0,0.0,0.0,0.0,0.0,0.0,0.0,0.0,0.0,0.0,0.0,0.0,0.0,0.0,0.0,0.0,0.0,0.0,0.0,-1.4275,-1.525,-1.4124,-1.3531,0.0,0.0,-1.1538,-1.1834,-1.1351,0.0,0.0,0.0,0.0,0.0,0.0,0.0,0.0,0.0,0.0,0.0,0.0,0.0,0.0,0.0,0.0,0.0,0.0,0.0,0.0,0.0,0.0,0.0,0.0,0.0,0.0,0.0,0.0,0.0,0.0,0.0,0.0,0.0,0.0,0.0,0.0,0.0,0.0,0.0,0.0,0.0,0.0,0.0,0.0,0.0,0.0,0.0,0.0,0.0,0.0,0.0,0.0,0.0,0.0,0.0,-1.6904,-1.7087,-1.7882,-1.8292,-1.8313,-1.853,-1.8145,-1.7087,-1.6582,-1.5804,0.0,0.0,0.0,0.0,0.0,0.0,0.0,0.0,0.0,0.0,0.0,0.0,0.0,0.0,0.0,0.0,0.0,0.0,0.0,0.0,0.0,0.0,0.0,0.0,0.0,0.0,0.0,0.0,0.0,0.0,0.0,0.0,0.0,0.0,0.0,0.0,0.0,0.0,0.0,0.0,0.0,0.0,-1.5759,-1.4971,0.0,0.0,0.0,-1.2282,-1.16,0.0,0.0,0.0,0.0,0.0,0.0,0.0,0.0,0.0,0.0,0.0,0.0,0.0,0.0,0.0,0.0,0.0,0.0,0.0,0.0,0.0,0.0,0.0,0.0,0.0,0.0,0.0,0.0,0.0,0.0,0.0,0.0,0.0,0.0,0.0,0.0,0.0,0.0,0.0,0.0,0.0,0.0,0.0,0.0,0.0,0.0,0.0,0.0,0.0,0.0,0.0,0.0,0.0,0.0,0.0,0.0,0.0,-1.7412,-1.8061,-1.859,-1.8963,-1.8867,-1.8298,-1.7362,-1.6744,0.0,0.0,0.0,0.0,0.0,0.0,0.0,0.0,0.0,0.0,0.0,0.0,0.0,0.0,0.0,0.0,0.0,0.0,0.0,0.0,0.0,0.0,0.0,0.0,0.0,0.0,0.0,-1.0892,0.0,0.0,0.0,0.0,0.0,0.0,0.0,0.0,0.0,0.0,0.0,0.0,0.0,0.0,-1.536,-1.5998,-1.5486,-1.4871,0.0,0.0,-1.2683,-1.1592,-1.1652,-1.1531,0.0,0.0,0.0,0.0,0.0,0.0,0.0,0.0,0.0,0.0,0.0,0.0,0.0,0.0,0.0,0.0,0.0,0.0,0.0,0.0,0.0,0.0,0.0,0.0,0.0,0.0,0.0,0.0,0.0,0.0,0.0,0.0,0.0,0.0,0.0,0.0,0.0,0.0,0.0,0.0,0.0,0.0,0.0,0.0,0.0,0.0,0.0,0.0,0.0,0.0,0.0,0.0,0.0,0.0,0.0,-1.7424,-1.8422,-1.8951,-1.8975,-1.8506,-1.7888,-1.7116,-1.6093,-1.5056,0.0,0.0,0.0,0.0,0.0,0.0,0.0,0.0,0.0,0.0,0.0,0.0,0.0,0.0,0.0,0.0,0.0,0.0,0.0,0.0,0.0,0.0,0.0,0.0,0.0,0.0,0.0,0.0,0.0,0.0,0.0,0.0,0.0,0.0,0.0,0.0,0.0,0.0,0.0,0.0,0.0,-1.6607,-1.6655,-1.5588,-1.5103,0.0,0.0,-1.1907,-1.2311,-1.1672,-1.1059,-1.0624,0.0,0.0,0.0,0.0,0.0,0.0,0.0,0.0,0.0,0.0,0.0,0.0,0.0,0.0,0.0,0.0,0.0,0.0,0.0,0.0,0.0,0.0,0.0,0.0,0.0,0.0,0.0,0.0,0.0,0.0,0.0,0.0,0.0,0.0,0.0,0.0,0.0,0.0,0.0,0.0,0.0,0.0,0.0,0.0,0.0,0.0,0.0,0.0,0.0,0.0,0.0,0.0,0.0,-1.7388,-1.7424,-1.8458,-1.8987,-1.8987,-1.8794,-1.8187,-1.7128,-1.6367,-1.5501,0.0,0.0,0.0,0.0,0.0,0.0,0.0,0.0,0.0,0.0,0.0,0.0,0.0,0.0,0.0,0.0,0.0,0.0,0.0,0.0,0.0,0.0,0.0,0.0,0.0,0.0,0.0,0.0,-1.1794,-1.1895,-1.1983,0.0,0.0,0.0,0.0,0.0,0.0,0.0,0.0,0.0,0.0,-1.536,-1.6225,-1.537,0.0,0.0,-1.3494,-1.2362,-1.1768,-1.1409,-1.1081,-1.0893,-1.0822,0.0,0.0,0.0,0.0,0.0,0.0,0.0,0.0,0.0,0.0,0.0,0.0,0.0,0.0,0.0,0.0,0.0,0.0,0.0,0.0,0.0,0.0,0.0,0.0,0.0,0.0,0.0,0.0,0.0,0.0,0.0,0.0,0.0,0.0,0.0,0.0,0.0,0.0,0.0,0.0,0.0,0.0,0.0,0.0,0.0,0.0,0.0,0.0,0.0,0.0,0.0,0.0,-1.7484,-1.7424,-1.8458,-1.8987,-1.8987,-1.8778,-1.814,-1.719,-1.6355,-1.5416,0.0,0.0,0.0,0.0,0.0,0.0,0.0,0.0,0.0,0.0,0.0,0.0,0.0,0.0,0.0,0.0,0.0,0.0,0.0,0.0,0.0,0.0,0.0,0.0,0.0,0.0,0.0,0.0,-1.2076,-1.2172,-1.2391,0.0,0.0,0.0,0.0,0.0,0.0,0.0,0.0,0.0,0.0,-1.4598,-1.5641,-1.4891,-1.4201,-1.3995,-1.3385,-1.2587,-1.1734,-1.1519,-1.1424,-1.1136,0.0,0.0,0.0,0.0,0.0,0.0,0.0,0.0,0.0,0.0,0.0,0.0,0.0,0.0,0.0,0.0,0.0,0.0,0.0,0.0,0.0,0.0,0.0,0.0,0.0,0.0,0.0,-1.7393,0.0,0.0,-1.6931,0.0,0.0,0.0,0.0,0.0,0.0,0.0,0.0,0.0,0.0,0.0,0.0,0.0,0.0,0.0,0.0,0.0,0.0,0.0,0.0,0.0,0.0,-1.6919,-1.7412,-1.8446,-1.8999,-1.8975,-1.8235,-1.7653,-1.7335,-1.5808,-1.4591,-1.3892,0.0,0.0,0.0,0.0,0.0,0.0,0.0,0.0,0.0,0.0,0.0,0.0,0.0,0.0,0.0,0.0,0.0,0.0,0.0,0.0,0.0,0.0,0.0,0.0,0.0,0.0,-1.2076,-1.2076,-1.2241,0.0,0.0,0.0,0.0,0.0,0.0,0.0,0.0,0.0,0.0,-1.4664,-1.4747,-1.4848,-1.4231,-1.3956,-1.4219,-1.3152,-1.2301,-1.2459,-1.2276,-1.1961,0.0,0.0,0.0,0.0,0.0,0.0,0.0,0.0,0.0,0.0,0.0,0.0,0.0,0.0,0.0,0.0,0.0,0.0,0.0,0.0,0.0,0.0,0.0,0.0,0.0,0.0,0.0,-1.8465,-1.8326,0.0,0.0,0.0,0.0,0.0,0.0,0.0,0.0,0.0,0.0,0.0,-1.7147,-1.7327,0.0,0.0,0.0,0.0,0.0,0.0,0.0,0.0,0.0,0.0,0.0,0.0,-1.7231,-1.746,-1.8291,-1.8721,-1.8721,-1.7943,-1.7263,-1.6674,-1.5571,-1.4254,-1.2684,0.0,0.0,0.0,0.0,0.0,0.0,0.0,0.0,0.0,0.0,0.0,0.0,0.0,0.0,0.0,0.0,0.0,0.0,0.0,0.0,0.0,0.0,0.0,0.0,0.0,-1.2076,0.0,0.0,0.0,0.0,0.0,0.0,0.0,0.0,0.0,0.0,0.0,-1.3336,-1.3862,-1.347,-1.3558,-1.4431,-1.391,-1.3518,0.0,0.0,0.0,0.0,0.0,0.0,0.0,0.0,0.0,0.0,0.0,0.0,0.0,0.0,-1.0038,-0.99,-0.9171,-0.8298,-0.756,0.0,0.0,0.0,0.0,0.0,0.0,0.0,0.0,0.0,0.0,0.0,0.0,0.0,0.0,-1.8822,0.0,-1.8526,0.0,0.0,0.0,0.0,0.0,0.0,0.0,0.0,-1.7748,-1.8085,-1.8253,-1.8434,-1.8422,0.0,-1.8422,-1.7965,0.0,0.0,0.0,0.0,0.0,0.0,0.0,0.0,-1.7459,-1.7563,-1.823,-1.856,-1.841,-1.7843,-1.7192,-1.6537,-1.534,-1.3909,-1.2281,-1.2111,-1.1818,0.0,0.0,0.0,0.0,0.0,0.0,0.0,0.0,0.0,0.0,0.0,0.0,0.0,0.0,0.0,0.0,0.0,0.0,0.0,0.0,0.0,0.0,0.0,-1.2026,0.0,0.0,0.0,0.0,0.0,0.0,0.0,0.0,0.0,-1.3741,-1.346,-1.3352,-1.3658,-1.3134,-1.3135,-1.4055,0.0,0.0,0.0,0.0,0.0,0.0,0.0,-1.2639,-1.2408,-1.2207,-1.2072,-1.1999,-1.1443,-1.0995,-1.0731,0.0,0.0,-0.9455,-0.9115,-0.8558,-0.7585,-0.7398,-0.7352,-0.7281,-0.7605,-0.786,0.0,0.0,0.0,0.0,0.0,0.0,0.0,0.0,-1.9127,-1.9008,0.0,-1.8796,0.0,0.0,0.0,0.0,0.0,-1.8229,0.0,0.0,-1.9732,-2.0249,-1.978,-2.0237,-2.0261,-1.9817,-2.0237,-1.9973,-1.8999,-1.8013,0.0,0.0,0.0,0.0,0.0,0.0,-1.7563,-1.7843,-1.8337,-1.8422,-1.8118,-1.7822,-1.7412,-1.689,-1.5029,-1.3647,-1.2742,-1.2356,-1.2104,-1.2101,-1.2063,0.0,0.0,0.0,0.0,0.0,0.0,0.0,0.0,0.0,0.0,0.0,0.0,0.0,0.0,0.0,0.0,0.0,0.0,0.0,0.0,-1.2144,0.0,0.0,0.0,0.0,0.0,0.0,0.0,0.0,0.0,0.0,-1.3762,-1.3797,-1.38,-1.3804,0.0,0.0,0.0,0.0,-1.3516,-1.3536,-1.345,-1.3457,-1.345,-1.3447,-1.3027,-1.1715,0.0,0.0,-1.0422,-1.0514,-1.0616,-0.9861,-0.937,-0.9113,-0.9653,-0.9127,-0.8594,-0.8442,-0.8367,-0.8267,-0.7867,-0.8209,-0.8526,-2.1776,0.0,0.0,0.0,0.0,-2.0053,-2.0556,-2.1891,-2.0726,-2.044,-2.0759,-2.0436,0.0,0.0,0.0,0.0,0.0,0.0,-1.8554,-1.8758,-1.8867,-1.9011,-1.9227,-1.9384,-1.9564,-1.9793,-1.9937,-2.0045,-2.0141,-1.9853,-1.8855,-1.7183,0.0,0.0,0.0,0.0,-1.8437,-1.8823,-1.8586,-1.843,-1.8318,-1.742,-1.6413,-1.5299,-1.4727,-1.4022,-1.3175,-1.2841,-1.2503,-1.2126,-1.2107,0.0,0.0,0.0,0.0,0.0,0.0,0.0,0.0,0.0,0.0,0.0,0.0,0.0,0.0,0.0,0.0,0.0,0.0,0.0,-1.2076,-1.2383,-1.2456,0.0,0.0,0.0,0.0,0.0,0.0,0.0,0.0,0.0,-1.3601,-1.3457,-1.3402,0.0,0.0,-1.336,-1.3561,-1.3595,-1.3669,-1.3877,-1.34,0.0,-1.2696,-1.1939,-1.1238,-1.0916,-1.0872,-1.0727,-1.0309,-0.9766,-0.9383,-0.9268,-0.8501,-0.7919,-0.8087,-0.8305,-0.817,-0.7642,-0.7472,-0.741,-0.7512,-0.7801,-0.7846,-2.2712,-2.1111,-2.1097,-2.1505,-2.1984,-2.0946,-2.1202,-2.23,-2.1095,-2.0808,-2.1224,-2.1149,-2.0686,-1.9951,-1.9719,0.0,0.0,0.0,-1.9215,-1.93,-1.9203,-1.9324,-1.96,-1.9624,-1.9793,-2.0105,-1.9993,-2.0115,-2.0449,-2.0511,-1.9696,-1.8048,0.0,0.0,-1.7972,-1.841,-1.8802,-1.9149,-1.8883,-1.865,-1.8533,-1.7434,-1.628,-1.5153,-1.4807,-1.4269,-1.3589,-1.3203,-1.2777,-1.2096,-1.2066,-1.2095,0.0,0.0,0.0,0.0,0.0,0.0,0.0,0.0,0.0,0.0,0.0,-1.2165,-1.213,0.0,0.0,0.0,-1.1999,-1.2324,-1.2735,-1.301,0.0,0.0,0.0,0.0,0.0,0.0,0.0,-1.2795,-1.3239,-1.3534,-1.3788,-1.3874,-1.3821,-1.3594,-1.3554,-1.3621,-1.3794,0.0,-1.3284,-1.336,-1.2607,-1.1946,-1.1766,-1.107,-1.0399,-1.0095,-0.9589,-0.9229,-0.9163,-0.8734,-0.8406,-0.8389,-0.7984,-0.7554,-0.7461,-0.7757,-0.7863,-0.7231,-0.7071,-0.7135,-0.7404,-0.7507,-0.7562,-2.3324,-2.3324,-2.3324,-2.3283,-2.3202,-2.2245,-2.1668,-2.1311,-2.0857,-2.0662,-2.0906,-2.1367,-2.1272,-2.0839,-2.0322,0.0,-1.9348,-2.0298,-2.0442,-1.9913,-2.0346,-2.0526,-2.0559,-2.0478,-2.0469,-2.0553,-2.0321,-2.0252,-2.0299,-2.041,-1.9975,-1.9091,-1.9297,-1.9205,-1.8851,-1.8897,-1.8973,-1.9208,-1.9175,-1.8961,-1.8687,-1.7814,-1.6888,-1.5992,-1.5162,-1.4487,-1.3976,-1.3617,-1.3059,-1.2353,-1.2175,-1.2109,-1.2013,0.0,0.0,0.0,0.0,0.0,0.0,0.0,0.0,0.0,0.0,0.0,0.0,0.0,0.0,0.0,-1.2104,0.0,-1.3563,-1.3718,0.0,0.0,0.0,-1.2948,-1.1808,-1.2612,-1.318,-1.2913,0.0,0.0,-1.4195,-1.4623,-1.4763,-1.4229,-1.4064,-1.3979,-1.3979,-1.312,-1.2496,-1.225,-1.1451,-1.0829,-1.0667,-1.0367,-0.9874,-0.9062,-0.8236,-0.7771,-0.7705,-0.7712,-0.7712,-0.7746,-0.7631,-0.7712,-0.7617,-0.759,-0.7512,-0.7238,-0.717,-0.716,-0.7418,-0.7415,-0.7499,-2.4584,-2.4584,-2.4584,-2.4327,-2.3798,-2.3124,-2.3084,-2.345,-2.2526,-2.2447,-2.296,-2.2735,-2.2763,-2.3015,-2.2871,-2.2534,-2.2029,-2.1885,-2.1536,-2.0995,-2.0298,-1.9961,-1.9949,-1.9564,-1.9694,-2.0204,-2.0181,-2.0415,-2.0977,-2.098,-2.0723,-2.0256,-2.0234,-1.9984,-1.9469,-1.9573,-1.9817,-2.0225,-1.9607,-1.912,-1.8687,-1.8121,-1.7408,-1.6446,-1.5896,-1.5206,-1.4409,-1.4259,-1.411,-1.3932,-1.2959,-1.2157,-1.149,-1.1077,0.0,0.0,0.0,0.0,0.0,0.0,0.0,0.0,0.0,-1.2217,-1.1937,0.0,-1.2339,0.0,-1.2193,-1.2204,-1.2426,-1.2699,0.0,0.0,-1.3068,-1.3092,-1.2982,-1.3328,-1.3677,-1.3828,-1.4462,-1.483,-1.4763,-1.4691,-1.4635,-1.4497,-1.3748,-1.329,-1.3201,-1.2204,-1.1478,-1.1282,-1.0558,-0.9958,-0.9622,-0.8886,-0.8325,-0.7998,-0.7764,-0.7634,-0.7743,-0.7763,-0.7797,-0.7899,-0.7834,-0.7773,-0.776,-0.7675,-0.759,-0.7499,-0.7397,-0.7278,-0.7258,-0.7234,-0.7234,-2.5005,-2.5005,-2.5005,-2.4689,-2.4129,-2.3594,-2.3427,-2.3571,-2.2757,-2.253,-2.2677,-2.2889,-2.328,-2.3761,-2.3839,-2.334,-2.263,-2.233,-2.1777,-2.1007,-2.0418,-2.0153,-2.0141,-1.9674,-1.9728,-2.01,-1.9819,-1.9858,-2.0284,-2.0347,-2.031,-2.0068,-2.0278,-2.0187,-1.9862,-1.9709,-1.9913,-2.0377,-1.9942,-1.9517,-1.9015,-1.8365,-1.7532,-1.6598,-1.5919,-1.5177,-1.4318,-1.4418,-1.4503,-1.4468,-1.3195,-1.2137,-1.144,-1.1147,-1.1183,0.0,0.0,0.0,0.0,0.0,0.0,0.0,0.0,0.0,0.0,0.0,-1.2748,-1.2865,-1.2701,-1.2691,-1.2953,-1.3223,-1.3304,-1.326,-1.3528,-1.3639,-1.3446,-1.3697,-1.4012,-1.4173,-1.4527,-1.4793,-1.48,-1.4812,-1.4797,-1.4797,-1.3368,-1.2527,-1.2597,-1.1451,-1.0445,-1.026,-0.9528,-0.8796,-0.8613,-0.8087,-0.777,-0.7712,-0.775,-0.7824,-0.7899,-0.7913,-0.7943,-0.8014,-0.797,-0.7913,-0.7909,-0.7855,-0.778,-0.7699,-0.7628,-0.7516,-0.7377,-0.7288,-0.7244,-2.5113,-2.5113,-2.5032,-2.4708,-2.4253,-2.3794,-2.3302,-2.2789,-2.2385,-2.1977,-2.1668,-2.2642,-2.3376,-2.3869,-2.3869,-2.3328,-2.2402,-2.2402,-2.1813,-2.0803,-2.0672,-2.066,-2.0591,-2.0205,-2.003,-2.0029,-1.9497,-1.9171,-1.9248,-1.9423,-1.9506,-1.9528,-1.9868,-2.0085,-2.0064,-1.9659,-1.9626,-1.9987,-1.9987,-1.9781,-1.9293,-1.8499,-1.7554,-1.6568,-1.5653,-1.4812,-1.401,-1.4228,-1.4405,-1.4366,-1.327,-1.2285,-1.1583,-1.1491,-1.1672,0.0,-1.1817,0.0,0.0,0.0,0.0,0.0,0.0,0.0,0.0,-1.3189,-1.3332,-1.345,-1.3329,-1.3382,-1.3938,-1.395,-1.3837,-1.3672,-1.4017,-1.4093,-1.3605,-1.3944,-1.421,-1.4216,-1.445,-1.4714,-1.472,-1.493,-1.5077,-1.4848,-1.308,-1.1879,-1.2112,-1.0739,-0.9353,-0.9137,-0.8491,-0.797,-0.7794,-0.7872,-0.798,-0.7882,-0.7933,-0.8035,-0.8028,-0.8031,-0.8035,-0.8038,-0.8031,-0.8031,-0.8038,-0.8031,-0.7991,-0.7865,-0.7811,-0.7733,-0.757,-0.7441,-0.737,-2.5724,-2.567,-2.5208,-2.4708,-2.4279,-2.416,-2.367,-2.2855,-2.2807,-2.2702,-2.2727,-2.3352,-2.3905,-2.4362,-2.4374,-2.4037,-2.3472,-2.3472,-2.2895,-2.1861,-2.1188,-2.0866,-2.0771,-2.0016,-1.9753,-1.9896,-1.9795,-1.9798,-1.9931,-1.9965,-1.9944,-1.9944,-2.0031,-2.0085,-2.0064,0.0,0.0,0.0,-1.955,-1.9253,-1.8776,-1.8564,-1.7714,-1.6205,-1.559,0.0,-1.3666,-1.3872,-1.393,-1.3712,-1.3327,0.0,0.0,0.0,0.0,0.0,0.0,0.0,0.0,0.0,0.0,0.0,-1.314,-1.3316,-1.3533,-1.425,-1.4367,-1.3453,-1.3528,-1.3406,-1.277,-1.2688,-1.2841,-1.3157,-1.3267,-1.3383,-1.3507,-1.3952,-1.4303,-1.4309,-1.4735,-1.5,-1.4994,-1.486,-1.479,-1.4598,-1.2737,-1.1434,-1.1443,-0.9676,-0.8332,-0.8245,-0.8122,-0.7946,-0.7953,-0.7997,-0.8028,-0.8004,-0.8011,-0.8038,-0.8038,-0.8038,-0.8038,-0.8038,-0.8038,-0.7939,-0.8038,-0.8038,-0.7932,-0.8004,-0.7896,-0.7733,-0.7472,-0.7394,-0.7154,-2.6348,0.0,-2.5697,-2.502,0.0,-2.406,-2.3412,-2.2555,-2.2787,-2.2923,-2.2991,-2.3256,-2.3664,-2.4145,-2.4145,-2.379,-2.3114,-2.3191,-2.2633,-2.1675,-2.128,-2.109,-2.1016,-2.0392,-2.0155,-2.0225,-2.0098,-2.0039,-2.0074,-2.0085,-2.0085,-2.0085,-2.0085,-2.0085,-2.0074,-1.9659,-1.943,-1.943,-1.943,-1.9264,-1.8942,-1.8066,-1.7204,-1.629,-1.5387,0.0,0.0,0.0,0.0,0.0,0.0,0.0,0.0,0.0,0.0,-1.2528,-1.2695,-1.279,-1.2798,-1.2965,-1.3298,-1.3831,-1.449,-1.4592,-1.397,-1.4572,-1.4491,-1.341,-1.3528,-1.3411,-1.2772,-1.2825,-1.3019,-1.329,-1.3429,-1.3568,-1.3707,-1.4042,-1.4294,-1.43,-1.4506,-1.4694,-1.4688,-1.4592,-1.4292,-1.3709,-1.2344,-1.0974,-1.0391,-0.9019,-0.8038,-0.8038,-0.8038,-0.8038,-0.8038,-0.8038,-0.8038,-0.8038,-0.8038,-0.8038,-0.8038,-0.8038,-0.8038,-0.7939,-0.7637,-0.7341,-0.7856,-0.7447,-0.7141,-0.7846,-0.7946,-0.7784,-0.7553,-0.7063,-0.6338,-2.6925,-2.6735,-2.6188,-2.5382,-2.4453,-2.3968,-2.3242,-2.2392,0.0,0.0,0.0,-2.2847,-2.3135,-2.3628,-2.3562,-2.3203,-2.2486,-2.2385,-2.1987,-2.1169,-2.1094,-2.1106,-2.1094,-2.0711,-2.0506,-2.0518,-2.0205,-2.0085,-2.0085,-2.0085,-2.0085,-2.0085,-2.0085,-2.0085,-2.0064,-1.9619,-1.9412,-1.9476,-1.9462,-1.9276,-1.8878,-1.7461,-1.6558,-1.62,-1.5111,-1.4329,-1.3991,-1.3965,-1.3868,-1.3615,-1.3542,-1.386,-1.4543,-1.3786,-1.3362,-1.3561,-1.364,-1.3672,-1.368,-1.3791,-1.4164,-1.4871,-1.5705,-1.5654,-1.4478,-1.4662,-1.4388,-1.3359,-1.3555,-1.3557,-1.3103,-1.3363,-1.3538,-1.358,-1.3779,-1.3918,-1.3984,-1.4159,-1.4286,-1.4298,-1.4292,-1.4298,-1.4298,-1.41,-1.3709,-1.2829,-1.1653,-1.0489,-0.9509,-0.8531,-0.8038,-0.8038,-0.8038,-0.8038,-0.8038,-0.8038,-0.8038,-0.8038,-0.7939,-0.7939,-0.7942,-0.7842,-0.7842,-0.7842,-0.7138,-0.6945,-0.7253,-0.6342,-0.6042,-0.7062,-0.7248,-0.7208,-0.6896,-0.6166,-0.5312,-2.7319,-2.6823,-2.6241,-2.5431,-2.4489,-2.4402,-2.3784,-2.2835,-2.2464,-2.2308,-2.2294,-2.2306,-2.2582,-2.3087,-2.284,-2.261,-2.2474,-2.2166,-2.1694,-2.1169,-2.0828,-2.07,-2.0635,-2.0324,-2.014,-2.014,-2.014,-2.0085,-2.0085,-2.0085,-2.0085,-2.0085,-2.0085,-2.0085,-2.0074,-1.9585,-1.9488,-1.9825,-1.9552,-1.8776,-1.7504,-1.7331,-1.6515,-1.5036,-1.4522,-1.4065,-1.3659,-1.3938,-1.3929,-1.3645,-1.4096,-1.4463,-1.4558,-1.4203,-1.3846,-1.3624,-1.387,-1.4037,-1.4053,-1.4609,-1.5253,-1.5904,-1.6126,-1.5841,-1.5128,-1.5397,-1.5036,-1.3762,-1.3847,-1.376,-1.3221,-1.3381,-1.3634,-1.3815,-1.3882,-1.399,-1.4195,-1.4268,-1.4298,-1.4298,-1.4298,-1.4298,-1.4298,-1.3516,-1.2926,-1.2436,-1.0974,-0.941,-0.8627,-0.8137,-0.8038,-0.8038,-0.8038,-0.8038,-0.8038,-0.8038,-0.8038,-0.8038,-0.7842,-0.7643,-0.7643,-0.7537,-0.7441,-0.7556,-0.7253,-0.6748,-0.5837,-0.4722,-0.4422,-0.4618,-0.4708,-0.4782,-0.4761,-0.4258,-0.3969,-2.7601,-2.7262,-2.644,-2.5626,-2.4959,-2.4345,-2.3904,-2.3453,-2.3159,-2.2714,-2.2246,-2.2285,-2.242,-2.2657,-2.2601,-2.2463,-2.225,-2.1843,-2.1395,-2.1039,-2.0586,-2.0335,-2.0335,-2.014,-2.0085,-2.0085,-2.0085,-2.0085,-2.0085,-2.0085,-2.0085,-2.0085,-2.0085,-1.9933,-1.966,-1.9243,-1.8967,-1.8834,-1.8793,-1.8356,-1.7513,-1.7101,-1.6215,-1.5002,-1.4465,-1.4179,-1.4148,-1.4125,-1.4119,-1.4144,-1.4395,-1.4577,-1.4592,-1.4481,-1.4411,-1.445,-1.4601,-1.4768,-1.4959,-1.5443,-1.5872,-1.6182,-1.6381,-1.6006,-1.501,-1.5065,-1.4804,-1.4038,-1.3875,-1.3752,-1.3538,-1.3785,-1.399,-1.4105,-1.4117,-1.4165,-1.4268,-1.4298,-1.4298,-1.4298,-1.4298,-1.4298,-1.4298,-1.3414,-1.2436,-1.1853,-1.0096,-0.8531,-0.8035,-0.8038,-0.8038,-0.8038,-0.8038,-0.8038,-0.8038,-0.8038,-0.7942,-0.7842,-0.7643,-0.7543,-0.7441,-0.7235,-0.7244,-0.7356,-0.6956,-0.6556,-0.6158,-0.4336,-0.282,-0.2007,-0.3227,-0.3733,-0.3798,-0.2864,-0.225,-2.7709,-2.7537,-2.6578,-2.5866,-2.529,-2.4481,-2.4049,-2.3874,-2.3874,-2.3281,-2.2412,-2.2504,-2.2538,-2.2453,-2.249,-2.2309,-2.2058,-2.1609,-2.1307,-2.1048,-2.0642,-2.0413,-2.0314,-2.0303,-2.0194,-2.0096,-2.0085,-2.0085,-2.0085,-2.0085,-2.0085,-2.0085,-2.0009,-1.9726,-1.9299,-1.8767,-1.8365,-1.8085,-1.8035,-1.776,-1.7316,-1.6612,-1.5839,-1.5076,-1.4431,-1.4275,-1.453,-1.4371,-1.4355,-1.4545,-1.4569,-1.4569,-1.4569,-1.4569,-1.4768,-1.5038,-1.5141,-1.5364,-1.5769,-1.6047,-1.6246,-1.6325,-1.6409,-1.6064,-1.5068,-1.4719,-1.4334,-1.398,-1.3675,-1.3688,-1.387,-1.4123,-1.4298,-1.4298,-1.4298,-1.4292,-1.4298,-1.4298,-1.4298,-1.4298,-1.4298,-1.4298,-1.41,-1.3318,-1.2247,-1.0877,-0.9217,-0.8038,-0.8038,-0.7939,-0.7939,-0.7839,-0.7842,-0.7942,-0.7942,-0.7839,-0.7739,-0.7543,-0.7444,-0.7344,-0.7138,-0.7039,-0.7048,-0.7056,-0.5844,-0.5041,-0.5665,-0.3636,-0.1313,-0.0604,-0.1672,-0.2783,-0.2556,-0.1659,-0.072,-2.751,-2.704,-2.6433,-2.5869,-2.5286,-2.5155,-2.4658,-2.4013,-2.3977,-2.3454,-2.2682,-2.2975,-2.2931,-2.2581,-2.2332,-2.217,-2.209,-2.1746,-2.1596,-2.1516,-2.1483,-2.1221,-2.0884,-2.0795,-2.0566,-2.0162,-2.014,-2.0162,-2.0129,-2.0085,-2.0085,-2.002,-1.9584,-1.9375,-1.9177,-1.8317,-1.7988,-1.8259,-1.7472,-1.6766,-1.6192,-1.5789,-1.5308,-1.4689,-1.4299,-1.4283,-1.4545,-1.4537,-1.4601,-1.4569,-1.4569,-1.4569,-1.4569,-1.4569,-1.4657,-1.4728,-1.5022,-1.5467,-1.6071,-1.619,-1.6357,-1.6561,-1.6116,-1.5748,-1.5514,-1.4737,-1.3867,-1.3477,-1.3592,-1.3857,-1.3918,-1.4147,-1.4298,-1.4298,-1.4298,-1.4298,-1.4298,-1.4298,-1.4298,-1.4298,-1.4298,-1.4298,-1.4202,-1.3318,-1.1848,-1.019,-0.8821,-0.8041,-0.7942,-0.7842,-0.754,-0.7437,-0.7441,-0.7646,-0.7646,-0.7441,-0.7338,-0.7241,-0.7042,-0.6942,-0.6842,-0.6642,-0.6545,-0.6464,-0.4941,-0.3327,-0.1715,-0.0,-0.0,-0.0,-0.0,-0.0,-0.0,-0.0,-0.0,-2.704,-2.6496,-2.5873,-2.5394,-2.5064,-2.4981,-2.4637,-2.4176,-2.4093,-2.3752,-2.3285,-2.3345,-2.3174,-2.2714,-2.2639,-2.2628,-2.2617,-2.221,-2.2018,-2.1985,-2.1734,-2.1483,-2.1319,-2.1286,-2.1177,-2.1013,-2.1002,-2.085,-2.0555,-2.0282,-2.0085,-2.0053,-1.9793,-1.938,-1.8885,-1.8419,-1.7808,-1.6811,-1.6515,-1.5956,-1.5313,-1.5539,-1.532,-1.4649,-1.4299,-1.4283,-1.4498,-1.4442,-1.4426,-1.4545,-1.4569,-1.4569,-1.4569,-1.4569,-1.4751,-1.5229,-1.5793,-1.6214,-1.65,-1.6516,-1.6579,-1.673,-1.6072,-1.5641,-1.5333,-1.4764,-1.4123,-1.3677,-1.3785,-1.396,-1.4117,-1.4238,-1.4298,-1.4298,-1.4298,-1.4298,-1.4298,-1.4298,-1.4298,-1.4298,-1.4298,-1.4298,-1.41,-1.2829,-1.1268,-0.9801,-0.873,-0.8041,-0.7949,-0.7746,-0.7338,-0.6933,-0.6939,-0.7144,-0.7341,-0.7338,-0.7138,-0.6942,-0.6845,-0.6745,-0.6539,-0.6539,-0.6448,-0.6372,-0.4541,-0.252,-0.0606,-0.0,-0.0,-0.0,-0.0,-0.0,-0.0,-0.0,-0.0,-2.6701,-2.6151,-2.5523,-2.504,-2.4646,-2.4801,-2.4502,-2.4055,-2.4055,-2.3813,-2.3446,-2.3446,-2.3183,-2.2928,-2.2922,-2.3001,-2.2957,-2.2652,-2.2499,-2.2466,-2.2127,-2.1909,-2.1811,-2.1778,-2.1712,-2.1614,-2.1581,-2.1396,-2.1046,-2.0729,-2.0411,-2.0253,-1.9986,-1.9481,-1.8666,-1.8431,-1.7574,-1.6236,-1.5971,-1.5572,-1.4935,-1.5196,-1.5204,-1.4689,-1.4395,-1.4379,-1.4545,-1.4387,-1.4371,-1.4553,-1.4569,-1.4569,-1.4569,-1.4569,-1.4951,-1.5634,-1.6246,-1.6635,-1.6722,-1.673,-1.673,-1.6648,-1.5906,-1.5365,-1.5081,-1.4592,-1.4157,-1.3944,-1.3972,-1.4111,-1.4256,-1.4298,-1.4298,-1.4298,-1.4298,-1.4298,-1.4298,-1.4298,-1.4298,-1.4298,-1.4298,-1.4298,-1.4106,-1.2834,-1.1365,-1.0194,-0.9019,-0.824,-0.7952,-0.765,-0.7141,-0.6528,-0.6537,-0.6739,-0.7039,-0.6936,-0.6939,-0.6842,-0.6642,-0.6642,-0.6437,-0.6437,-0.6448,-0.6165,-0.4438,-0.0,-0.0,-0.0,-0.0,-0.0,-0.0,-0.0,-0.0,-0.0,-0.0,-2.6688,-2.6164,-2.5523,-2.4897,-2.4273,-2.4646,-2.4345,-2.3677,-2.3593,-2.3372,-2.3075,-2.3075,-2.3054,-2.3021,-2.2979,-2.3001,-2.299,-2.2957,-2.2936,-2.2925,-2.2892,-2.2684,-2.2302,-2.2269,-2.2051,-2.1734,-2.1734,-2.1647,-2.1559,-2.1505,-2.1226,-2.0691,-2.0145,-1.9499,-1.8787,-1.8027,-1.7365,-1.6709,-1.6156,-1.5568,-1.5207,-1.488,-1.4761,-1.4697,-1.4545,-1.4537,-1.4561,-1.4625,-1.4553,-1.4569,-1.4569,-1.4577,-1.4585,-1.4609,-1.5022,-1.5634,-1.6047,-1.6397,-1.6683,-1.673,-1.6648,-1.6492,-1.5514,-1.4874,-1.495,-1.4193,-1.375,-1.3888,-1.4129,-1.4274,-1.4292,-1.4298,-1.4298,-1.4298,-1.4298,-1.4298,-1.4298,-1.4298,-1.4298,-1.4298,-1.4298,-1.4298,-1.4202,-1.3312,-1.195,-1.0779,-0.9706,-0.8829,-0.7949,-0.735,-0.6842,-0.6537,-0.6437,-0.6539,-0.6739,-0.6739,-0.6537,-0.6439,-0.6539,-0.6437,-0.6437,-0.6439,-0.6456,-0.6062,-0.4742,-0.0,-0.0,-0.0,-0.0,-0.0,-0.0,-0.0,-0.0,-0.0,0.018,-2.6358,-2.5265,-2.4826,-2.4406,-2.4189,-2.4116,-2.3835,-2.3593,-2.3298,-2.315,-2.3001,-2.3001,-2.3001,-2.3001,-2.3001,-2.3001,-2.3001,-2.3001,-2.3001,-2.3001,-2.3001,-2.2914,-2.2772,-2.2761,-2.2684,-2.2521,-2.2488,-2.2335,-2.2029,-2.1756,-2.129,-2.0778,-2.0544,-1.9811,-1.8693,-1.8302,-1.7636,-1.6664,-1.6538,-1.6238,-1.5591,-1.5375,-1.5308,-1.5276,-1.4863,-1.4569,-1.4569,-1.4569,-1.4576,-1.4553,-1.46,-1.4759,-1.5079,-1.5431,-1.5737,-1.6007,-1.6349,-1.6603,-1.6714,-1.673,-1.6476,-1.6087,-1.5423,-1.4888,-1.4661,-1.4151,-1.3876,-1.4111,-1.422,-1.4292,-1.4298,-1.4298,-1.4298,-1.4298,-1.4298,-1.4298,-1.4298,-1.4298,-1.4298,-1.4298,-1.4298,-1.4202,-1.3721,-1.2931,-1.1755,-1.0489,-0.941,-0.8432,-0.765,-0.7048,-0.6642,-0.6539,-0.6437,-0.6437,-0.6539,-0.6539,-0.6437,-0.6437,-0.6437,-0.6437,-0.6437,-0.6448,-0.6361,-0.5962,-0.4847,-0.0,-0.0,-0.0,0.0198,0.0679,0.0666,0.056,-0.0,0.0451,0.0629,-2.5734,-2.4706,-2.4418,-2.42,-2.3813,-2.3677,-2.353,-2.3372,-2.315,-2.3001,-2.3001,-2.3001,-2.3001,-2.3001,-2.3001,-2.3001,-2.3001,-2.3001,-2.3001,-2.3001,-2.3001,-2.3001,-2.3001,-2.3001,-2.3001,-2.299,-2.3001,-2.2826,-2.2542,-2.1999,-2.1466,-2.0907,-2.0842,-2.0002,-1.8662,-1.8252,-1.7588,-1.6704,-1.669,-1.6401,-1.5774,-1.5674,-1.5674,-1.561,-1.5213,-1.4975,-1.4975,-1.4975,-1.4906,-1.4824,-1.493,-1.5099,-1.5457,-1.5921,-1.6206,-1.6246,-1.654,-1.673,-1.673,-1.673,-1.6448,-1.589,-1.5412,-1.4906,-1.4663,-1.4167,-1.4121,-1.4226,-1.4298,-1.4298,-1.4298,-1.4298,-1.4298,-1.4298,-1.4298,-1.4298,-1.4298,-1.4298,-1.4202,-1.401,-1.401,-1.3823,-1.334,-1.2754,-1.157,-1.0096,-0.9217,-0.8432,-0.7244,-0.6745,-0.6642,-0.6437,-0.6437,-0.6437,-0.6437,-0.6437,-0.6437,-0.6437,-0.6437,-0.6437,-0.6439,-0.645,-0.6055,-0.5658,-0.4545,-0.3029,-0.1505,-0.0099,0.0586,0.1149,0.1223,0.1017,0.1001,0.0899,0.0987,-2.4886,-2.4345,-2.4634,-2.4127,-2.3298,-2.3446,-2.3383,-2.3065,-2.3001,-2.3001,-2.3001,-2.3001,-2.3001,-2.3001,-2.3001,-2.3001,-2.3001,-2.3001,-2.3001,-2.3001,-2.3001,-2.3001,-2.3001,-2.3001,-2.3001,-2.3001,-2.3001,-2.299,-2.2936,-2.236,-2.1738,-2.1211,-2.0741,-1.9872,-1.8656,-1.7954,-1.7363,-1.685,-1.6523,-1.6142,-1.5737,-1.5769,-1.5777,-1.5753,-1.5705,-1.5682,-1.5682,-1.5642,-1.5518,-1.5304,-1.5457,-1.5666,-1.5745,-1.6055,-1.6238,-1.6301,-1.6555,-1.6714,-1.673,-1.6648,-1.6534,-1.5945,-1.5447,-1.5035,-1.4669,-1.4279,-1.4045,-1.4244,-1.4298,-1.4298,-1.4298,-1.4298,-1.4298,-1.4298,-1.4298,-1.4298,-1.4298,-1.4298,-1.4106,-1.3636,-1.3539,-1.3249,-1.2958,-1.2662,-1.1775,-1.01,-0.941,-0.8619,-0.6936,-0.6539,-0.6437,-0.6437,-0.6437,-0.6437,-0.6437,-0.6437,-0.6437,-0.6437,-0.6437,-0.6437,-0.6439,-0.6348,-0.5445,-0.4845,-0.3228,-0.1614,-0.0201,0.0895,0.0781,0.1149,0.122,0.138,0.1269,0.1166,0.1256,-2.4849,-2.4574,-2.4116,-2.397,-2.374,-2.3372,-2.3224,-2.3372,-2.315,-2.3001,-2.3001,-2.3001,-2.3001,-2.3001,-2.3001,-2.3001,-2.3001,-2.3001,-2.3001,-2.3001,-2.3001,-2.3001,-2.3001,-2.3001,-2.3001,-2.3001,-2.3001,-2.3001,-2.2852,-2.2402,-2.1787,-2.1175,-2.0371,-1.9356,-1.8282,-1.7423,-1.6855,-1.675,-1.6652,-1.65,-1.6404,-1.6397,-1.6404,-1.6397,-1.6404,-1.6404,-1.6381,-1.5944,-1.5707,-1.5552,-1.5521,-1.5591,-1.5945,-1.6285,-1.6563,-1.6579,-1.6659,-1.673,-1.673,-1.6664,-1.6292,-1.5676,-1.5566,-1.5163,-1.4421,-1.4257,-1.4195,-1.4292,-1.4298,-1.4298,-1.4298,-1.4298,-1.4298,-1.4298,-1.4298,-1.4298,-1.4208,-1.3913,-1.3539,-1.3152,-1.3055,-1.2764,-1.237,-1.2273,-1.1385,-0.9608,-0.9118,-0.8326,-0.6933,-0.6437,-0.6437,-0.6437,-0.6437,-0.6437,-0.6437,-0.6437,-0.6437,-0.6437,-0.6437,-0.6437,-0.6439,-0.6142,-0.524,-0.3624,-0.1913,-0.0402,0.1004,0.1486,0.1259,0.1241,0.1403,0.147,0.1444,0.1436,0.1436,-2.4921,-2.4718,-2.4116,-2.3897,-2.3897,-2.3224,-2.315,-2.3309,-2.3065,-2.3001,-2.3001,-2.3001,-2.3001,-2.3001,-2.3001,-2.3001,-2.3001,-2.3001,-2.3001,-2.3001,-2.3001,-2.3001,-2.3001,-2.3001,-2.3001,-2.3001,-2.3001,-2.2852,-2.2628,-2.2025,-2.1395,-2.0547,-1.9715,-1.8772,-1.7797,-1.7098,-1.669,-1.673,-1.673,-1.673,-1.673,-1.673,-1.673,-1.673,-1.673,-1.673,-1.6698,-1.6293,-1.6071,-1.6046,-1.5897,-1.6,-1.6308,-1.6522,-1.673,-1.673,-1.673,-1.673,-1.673,-1.6656,-1.6278,-1.5554,-1.5655,-1.5332,-1.4353,-1.4226,-1.4292,-1.4298,-1.4298,-1.4298,-1.4298,-1.4112,-1.4016,-1.4016,-1.4202,-1.4202,-1.4016,-1.3534,-1.305,-1.2667,-1.2467,-1.2175,-1.1878,-1.1683,-1.1091,-0.9616,-0.9023,-0.8425,-0.7232,-0.6637,-0.6437,-0.6437,-0.6437,-0.6437,-0.6437,-0.6437,-0.6437,-0.6437,-0.6437,-0.6437,-0.6439,-0.6042,-0.534,-0.2709,-0.0802,0.0298,0.1588,0.1551,0.1423,0.1502,0.1488,0.1461,0.1436,0.1436,0.1436,-2.504,-2.479,-2.4345,-2.3897,-2.3604,-2.315,-2.3001,-2.3001,-2.3001,-2.3001,-2.3001,-2.3001,-2.3001,-2.3001,-2.3001,-2.3001,-2.3001,-2.3001,-2.3001,-2.3001,-2.3001,-2.3001,-2.3001,-2.3001,-2.3001,-2.3001,-2.3001,-2.2703,-2.2187,-2.1558,-2.0702,-1.9844,-1.9029,-1.8181,-1.7563,-1.6976,-1.6722,-1.673,-1.673,-1.673,-1.673,-1.673,-1.673,-1.673,-1.673,-1.673,-1.6714,-1.6659,-1.6667,-1.664,-1.6569,-1.6553,-1.6624,-1.673,-1.673,-1.673,-1.673,-1.6648,-1.6648,-1.6547,-1.6216,-1.5436,-1.5535,-1.549,-1.4463,-1.4274,-1.4202,-1.4202,-1.4208,-1.4202,-1.401,-1.3727,-1.3534,-1.3539,-1.3823,-1.3817,-1.3437,-1.2958,-1.2565,-1.2078,-1.198,-1.178,-1.1292,-1.1292,-1.0801,-1.0015,-0.9221,-0.8425,-0.763,-0.6936,-0.6537,-0.6437,-0.6437,-0.6437,-0.6437,-0.6437,-0.6437,-0.6437,-0.6437,-0.6337,-0.6034,-0.5536,-0.4634,-0.2107,-0.0099,0.0987,0.1564,0.1535,0.1507,0.149,0.1471,0.1445,0.1436,0.1436,0.1436,-2.4861,-2.4729,-2.4043,-2.3677,-2.3519,-2.315,-2.3001,-2.3001,-2.3001,-2.3001,-2.3001,-2.3001,-2.3001,-2.3001,-2.3001,-2.3001,-2.3001,-2.3001,-2.3001,-2.3001,-2.3001,-2.3001,-2.3001,-2.3001,-2.3001,-2.3001,-2.2927,-2.2692,-2.2101,-2.1482,-2.0702,-2.0001,-1.8763,-1.8057,-1.7789,-1.7057,-1.673,-1.673,-1.673,-1.673,-1.673,-1.673,-1.673,-1.673,-1.673,-1.673,-1.673,-1.673,-1.673,-1.673,-1.673,-1.673,-1.673,-1.673,-1.673,-1.673,-1.6648,-1.6484,-1.6118,-1.6194,-1.5749,-1.4986,-1.5214,-1.5272,-1.4447,-1.4298,-1.4106,-1.3823,-1.3727,-1.3534,-1.3244,-1.305,-1.2964,-1.3055,-1.3147,-1.305,-1.2565,-1.2273,-1.198,-1.159,-1.1487,-1.1389,-1.1292,-1.1194,-1.0904,-1.0113,-0.9422,-0.8627,-0.7829,-0.7135,-0.6637,-0.6437,-0.6437,-0.6437,-0.6437,-0.6437,-0.6437,-0.6437,-0.6337,-0.6334,-0.5532,-0.4628,-0.3221,-0.1308,0.0099,0.1173,0.1461,0.1542,0.1515,0.1475,0.1469,0.1452,0.144,0.1436,0.1436,-2.4718,-2.449,-2.3886,-2.3593,-2.3519,-2.315,-2.3001,-2.3001,-2.3001,-2.3001,-2.3001,-2.3001,-2.3001,-2.3001,-2.3001,-2.3001,-2.3001,-2.3001,-2.3001,-2.3001,-2.3001,-2.3001,-2.3001,-2.3001,-2.3001,-2.2927,-2.2703,-2.2252,-2.1711,-2.1098,-2.0235,-1.9292,-1.8434,-1.787,-1.7383,-1.6976,-1.673,-1.673,-1.673,-1.673,-1.673,-1.673,-1.673,-1.673,-1.673,-1.673,-1.673,-1.673,-1.673,-1.673,-1.673,-1.673,-1.673,-1.673,-1.673,-1.673,-1.6648,-1.6402,-1.5846,-1.5844,-1.5447,-1.4767,-1.4878,-1.4589,-1.4011,-1.3715,-1.3221,-1.3244,-1.3249,-1.3055,-1.2861,-1.257,-1.237,-1.217,-1.2175,-1.2078,-1.198,-1.1785,-1.1585,-1.1292,-1.1194,-1.1194,-1.1194,-1.1194,-1.0998,-1.0507,-0.9916,-0.9122,-0.8226,-0.7431,-0.6736,-0.6537,-0.6437,-0.6337,-0.6337,-0.6337,-0.6037,-0.6137,-0.5737,-0.5834,-0.5131,-0.3924,-0.2618,-0.1203,0.0197,0.1163,0.1352,0.1528,0.1483,0.1458,0.1461,0.1458,0.1442,0.1436,0.1436,-2.4502,-2.4116,-2.3677,-2.353,-2.3446,-2.315,-2.3001,-2.3001,-2.3001,-2.3001,-2.3001,-2.3001,-2.3001,-2.3001,-2.3001,-2.3001,-2.3001,-2.3001,-2.3001,-2.3001,-2.3001,-2.3001,-2.3001,-2.3001,-2.3001,-2.2927,-2.2402,-2.1949,-2.1405,-2.0624,-1.9529,-1.8665,-1.8193,-1.7546,-1.7066,-1.6738,-1.673,-1.673,-1.673,-1.673,-1.673,-1.673,-1.673,-1.673,-1.673,-1.673,-1.673,-1.673,-1.673,-1.673,-1.673,-1.673,-1.673,-1.673,-1.673,-1.673,-1.6656,-1.6417,-1.5816,-1.5752,-1.5376,-1.4648,-1.4151,-1.3865,-1.3521,-1.2937,-1.2543,-1.2667,-1.2764,-1.2667,-1.2473,-1.2175,-1.178,-1.1487,-1.1292,-1.1487,-1.1688,-1.1487,-1.1194,-1.1194,-1.1194,-1.1194,-1.1194,-1.1194,-1.1194,-1.09,-1.0212,-0.9422,-0.8623,-0.7829,-0.7033,-0.6437,-0.6337,-0.6337,-0.6334,-0.6234,-0.5934,-0.5634,-0.5035,-0.4834,-0.4632,-0.3624,-0.2416,-0.12,-0.0,0.0873,0.1436,0.15,0.146,0.1442,0.1448,0.1443,0.1436,0.1436,0.1436,-2.3824,-2.3666,-2.3309,-2.315,-2.3065,-2.3065,-2.3001,-2.3001,-2.3001,-2.3001,-2.3001,-2.3001,-2.3001,-2.3001,-2.3001,-2.3001,-2.3001,-2.3001,-2.3001,-2.3001,-2.3001,-2.3001,-2.3001,-2.3001,-2.3001,-2.2852,-2.2402,-2.2025,-2.1548,-2.0459,-1.9599,-1.9125,-1.8112,-1.7473,-1.7229,-1.6812,-1.673,-1.673,-1.673,-1.673,-1.673,-1.673,-1.673,-1.673,-1.673,-1.673,-1.673,-1.673,-1.673,-1.673,-1.673,-1.673,-1.673,-1.673,-1.6746,-1.6778,-1.6688,-1.6277,-1.5582,-1.5908,-1.5772,-1.4374,-1.3782,-1.3518,-1.3488,-1.2737,-1.2252,-1.217,-1.2175,-1.198,-1.1683,-1.1492,-1.1389,-1.1194,-1.1194,-1.1292,-1.1292,-1.1296,-1.1194,-1.1194,-1.1194,-1.1194,-1.1194,-1.1194,-1.1194,-1.1096,-1.0507,-0.9723,-0.9023,-0.8226,-0.7531,-0.6736,-0.6237,-0.6134,-0.5937,-0.5734,-0.5334,-0.5033,-0.4533,-0.4133,-0.393,-0.3525,-0.2417,-0.1401,-0.0396,0.039,0.1248,0.1501,0.1467,0.1451,0.1437,0.1436,0.1436,0.1436,0.1436,-2.353,-2.3298,-2.3065,-2.3001,-2.3001,-2.3001,-2.3001,-2.3001,-2.3001,-2.3001,-2.3001,-2.3001,-2.3001,-2.3001,-2.3001,-2.3001,-2.3001,-2.3001,-2.3001,-2.3001,-2.3001,-2.3001,-2.3001,-2.3001,-2.3001,-2.2852,-2.1842,-2.1375,-2.0991,-2.0148,-1.9134,-1.8656,-1.8112,-1.7627,-1.7147,-1.682,-1.673,-1.673,-1.673,-1.673,-1.673,-1.673,-1.673,-1.673,-1.673,-1.673,-1.673,-1.673,-1.6727,-1.67,-1.6735,-1.6738,-1.673,-1.6738,-1.681,-1.6969,-1.6992,-1.6638,-1.6255,-1.6008,-1.568,-1.4539,-1.3702,-1.3267,-1.3091,-1.2457,-1.1965,-1.1683,-1.1585,-1.1492,-1.1194,-1.1194,-1.1194,-1.1194,-1.1194,-1.1194,-1.1194,-1.1194,-1.1194,-1.1194,-1.1194,-1.1194,-1.1194,-1.1194,-1.1194,-1.1194,-1.11,-1.0314,-0.962,-0.8825,-0.8028,-0.7232,-0.6434,-0.5934,-0.5636,-0.5236,-0.4734,-0.4332,-0.3932,-0.3731,-0.353,-0.3126,-0.262,-0.15,-0.0397,0.0295,0.1064,0.1228,0.1481,0.1466,0.1453,0.1443,0.1436,0.1436,0.1436,-2.3298,-2.3001,-2.3001,-2.3001,-2.3001,-2.3001,-2.3001,-2.3001,-2.3001,-2.3001,-2.3001,-2.3001,-2.3001,-2.3001,-2.3001,-2.3001,-2.3001,-2.3001,-2.3001,-2.3001,-2.3001,-2.3001,-2.3001,-2.3001,-2.2927,-2.2767,-2.1603,-2.0904,-2.0518,-1.9678,-1.8736,-1.7861,-1.8023,-1.7619,-1.6894,-1.6738,-1.673,-1.673,-1.673,-1.673,-1.673,-1.673,-1.673,-1.673,-1.673,-1.6794,-1.6759,-1.679,-1.6695,-1.6692,-1.681,-1.6767,-1.6711,-1.6754,-1.6897,-1.7231,-1.7231,-1.7095,-1.6705,-1.6299,-1.5798,-1.514,-1.396,-1.3115,-1.2807,-1.2273,-1.1683,-1.1389,-1.1292,-1.1292,-1.1194,-1.1194,-1.1194,-1.1194,-1.1194,-1.1194,-1.1194,-1.1194,-1.1194,-1.1194,-1.1194,-1.1194,-1.1194,-1.1194,-1.1194,-1.1194,-1.1198,-1.0904,-1.0015,-0.9221,-0.8226,-0.7129,-0.6234,-0.5334,-0.5035,-0.4535,-0.4033,-0.3932,-0.3531,-0.343,-0.3229,-0.3128,-0.262,-0.1507,-0.0499,0.0296,0.0877,0.1335,0.1501,0.1484,0.1461,0.1441,0.1436,0.1436,0.1525,-2.3075,-2.3001,-2.3001,-2.3001,-2.3001,-2.3001,-2.3001,-2.3001,-2.3001,-2.3001,-2.3001,-2.3001,-2.3001,-2.3001,-2.3001,-2.3001,-2.3001,-2.3001,-2.3001,-2.3001,-2.3001,-2.3001,-2.3001,-2.2927,-2.2777,-2.2553,-2.1852,-2.1395,-2.0682,-1.959,-1.8647,-1.8078,-1.7521,-1.6968,-1.6812,-1.673,-1.673,-1.673,-1.673,-1.673,-1.673,-1.673,-1.673,-1.6746,-1.677,-1.6905,-1.702,-1.6891,-1.6723,-1.6782,-1.7257,-1.7223,-1.6952,-1.6771,-1.7,-1.7231,-1.7374,-1.7384,-1.7213,-1.6965,-1.6296,-1.547,-1.4279,-1.3431,-1.2737,-1.1975,-1.1487,-1.1292,-1.1194,-1.1194,-1.1194,-1.1194,-1.1194,-1.1194,-1.1194,-1.1194,-1.1194,-1.1194,-1.1194,-1.1194,-1.1194,-1.1194,-1.1194,-1.1194,-1.1194,-1.1194,-1.1194,-1.0605,-0.9719,-0.8924,-0.8028,-0.6933,-0.5734,-0.5035,-0.4334,-0.3833,-0.3432,-0.3531,-0.3331,-0.3331,-0.323,-0.323,-0.2621,-0.1408,-0.0602,-0.0,0.0686,0.1345,0.151,0.1486,0.1461,0.1436,0.1525,0.1705,0.1973,-2.3001,-2.3001,-2.3001,-2.3001,-2.3001,-2.3001,-2.3001,-2.3001,-2.3001,-2.3001,-2.3001,-2.3001,-2.3001,-2.3001,-2.3001,-2.3001,-2.3001,-2.3001,-2.3001,-2.3001,-2.3001,-2.3001,-2.3001,-2.2852,-2.2788,-2.2628,-2.2252,-2.1711,-2.0904,-1.9659,-1.8718,-1.8158,-1.7602,-1.7204,-1.6812,-1.673,-1.673,-1.673,-1.673,-1.673,-1.673,-1.673,-1.673,-1.677,-1.6921,-1.7104,-1.7239,-1.7368,-1.7274,-1.7381,-1.7929,-1.7865,-1.7526,-1.7305,-1.7342,-1.7525,-1.7691,-1.7913,-1.7728,-1.7191,-1.614,-1.5569,-1.4274,-1.313,-1.2462,-1.1878,-1.1492,-1.1292,-1.1194,-1.1194,-1.1194,-1.1194,-1.1194,-1.1194,-1.1194,-1.1194,-1.1194,-1.1194,-1.1194,-1.1194,-1.1194,-1.1194,-1.1194,-1.1194,-1.1194,-1.1194,-1.1194,-1.0404,-0.9418,-0.8627,-0.7832,-0.6833,-0.5636,-0.4734,-0.4033,-0.3531,-0.323,-0.323,-0.323,-0.323,-0.323,-0.323,-0.2321,-0.1108,-0.0502,-0.02,0.0787,0.1542,0.1515,0.1486,0.1459,0.1528,0.1796,0.1974,0.2333,-2.3001,-2.3001,-2.3001,-2.3001,-2.3001,-2.3001,-2.3001,-2.3001,-2.3001,-2.3001,-2.3001,-2.3001,-2.3001,-2.3001,-2.3001,-2.3001,-2.3001,-2.3001,-2.3001,-2.3001,-2.3001,-2.3001,-2.3001,-2.2927,-2.2852,-2.2703,-2.2478,-2.1863,-2.0837,-1.9737,-1.8868,-1.8158,-1.7836,-1.744,-1.6804,-1.673,-1.673,-1.673,-1.673,-1.673,-1.673,-1.673,-1.6786,-1.6841,-1.7127,-1.7318,-1.7564,-1.7652,-1.784,-1.8087,-1.8435,-1.8531,-1.8079,-1.7921,-1.7882,-1.7922,-1.816,-1.8371,-1.8057,-1.7109,-1.5961,-1.5419,-1.3806,-1.2754,-1.2175,-1.1878,-1.159,-1.1292,-1.1194,-1.1194,-1.1194,-1.1194,-1.1194,-1.1194,-1.1194,-1.1194,-1.1194,-1.1194,-1.1194,-1.1194,-1.1194,-1.1194,-1.1194,-1.1194,-1.1194,-1.0998,-1.0998,-1.0207,-0.9221,-0.8528,-0.7733,-0.6734,-0.5634,-0.4533,-0.3932,-0.3531,-0.323,-0.323,-0.323,-0.323,-0.323,-0.323,-0.2116,-0.1204,-0.0898,-0.0396,0.0685,0.1639,0.1603,0.1662,0.1544,0.1799,0.2155,0.2511,0.278,-2.3001,-2.3001,-2.3001,-2.3001,-2.3001,-2.3001,-2.3001,-2.3001,-2.3001,-2.3001,-2.3001,-2.3001,-2.3001,-2.3001,-2.3001,-2.3001,-2.3001,-2.3001,-2.3001,-2.3001,-2.3056,-2.3056,-2.3001,-2.2767,-2.2799,-2.2713,-2.2478,-2.1776,-2.0954,-1.9942,-1.8948,-1.8158,-1.7367,-1.6812,-1.673,-1.673,-1.673,-1.673,-1.673,-1.673,-1.673,-1.6738,-1.6897,-1.7119,-1.7294,-1.7548,-1.7977,-1.7974,-1.8073,-1.8621,-1.8741,-1.8718,-1.862,-1.8385,-1.824,-1.824,-1.8221,-1.8175,-1.791,-1.6943,-1.59,-1.5038,-1.3522,-1.2657,-1.198,-1.1585,-1.1292,-1.1292,-1.1194,-1.1194,-1.1194,-1.1194,-1.1194,-1.1194,-1.1194,-1.1194,-1.1194,-1.1194,-1.1194,-1.1194,-1.1194,-1.1194,-1.1194,-1.1194,-1.1194,-1.09,-1.0609,-0.9916,-0.9023,-0.8131,-0.7235,-0.6134,-0.5336,-0.4334,-0.3831,-0.343,-0.323,-0.323,-0.323,-0.323,-0.323,-0.3024,-0.2295,-0.149,-0.1187,-0.0294,0.1064,0.1713,0.1775,0.1838,0.1991,0.2339,0.269,0.3048,0.3227,-2.3001,-2.3001,-2.3001,-2.3001,-2.3001,-2.3001,-2.3001,-2.3001,-2.3001,-2.3001,-2.3001,-2.3001,-2.3001,-2.3001,-2.3001,-2.3001,-2.3001,-2.3023,-2.3001,-2.3132,-2.3263,-2.3274,-2.3121,-2.3166,-2.3167,-2.2682,-2.252,-2.2376,-2.1444,-2.0253,-1.9195,-1.8647,-1.7448,-1.673,-1.673,-1.673,-1.673,-1.673,-1.673,-1.673,-1.673,-1.6762,-1.6913,-1.727,-1.7461,-1.7834,-1.82,-1.8419,-1.843,-1.8804,-1.8768,-1.8819,-1.8819,-1.8704,-1.8597,-1.8597,-1.8597,-1.8493,-1.8234,-1.6936,-1.5798,-1.4746,-1.3414,-1.217,-1.1688,-1.1394,-1.1194,-1.1194,-1.1194,-1.1194,-1.1194,-1.1194,-1.1194,-1.1194,-1.1194,-1.1194,-1.1194,-1.1194,-1.1194,-1.1194,-1.1194,-1.1194,-1.1194,-1.1194,-1.1194,-1.1096,-1.0605,-0.9912,-0.8623,-0.7332,-0.6334,-0.5336,-0.4736,-0.4033,-0.3831,-0.3531,-0.323,-0.323,-0.323,-0.323,-0.323,-0.2916,-0.2192,-0.1573,-0.0974,0.0096,0.1526,0.1975,0.2033,0.2191,0.2438,0.2788,0.3138,0.3317,0.3587,-2.3001,-2.3001,-2.3001,-2.3001,-2.3001,-2.3001,-2.3001,-2.3001,-2.3001,-2.3001,-2.3001,-2.3001,-2.3001,-2.3001,-2.3012,-2.3078,-2.3209,-2.3187,-2.3285,-2.3471,-2.3667,-2.3711,-2.3602,-2.3613,-2.3297,-2.2875,-2.2531,-2.2265,-2.1734,-2.074,-1.9617,-1.9412,-1.7721,-1.6908,-1.6746,-1.673,-1.673,-1.673,-1.673,-1.673,-1.6746,-1.6849,-1.7088,-1.7397,-1.7731,-1.8073,-1.8414,-1.8645,-1.8804,-1.8819,-1.8812,-1.878,-1.8788,-1.878,-1.8688,-1.8688,-1.8603,-1.8411,-1.7777,-1.6648,-1.5589,-1.4351,-1.3113,-1.1683,-1.1389,-1.1194,-1.1194,-1.1194,-1.1194,-1.1194,-1.1194,-1.1194,-1.1194,-1.1194,-1.1194,-1.1194,-1.1194,-1.1194,-1.1194,-1.1194,-1.1194,-1.1194,-1.1194,-1.1194,-1.1194,-1.1096,-1.06,-0.9809,-0.8319,-0.6531,-0.5532,-0.4634,-0.4334,-0.3833,-0.3632,-0.343,-0.323,-0.323,-0.323,-0.323,-0.323,-0.2813,-0.2092,-0.1472,-0.077,0.0378,0.1863,0.2031,0.2287,0.2628,0.3057,0.3323,0.3587,0.3676,0.3765,-2.3001,-2.3001,-2.3001,-2.3001,-2.3001,-2.3001,-2.3001,-2.3001,-2.3001,-2.3001,-2.3001,-2.3001,-2.3001,-2.3001,-2.3045,-2.323,-2.3646,-2.3678,-2.3875,-2.4159,-2.441,-2.4344,-2.4113,-2.3818,-2.3479,-2.324,-2.2817,-2.2232,-2.1541,-2.0833,-2.0123,-1.967,-1.8062,-1.7282,-1.6921,-1.6921,-1.6905,-1.6897,-1.6889,-1.6857,-1.6929,-1.7096,-1.7405,-1.7723,-1.8073,-1.8422,-1.8764,-1.8812,-1.8827,-1.8827,-1.8827,-1.8827,-1.8827,-1.8827,-1.8743,-1.8651,-1.8574,-1.8179,-1.7225,-1.6358,-1.5216,-1.3878,-1.2538,-1.1292,-1.1194,-1.1194,-1.1194,-1.1194,-1.1194,-1.1194,-1.1194,-1.1194,-1.1194,-1.1194,-1.1194,-1.1194,-1.1194,-1.1194,-1.1194,-1.1194,-1.1194,-1.1194,-1.1194,-1.1194,-1.1194,-1.1194,-0.9706,-0.8817,-0.7223,-0.5632,-0.483,-0.413,-0.4033,-0.3732,-0.3331,-0.323,-0.323,-0.323,-0.323,-0.313,-0.313,-0.2607,-0.1885,-0.0971,-0.0095,0.1023,0.2007,0.2363,0.2805,0.3239,0.3585,0.3764,0.3853,0.4032,0.4121,-2.3001,-2.3001,-2.3001,-2.3001,-2.3001,-2.3001,-2.3001,-2.3001,-2.3001,-2.3001,-2.3001,-2.3001,-2.3001,-2.3001,-2.3034,-2.3274,-2.3678,-2.3722,-2.4082,-2.4454,-2.4705,-2.4716,-2.4505,-2.4302,-2.4078,-2.3641,-2.3192,-2.2693,-2.2026,-2.1024,-2.0349,-1.9565,-1.8296,-1.7798,-1.7405,-1.7302,-1.7326,-1.7334,-1.7342,-1.7358,-1.7397,-1.7485,-1.7739,-1.8081,-1.8168,-1.8478,-1.8764,-1.8819,-1.8827,-1.8827,-1.8827,-1.8827,-1.8827,-1.8827,-1.8735,-1.8651,-1.8566,-1.79,-1.6842,-1.588,-1.474,-1.3028,-1.1775,-1.1194,-1.1194,-1.1194,-1.1194,-1.1194,-1.1194,-1.1194,-1.1194,-1.1194,-1.1194,-1.1194,-1.1194,-1.1194,-1.1194,-1.1194,-1.1194,-1.1194,-1.1194,-1.1194,-1.1194,-1.1194,-1.1194,-1.1096,-0.941,-0.7726,-0.6229,-0.5031,-0.4331,-0.383,-0.3731,-0.3632,-0.323,-0.323,-0.323,-0.323,-0.323,-0.3022,-0.2814,-0.2085,-0.1274,-0.0288,0.0753,0.1753,0.2546,0.2883,0.3318,0.3587,0.3853,0.4121,0.421,0.4297,0.4297,-2.315,-2.315,-2.315,-2.315,-2.3001,-2.3001,-2.3001,-2.3001,-2.3001,-2.3001,-2.3001,-2.3001,-2.3001,-2.3023,-2.3198,-2.3514,-2.3951,-2.4181,-2.4508,-2.4891,-2.5207,-2.5164,-2.4903,-2.4643,-2.4324,-2.396,-2.3479,-2.293,-2.1835,-2.1235,-2.0421,-1.9445,-1.8556,-1.8121,-1.7731,-1.7771,-1.7771,-1.7763,-1.7763,-1.7763,-1.7747,-1.7882,-1.7985,-1.8287,-1.8398,-1.8573,-1.8772,-1.8827,-1.8827,-1.8827,-1.8827,-1.8827,-1.8827,-1.8827,-1.8743,-1.8651,-1.8473,-1.7994,-1.6842,-1.5311,-1.3878,-1.2063,-1.1585,-1.1194,-1.1194,-1.1194,-1.1194,-1.1194,-1.1194,-1.1194,-1.1194,-1.1194,-1.1194,-1.1194,-1.1194,-1.1194,-1.1194,-1.1194,-1.1194,-1.1194,-1.1194,-1.1096,-1.0699,-1.0596,-0.9899,-0.9604,-0.8216,-0.6728,-0.5432,-0.4533,-0.4131,-0.363,-0.343,-0.3331,-0.323,-0.323,-0.323,-0.323,-0.3126,-0.2708,-0.2293,-0.1577,-0.058,0.0567,0.1577,0.2564,0.3082,0.3414,0.3676,0.3853,0.4032,0.421,0.43,0.4297,0.4297,-2.3593,-2.3593,-2.353,-2.3298,-2.3001,-2.3001,-2.3001,-2.3012,-2.3056,-2.3088,-2.3154,-2.3143,-2.3132,-2.3209,-2.3525,-2.3919,-2.4421,-2.4803,-2.5196,-2.5568,-2.5594,-2.5619,-2.5311,-2.493,-2.4522,-2.4094,-2.3619,-2.2788,-2.1231,-2.1181,-2.0288,-1.9298,-1.8704,-1.8422,-1.7842,-1.7787,-1.7787,-1.7787,-1.7842,-1.7882,-1.7962,-1.8176,-1.8311,-1.8422,-1.8605,-1.8764,-1.8804,-1.8827,-1.8827,-1.8827,-1.8827,-1.8827,-1.8827,-1.8827,-1.8743,-1.8566,-1.8481,-1.7807,-1.6546,-1.4453,-1.2732,-1.158,-1.1194,-1.1194,-1.1194,-1.1194,-1.1194,-1.1194,-1.1194,-1.1194,-1.1194,-1.1194,-1.1194,-1.1194,-1.1194,-1.1194,-1.1194,-1.1194,-1.1194,-1.1194,-1.1194,-1.0998,-1.04,-0.9805,-0.881,-0.7915,-0.6825,-0.5629,-0.4533,-0.4033,-0.3732,-0.3531,-0.3331,-0.323,-0.323,-0.323,-0.323,-0.323,-0.3021,-0.2604,-0.1784,-0.088,0.0191,0.1398,0.2388,0.3362,0.3701,0.3944,0.4032,0.4032,0.4121,0.43,0.4297,0.4297,0.4297,-2.3593,-2.3593,-2.3298,-2.315,-2.3001,-2.3001,-2.3001,-2.3056,-2.334,-2.3656,-2.394,-2.3984,-2.3984,-2.3984,-2.3831,-2.4181,-2.4825,-2.465,-2.5054,-2.5841,-2.5822,-2.5644,-2.5389,-2.5041,-2.4693,-2.4598,-2.4115,-2.3093,-2.1502,-2.1438,-2.0355,-1.9255,-1.8812,-1.87,-1.8533,-1.8478,-1.8478,-1.8478,-1.8486,-1.8478,-1.8478,-1.8565,-1.8629,-1.8629,-1.8772,-1.8827,-1.8827,-1.8827,-1.8827,-1.8827,-1.8827,-1.8827,-1.8827,-1.8827,-1.8743,-1.8558,-1.8465,-1.7138,-1.5311,-1.3216,-1.177,-1.1292,-1.1194,-1.1194,-1.1194,-1.1194,-1.1194,-1.1194,-1.1194,-1.1194,-1.1194,-1.1194,-1.1194,-1.1194,-1.1194,-1.1194,-1.1194,-1.1194,-1.1194,-1.1194,-1.1194,-1.1002,-1.0507,-0.9008,-0.7813,-0.7018,-0.6024,-0.5031,-0.3831,-0.3632,-0.3331,-0.3331,-0.323,-0.323,-0.323,-0.323,-0.3222,-0.3215,-0.2911,-0.2502,-0.1581,-0.029,0.0854,0.2034,0.3106,0.4066,0.4137,0.4121,0.421,0.4297,0.4297,0.4297,0.4297,0.4297,0.4297,-2.3824,-2.3751,-2.3372,-2.315,-2.3001,-2.3001,-2.3078,-2.3285,-2.3602,-2.4017,-2.4399,-2.4476,-2.4454,-2.4355,-2.4246,-2.4355,-2.5098,-2.4923,-2.5065,-2.5841,-2.5812,-2.5644,-2.5464,-2.5211,-2.4978,-2.4871,-2.4444,-2.3551,-2.1738,-2.1686,-2.0619,-1.9271,-1.8827,-1.8796,-1.8772,-1.8764,-1.8772,-1.8748,-1.8732,-1.8748,-1.8764,-1.8804,-1.8804,-1.8804,-1.8827,-1.8827,-1.8827,-1.8827,-1.8827,-1.8827,-1.8827,-1.8827,-1.8827,-1.8743,-1.8743,-1.8558,-1.7792,-1.6365,-1.4172,-1.3022,-1.1965,-1.1296,-1.1194,-1.1194,-1.1194,-1.1194,-1.1194,-1.1194,-1.1194,-1.1194,-1.1194,-1.1194,-1.1194,-1.1194,-1.1194,-1.1194,-1.1194,-1.1194,-1.1194,-1.1194,-1.0998,-1.0806,-1.0408,-0.851,-0.6819,-0.6121,-0.5425,-0.4331,-0.3432,-0.3331,-0.323,-0.323,-0.323,-0.323,-0.323,-0.323,-0.3219,-0.3202,-0.2795,-0.2193,-0.087,0.0472,0.1582,0.2574,0.354,0.4226,0.4218,0.4297,0.4297,0.4297,0.4297,0.4297,0.4297,0.43,0.43,-2.42,-2.4116,-2.3751,-2.3383,-2.299,-2.3001,-2.3252,-2.37,-2.3755,-2.4071,-2.4519,-2.4607,-2.4705,-2.4618,-2.4541,-2.4803,-2.5131,-2.5153,-2.5448,-2.5764,-2.5812,-2.5728,-2.5464,-2.5285,-2.5031,-2.4775,-2.4433,-2.356,-2.1872,-2.1159,-2.0175,-1.9188,-1.8827,-1.8827,-1.8827,-1.8827,-1.8827,-1.8827,-1.8827,-1.8827,-1.8827,-1.8827,-1.8827,-1.8827,-1.8827,-1.8827,-1.8827,-1.8827,-1.8827,-1.8827,-1.8827,-1.8827,-1.8735,-1.8574,-1.8481,-1.8094,-1.7131,-1.5311,-1.3596,-1.2829,-1.216,-1.1292,-1.1194,-1.1194,-1.1194,-1.1194,-1.1194,-1.1194,-1.1194,-1.1194,-1.1194,-1.1194,-1.1194,-1.1194,-1.1194,-1.1194,-1.1194,-1.1194,-1.1096,-1.0998,-1.0806,-1.0511,-0.9916,-0.8319,-0.6819,-0.6024,-0.5327,-0.423,-0.343,-0.323,-0.323,-0.323,-0.323,-0.323,-0.323,-0.323,-0.3224,-0.3207,-0.2285,-0.1579,-0.0095,0.1115,0.2216,0.3112,0.3879,0.4297,0.4297,0.4297,0.4297,0.4297,0.43,0.4297,0.4297,0.43,0.4399,-2.4273,-2.3751,-2.3666,-2.3372,-2.3001,-2.3001,-2.3285,-2.3733,-2.4093,-2.4541,-2.4989,-2.5349,-2.5371,-2.548,-2.5131,-2.5284,-2.536,-2.5437,-2.5546,-2.5721,-2.5746,-2.5527,-2.5285,-2.5115,-2.4861,-2.47,-2.4262,-2.356,-2.1695,-2.0619,-1.9729,-1.892,-1.8827,-1.8827,-1.8827,-1.8827,-1.8827,-1.8827,-1.8827,-1.8827,-1.8827,-1.8827,-1.8827,-1.8827,-1.8827,-1.8827,-1.8827,-1.8827,-1.8827,-1.8827,-1.8827,-1.8727,-1.8334,-1.8365,-1.8288,-1.6857,-1.5704,-1.4453,-1.3017,-1.2155,-1.158,-1.1292,-1.1194,-1.1194,-1.1194,-1.1194,-1.1194,-1.1194,-1.1194,-1.1194,-1.1194,-1.1194,-1.1194,-1.1194,-1.1194,-1.1194,-1.1194,-1.1096,-1.0998,-1.09,-1.0708,-1.0413,-0.9719,-0.8722,-0.7322,-0.6326,-0.5329,-0.423,-0.343,-0.3331,-0.323,-0.323,-0.323,-0.323,-0.323,-0.323,-0.3224,-0.3012,-0.1988,-0.098,-0.0,0.1307,0.2677,0.3564,0.4072,0.4316,0.4297,0.4312,0.4353,0.4308,0.4302,0.43,0.43,0.4389,0.4518,-2.4418,-2.3824,-2.3666,-2.3372,-2.3001,-2.3001,-2.3187,-2.3536,-2.4181,-2.4749,-2.5207,-2.5666,-2.5797,-2.5491,-2.5098,-2.5,-2.5185,-2.477,-2.4869,-2.5469,-2.5511,-2.5492,-2.5294,-2.5115,-2.4946,-2.47,-2.4262,-2.356,-2.1695,-1.9903,-1.8827,-1.8827,-1.8827,-1.8827,-1.8827,-1.8827,-1.8827,-1.8827,-1.8827,-1.8827,-1.8827,-1.8827,-1.8827,-1.8827,-1.8827,-1.8827,-1.8827,-1.8827,-1.8827,-1.8735,-1.8735,-1.8542,-1.8156,-1.8172,-1.7138,-1.59,-1.4943,-1.3692,-1.2349,-1.1575,-1.1292,-1.1194,-1.1194,-1.1194,-1.1194,-1.1194,-1.1194,-1.1194,-1.1194,-1.1194,-1.1194,-1.1194,-1.1194,-1.1194,-1.1194,-1.11,-1.11,-1.0998,-1.09,-1.0801,-1.0609,-1.0314,-0.962,-0.8718,-0.7723,-0.6526,-0.5429,-0.4331,-0.3632,-0.323,-0.323,-0.323,-0.323,-0.323,-0.323,-0.3127,-0.3013,-0.2599,-0.1387,-0.039,0.0381,0.1686,0.3239,0.3853,0.4188,0.4264,0.4353,0.4398,0.4428,0.4375,0.4424,0.4523,0.4512,0.448,0.472,-2.4562,-2.4127,-2.374,-2.3372,-2.3001,-2.3001,-2.3012,-2.311,-2.3995,-2.4672,-2.512,-2.5611,-2.5622,-2.5404,-2.5087,-2.4814,-2.488,-2.4607,-2.477,-2.5207,-2.5354,-2.5362,-2.5389,-2.5285,-2.4946,-2.4786,-2.4348,-2.356,-2.1686,-1.9903,-1.8827,-1.8827,-1.8827,-1.8827,-1.8827,-1.8827,-1.8827,-1.8827,-1.8827,-1.8827,-1.8827,-1.8827,-1.8827,-1.8827,-1.8827,-1.8827,-1.8827,-1.8827,-1.8835,-1.8743,-1.8558,-1.8365,-1.8079,-1.7792,-1.6466,-1.5229,-1.4459,-1.3216,-1.2063,-1.1292,-1.1292,-1.1194,-1.1194,-1.1194,-1.1194,-1.1194,-1.1194,-1.1194,-1.1194,-1.1194,-1.1194,-1.1194,-1.1194,-1.1194,-1.1096,-1.1096,-1.1096,-1.0998,-1.0806,-1.0708,-1.0511,-1.022,-0.992,-0.9019,-0.8021,-0.6725,-0.5727,-0.473,-0.3732,-0.323,-0.323,-0.323,-0.323,-0.323,-0.323,-0.3123,-0.2803,-0.2188,-0.089,0.0293,0.1246,0.245,0.3803,0.4154,0.4322,0.433,0.4432,0.4471,0.457,0.4612,0.4673,0.4765,0.4833,0.4804,0.4945,-2.4838,-2.4189,-2.3751,-2.3372,-2.3001,-2.3001,-2.3001,-2.3056,-2.3635,-2.4192,-2.4683,-2.5131,-2.548,-2.5502,-2.5393,-2.5175,-2.4934,-2.4792,-2.5196,-2.5256,-2.5283,-2.5279,-2.5263,-2.5115,-2.4861,-2.4615,-2.4272,-2.3387,-2.1686,-1.9994,-1.8827,-1.8827,-1.8827,-1.8827,-1.8827,-1.8827,-1.8827,-1.8827,-1.8827,-1.8827,-1.8827,-1.8827,-1.8827,-1.8827,-1.8827,-1.8827,-1.8735,-1.8658,-1.8674,-1.869,-1.8381,-1.8087,-1.7807,-1.752,-1.6372,-1.4746,-1.4166,-1.3022,-1.1868,-1.1194,-1.1194,-1.1194,-1.1194,-1.1194,-1.1194,-1.1194,-1.1194,-1.1194,-1.1194,-1.1194,-1.1194,-1.1194,-1.1194,-1.1096,-1.0998,-1.1096,-1.1096,-1.09,-1.0806,-1.0609,-1.0413,-1.0216,-0.992,-0.9221,-0.8219,-0.7322,-0.6623,-0.5527,-0.4031,-0.323,-0.323,-0.323,-0.323,-0.323,-0.323,-0.3026,-0.2709,-0.1703,-0.04,0.0787,0.2028,0.3234,0.4221,0.4295,0.4469,0.4493,0.4514,0.4524,0.4612,0.4758,0.4951,0.5053,0.5327,0.5393,0.5435,-2.4969,-2.4418,-2.3824,-2.3372,-2.3075,-2.3001,-2.3001,-2.3045,-2.3296,-2.3689,-2.4224,-2.4814,-2.5229,-2.5317,-2.5273,-2.5262,-2.4934,-2.4847,-2.4886,-2.5011,-2.5211,-2.5144,-2.502,-2.4935,-2.4775,-2.4454,-2.3474,-2.2403,-2.1516,-1.9903,-1.8827,-1.8827,-1.8827,-1.8827,-1.8827,-1.8827,-1.8827,-1.8827,-1.8827,-1.8827,-1.8827,-1.8827,-1.8827,-1.8827,-1.8827,-1.8827,-1.8743,-1.8566,-1.8481,-1.8381,-1.7986,-1.7318,-1.6936,-1.6655,-1.5507,-1.4166,-1.3307,-1.2926,-1.177,-1.1194,-1.1194,-1.1194,-1.1194,-1.1194,-1.1194,-1.1194,-1.1194,-1.1194,-1.1194,-1.1194,-1.1194,-1.1194,-1.1096,-1.1002,-1.09,-1.09,-1.0801,-1.0703,-1.0708,-1.0708,-1.0511,-1.0314,-1.0015,-0.9114,-0.8117,-0.6825,-0.6226,-0.5329,-0.3932,-0.323,-0.323,-0.323,-0.323,-0.323,-0.323,-0.2826,-0.2418,-0.1209,0.0201,0.1687,0.3025,0.3845,0.4557,0.4561,0.4573,0.4691,0.4708,0.4716,0.4871,0.5115,0.5327,0.5453,0.5631,0.5894,0.6092,-2.5052,-2.4634,-2.3982,-2.3446,-2.3075,-2.3001,-2.3001,-2.3001,-2.3023,-2.3296,-2.3842,-2.4683,-2.4792,-2.4694,-2.4585,-2.4585,-2.4661,-2.4836,-2.474,-2.4778,-2.4945,-2.5018,-2.4957,-2.4861,-2.47,-2.3917,-2.2853,-2.2227,-2.1596,-1.9903,-1.8827,-1.8827,-1.8827,-1.8827,-1.8827,-1.8827,-1.8827,-1.8827,-1.8827,-1.8827,-1.8827,-1.8827,-1.8827,-1.8827,-1.8827,-1.8827,-1.8735,-1.8558,-1.8365,-1.777,-1.7282,-1.6518,-1.6062,-1.569,-1.4549,-1.3397,-1.292,-1.2349,-1.1482,-1.1194,-1.1194,-1.1194,-1.1194,-1.1194,-1.1194,-1.1194,-1.1194,-1.1194,-1.1194,-1.1194,-1.1194,-1.1096,-1.1002,-1.0904,-1.09,-1.0801,-1.0703,-1.0605,-1.0703,-1.0708,-1.0609,-1.0413,-0.9813,-0.9015,-0.7816,-0.6625,-0.5429,-0.4433,-0.3632,-0.3331,-0.323,-0.323,-0.323,-0.323,-0.313,-0.2826,-0.2422,-0.0705,0.0804,0.249,0.3854,0.4407,0.4675,0.4675,0.4689,0.4791,0.491,0.5023,0.5169,0.5403,0.554,0.5769,0.5919,0.6184,0.6721,-2.4897,-2.4273,-2.4127,-2.3677,-2.3075,-2.3001,-2.3001,-2.3001,-2.3012,-2.3263,-2.3787,-2.4312,-2.4705,-2.5033,-2.5043,-2.5054,-2.5065,-2.5076,-2.4914,-2.4869,-2.4994,-2.4978,-2.484,-2.47,-2.454,-2.3831,-2.2765,-2.1872,-2.1418,-1.9812,-1.8827,-1.8827,-1.8827,-1.8827,-1.8827,-1.8827,-1.8827,-1.8827,-1.8827,-1.8827,-1.8827,-1.8827,-1.8827,-1.8827,-1.8827,-1.8827,-1.8735,-1.8373,-1.8179,-1.7483,-1.639,-1.5624,-1.5076,-1.4823,-1.3878,-1.292,-1.2441,-1.2058,-1.1482,-1.1194,-1.1194,-1.1194,-1.1194,-1.1194,-1.1194,-1.1194,-1.1194,-1.1194,-1.1194,-1.1096,-1.11,-1.0904,-1.0806,-1.0904,-1.09,-1.09,-1.0801,-1.0703,-1.0703,-1.0609,-1.0413,-1.0216,-0.992,-0.8916,-0.7617,-0.6426,-0.5231,-0.4234,-0.3432,-0.3331,-0.323,-0.323,-0.323,-0.3029,-0.2927,-0.2826,-0.2219,-0.0403,0.1307,0.2902,0.3997,0.4512,0.4796,0.4755,0.4759,0.4868,0.4993,0.5291,0.5487,0.5741,0.5877,0.5991,0.6129,0.6574,0.7118]},{"header":{"parameterUnit":"m.s-1","parameterCategory":1,"la1":31.0,"la2":29.5877,"lo1":-88.7671,"lo2":-86.6584,"dy":0.0162,"dx":0.0185,"nx":115,"ny":88,"refTime":"2024-07-05T18:00:00:Z","depth":0,"parameterNumber":3,"parameterNumberName":"V-component_of_WINDS"},"data":[0.0,0.0,0.0,0.0,0.0,0.0,0.0,0.0,0.0,0.0,0.0,0.0,0.0,0.0,0.0,0.0,0.0,0.0,0.0,0.0,0.0,0.0,0.0,0.0,0.0,0.0,0.0,0.0,0.0,0.0,0.0,0.0,0.0,0.0,0.0,0.0,0.0,0.0,0.0,0.0,0.0,0.0,0.0,0.0,0.0,0.0,0.0,0.0,0.0,0.0,0.0,0.0,0.0,0.0,0.0,0.0,0.0,0.0,0.0,0.0,0.0,0.0,0.0,0.0,0.0,0.0,0.0,0.0,0.0,0.0,0.0,0.0,0.0,0.0,0.0,0.0,0.0,0.0,0.0,0.0,0.0,0.0,0.0,0.0,0.0,0.0,0.0,0.0,0.0,0.0,0.0,0.0,0.0,0.0,0.0,0.0,0.0,0.0,0.0,0.0,0.0,0.0,0.0,0.0,0.0,0.0,0.0,0.0,0.0,0.0,0.0,0.0,0.0,0.0,0.0,0.0,0.0,0.0,0.0,0.0,0.0,0.0,0.0,0.0,0.0,0.0,0.0,0.0,0.0,0.0,0.0,0.0,0.0,0.0,0.0,0.0,0.0,0.0,0.0,0.0,0.0,0.0,0.0,0.0,0.0,0.0,0.0,0.0,0.0,0.0,0.0,0.0,0.0,0.0,0.0,0.0,0.0,0.0,0.0,0.0,0.0,0.0,0.0,0.0,0.0,0.0,0.0,0.0,0.0,0.0,0.0,0.0,0.0,0.0,0.0,0.0,0.0,0.0,0.0,0.0,0.0,0.0,0.0,0.0,0.0,0.0,0.0,0.0,0.0,0.0,0.0,0.0,0.0,0.0,0.0,0.0,0.0,0.0,0.0,0.0,0.0,0.0,0.0,0.0,0.0,0.0,0.0,0.0,0.0,0.0,0.0,0.0,0.0,0.0,0.0,0.0,0.0,0.0,0.0,0.0,0.0,0.0,0.0,0.0,0.0,0.0,0.0,0.0,0.0,0.0,0.0,0.0,0.0,0.0,0.0,0.0,0.0,0.0,0.0,0.0,0.0,0.0,0.0,0.0,0.0,0.0,0.0,0.0,0.0,0.0,0.0,0.0,0.0,0.0,0.0,0.0,0.0,0.0,0.0,0.0,0.0,0.0,0.0,0.0,0.0,0.0,0.0,0.0,0.0,0.0,0.0,0.0,0.0,0.0,0.0,0.0,0.0,0.0,0.0,0.0,0.0,0.0,0.0,0.0,0.0,0.0,0.0,0.0,0.0,0.0,0.0,0.0,0.0,0.0,0.0,0.0,0.0,0.0,0.0,0.0,0.0,0.0,0.0,0.0,0.0,0.0,0.0,0.0,0.0,0.0,0.0,0.0,0.0,0.0,0.0,0.0,0.0,0.0,0.0,0.0,0.0,0.0,0.0,0.0,0.0,0.0,0.0,0.0,0.0,0.0,0.0,0.0,0.0,0.0,0.0,0.0,0.0,0.0,0.0,0.0,0.0,0.0,0.0,0.0,0.0,0.0,0.0,0.0,0.0,0.0,0.0,0.0,0.0,0.0,0.0,0.0,0.0,0.0,0.0,0.0,0.0,0.0,0.0,0.0,0.0,0.0,0.0,0.0,0.0,0.0,0.0,0.0,0.0,0.0,0.0,0.0,0.0,0.0,0.0,0.0,0.0,0.0,0.0,0.0,0.0,0.0,0.0,0.0,0.0,0.0,0.0,0.0,0.0,0.0,0.0,0.0,0.0,0.0,0.0,0.0,0.0,0.0,0.0,0.0,0.0,0.0,0.0,0.0,0.0,0.0,0.0,0.0,0.0,0.0,0.0,0.0,0.0,0.0,0.0,0.0,0.0,0.0,0.0,0.0,0.0,0.0,0.0,0.0,0.0,0.0,0.0,0.0,0.0,0.0,0.0,0.0,0.0,0.0,0.0,0.0,0.0,0.0,0.0,0.0,0.0,0.0,0.0,0.0,0.0,0.0,0.0,0.0,0.0,0.0,0.0,0.0,0.0,0.0,0.0,0.0,0.0,0.0,0.0,0.0,0.0,0.0,0.0,0.0,0.0,0.0,0.0,0.0,0.0,0.0,0.0,0.0,0.0,0.0,0.0,0.0,0.0,0.0,0.0,0.0,0.0,0.0,0.0,0.0,0.0,0.0,0.0,0.0,0.0,0.0,0.0,0.0,0.0,0.0,0.0,0.0,0.0,0.0,0.0,0.0,0.0,0.0,0.0,0.0,0.0,0.0,0.0,0.0,0.0,0.0,0.0,0.0,0.0,0.0,0.0,0.0,0.0,0.0,0.0,0.0,0.0,0.0,0.0,0.0,0.0,0.0,0.0,0.0,0.0,0.0,0.0,0.0,0.0,0.0,0.0,0.0,0.0,0.0,0.0,0.0,0.0,0.0,0.0,0.0,0.0,0.0,0.0,0.0,0.0,0.0,0.0,0.0,0.0,0.0,0.0,0.0,0.0,0.0,0.0,0.0,0.0,0.0,0.0,0.0,0.0,0.0,0.0,0.0,0.0,0.0,0.0,0.0,0.0,0.0,0.0,0.0,0.0,0.0,0.0,0.0,0.0,0.0,0.0,0.0,0.0,0.0,0.0,0.0,0.0,0.0,0.0,0.0,0.0,0.0,0.0,0.0,0.0,0.0,0.0,0.0,0.0,0.0,0.0,0.0,0.0,0.0,0.0,0.0,0.0,0.0,0.0,0.0,0.0,0.0,0.0,0.0,0.0,0.0,0.0,0.0,0.0,0.0,0.0,0.0,0.0,0.0,0.0,0.0,0.0,0.0,0.0,0.0,0.0,0.0,0.0,0.0,0.0,0.0,0.0,0.0,0.0,0.0,0.0,0.0,0.0,0.0,0.0,0.0,0.0,0.0,0.0,0.0,0.0,0.0,0.0,0.0,0.0,0.0,0.0,0.0,0.0,0.0,0.0,0.0,0.0,0.0,0.0,0.0,0.0,0.0,0.0,0.0,0.0,0.0,0.0,0.0,0.0,0.0,0.0,0.0,0.0,0.0,0.0,0.0,0.0,0.0,0.0,0.0,0.0,0.0,0.0,0.0,0.0,0.0,0.0,0.0,0.0,0.0,0.0,0.0,0.0,0.0,0.0,0.0,0.0,0.0,0.0,0.0,0.0,0.0,0.0,0.0,0.0,0.0,0.0,0.0,0.0,0.0,0.0,0.0,0.0,0.0,0.0,0.0,0.0,0.0,0.0,0.0,0.0,0.0,0.0,0.0,0.0,0.0,0.0,0.0,0.0,0.0,0.0,0.0,0.0,0.0,0.0,0.0,0.0,0.0,0.0,0.0,0.0,0.0,0.0,0.0,0.0,0.0,0.0,0.0,0.0,0.0,0.0,0.0,0.0,0.0,0.0,0.0,0.0,0.0,0.0,0.0,0.0,0.0,0.0,0.0,0.0,0.0,0.0,0.0,0.0,0.0,0.0,0.0,0.0,0.0,0.0,0.0,0.0,0.0,0.0,0.0,0.0,0.0,0.0,0.0,0.0,0.0,0.0,0.0,0.0,0.0,0.0,0.0,0.0,0.0,0.0,0.0,0.0,0.0,0.0,0.0,0.0,0.0,0.0,0.0,0.0,0.0,0.0,0.0,0.0,0.0,0.0,0.0,0.0,0.0,0.0,0.0,0.0,0.0,0.0,0.0,0.0,0.0,0.0,0.0,0.0,0.0,0.0,0.0,0.0,0.0,0.0,0.0,0.0,0.0,0.0,0.0,0.0,0.0,0.0,0.0,0.0,0.0,0.0,0.0,0.0,0.0,0.0,0.0,0.0,0.0,0.0,0.0,0.0,0.0,0.0,0.0,0.0,0.0,0.0,0.0,0.0,0.0,0.0,0.0,0.0,0.0,0.0,0.0,0.0,0.0,0.0,0.0,0.0,0.0,0.0,0.0,0.0,0.0,0.0,0.0,0.0,0.0,0.0,0.0,0.0,0.0,0.0,0.0,0.0,0.0,0.0,0.0,0.0,0.0,0.0,0.0,0.0,0.0,0.0,0.0,0.0,0.0,0.0,0.0,0.0,0.0,0.0,0.0,0.0,0.0,0.0,0.0,0.0,0.0,0.0,0.0,0.0,0.0,0.0,0.0,0.0,0.0,0.0,0.0,0.0,0.0,0.0,0.0,0.0,0.0,0.0,0.0,0.0,0.0,0.0,0.0,0.0,0.0,0.0,0.0,0.0,0.0,0.0,0.0,0.0,0.0,0.0,0.0,0.0,0.0,0.0,0.0,0.0,0.0,-1.7921,0.0,0.0,0.0,0.0,0.0,0.0,0.0,0.0,0.0,0.0,0.0,0.0,0.0,0.0,0.0,0.0,0.0,0.0,0.0,0.0,0.0,0.0,0.0,0.0,0.0,0.0,0.0,0.0,0.0,0.0,0.0,0.0,0.0,0.0,0.0,0.0,0.0,0.0,0.0,0.0,0.0,0.0,0.0,0.0,0.0,0.0,0.0,0.0,0.0,0.0,0.0,0.0,0.0,0.0,0.0,0.0,0.0,0.0,0.0,0.0,0.0,0.0,0.0,0.0,0.0,0.0,0.0,0.0,0.0,0.0,0.0,0.0,0.0,0.0,0.0,0.0,0.0,0.0,0.0,0.0,0.0,0.0,0.0,0.0,0.0,0.0,0.0,0.0,0.0,0.0,0.0,0.0,0.0,0.0,0.0,0.0,0.0,0.0,0.0,0.0,0.0,0.0,0.0,0.0,0.0,0.0,0.0,0.0,0.0,0.0,-2.0235,-2.0065,-1.9928,-1.9282,-1.8096,0.0,0.0,0.0,0.0,0.0,0.0,0.0,0.0,0.0,0.0,0.0,0.0,0.0,0.0,0.0,0.0,0.0,0.0,0.0,0.0,0.0,0.0,0.0,0.0,0.0,0.0,0.0,0.0,0.0,0.0,0.0,0.0,0.0,0.0,0.0,0.0,0.0,0.0,0.0,0.0,0.0,0.0,0.0,0.0,0.0,0.0,0.0,0.0,0.0,0.0,0.0,0.0,0.0,0.0,0.0,0.0,0.0,0.0,0.0,0.0,0.0,0.0,0.0,0.0,0.0,0.0,0.0,0.0,0.0,0.0,0.0,0.0,0.0,0.0,0.0,0.0,0.0,0.0,0.0,0.0,0.0,0.0,0.0,0.0,0.0,0.0,0.0,0.0,0.0,0.0,0.0,0.0,0.0,0.0,0.0,0.0,0.0,0.0,0.0,0.0,0.0,0.0,0.0,0.0,0.0,0.0,0.0,0.0,0.0,0.0,0.0,0.0,-2.027,-1.9672,-1.8362,0.0,0.0,0.0,0.0,0.0,0.0,0.0,0.0,0.0,0.0,0.0,0.0,0.0,0.0,0.0,0.0,0.0,0.0,0.0,0.0,0.0,0.0,0.0,0.0,0.0,0.0,0.0,0.0,0.0,0.0,0.0,0.0,0.0,0.0,0.0,0.0,0.0,0.0,0.0,0.0,0.0,0.0,0.0,0.0,0.0,0.0,0.0,0.0,0.0,0.0,0.0,0.0,0.0,0.0,0.0,0.0,0.0,0.0,0.0,0.0,0.0,0.0,0.0,0.0,0.0,0.0,0.0,0.0,0.0,0.0,0.0,0.0,0.0,0.0,0.0,0.0,0.0,0.0,0.0,0.0,0.0,0.0,0.0,0.0,0.0,0.0,0.0,0.0,0.0,0.0,0.0,0.0,0.0,0.0,0.0,0.0,0.0,0.0,0.0,0.0,0.0,0.0,0.0,0.0,0.0,0.0,0.0,0.0,0.0,0.0,-2.015,-1.9874,-2.0135,0.0,-1.8579,0.0,0.0,0.0,0.0,0.0,0.0,0.0,0.0,0.0,0.0,0.0,0.0,0.0,0.0,0.0,0.0,0.0,0.0,0.0,0.0,0.0,0.0,0.0,0.0,0.0,0.0,0.0,0.0,0.0,0.0,0.0,0.0,0.0,0.0,0.0,0.0,0.0,0.0,0.0,0.0,0.0,0.0,0.0,0.0,0.0,0.0,0.0,0.0,0.0,0.0,0.0,0.0,0.0,0.0,0.0,0.0,0.0,0.0,0.0,0.0,0.0,0.0,0.0,0.0,0.0,0.0,0.0,0.0,0.0,0.0,0.0,0.0,0.0,0.0,0.0,0.0,0.0,0.0,0.0,0.0,0.0,0.0,0.0,0.0,0.0,0.0,0.0,0.0,0.0,0.0,0.0,0.0,0.0,0.0,0.0,0.0,0.0,0.0,0.0,0.0,0.0,0.0,0.0,0.0,0.0,0.0,0.0,0.0,0.0,0.0,-2.01,-1.998,-1.9336,-1.8775,0.0,0.0,0.0,0.0,0.0,0.0,0.0,0.0,0.0,0.0,0.0,0.0,0.0,0.0,0.0,0.0,0.0,0.0,0.0,0.0,0.0,0.0,0.0,0.0,0.0,0.0,0.0,0.0,0.0,0.0,0.0,0.0,0.0,0.0,0.0,0.0,0.0,0.0,0.0,0.0,0.0,0.0,0.0,0.0,0.0,0.0,0.0,0.0,0.0,0.0,0.0,0.0,0.0,0.0,0.0,0.0,0.0,0.0,0.0,0.0,0.0,0.0,0.0,0.0,0.0,0.0,0.0,0.0,0.0,0.0,0.0,0.0,0.0,0.0,0.0,0.0,0.0,0.0,0.0,0.0,0.0,0.0,0.0,0.0,0.0,0.0,0.0,0.0,0.0,0.0,0.0,0.0,0.0,0.0,0.0,0.0,0.0,0.0,0.0,0.0,0.0,0.0,0.0,0.0,0.0,0.0,0.0,0.0,0.0,0.0,-2.003,-1.9834,-1.9637,-1.8894,-1.8292,-1.793,0.0,0.0,0.0,0.0,0.0,0.0,0.0,0.0,0.0,0.0,0.0,0.0,0.0,0.0,0.0,0.0,0.0,0.0,0.0,0.0,0.0,0.0,0.0,0.0,0.0,0.0,0.0,0.0,0.0,0.0,0.0,0.0,0.0,0.0,0.0,0.0,0.0,0.0,0.0,0.0,0.0,0.0,0.0,0.0,0.0,0.0,0.0,0.0,0.0,0.0,0.0,0.0,0.0,0.0,0.0,0.0,0.0,0.0,0.0,0.0,0.0,0.0,0.0,0.0,0.0,0.0,0.0,0.0,0.0,0.0,0.0,0.0,0.0,0.0,0.0,0.0,0.0,0.0,0.0,0.0,0.0,0.0,0.0,0.0,0.0,0.0,0.0,0.0,0.0,0.0,0.0,0.0,0.0,0.0,0.0,0.0,0.0,0.0,0.0,0.0,0.0,0.0,0.0,0.0,0.0,0.0,0.0,0.0,0.0,-1.966,-1.9161,-1.8634,-1.9129,-1.8736,0.0,0.0,0.0,0.0,0.0,0.0,0.0,0.0,0.0,0.0,0.0,0.0,0.0,0.0,0.0,0.0,0.0,0.0,0.0,0.0,0.0,0.0,0.0,0.0,0.0,0.0,0.0,0.0,0.0,0.0,0.0,0.0,0.0,0.0,0.0,0.0,0.0,0.0,0.0,0.0,0.0,0.0,0.0,0.0,0.0,0.0,0.0,0.0,0.0,0.0,0.0,0.0,0.0,0.0,0.0,0.0,0.0,0.0,0.0,0.0,0.0,0.0,0.0,0.0,0.0,0.0,0.0,0.0,0.0,0.0,0.0,0.0,0.0,0.0,0.0,0.0,0.0,0.0,0.0,0.0,0.0,0.0,0.0,0.0,0.0,0.0,0.0,0.0,0.0,0.0,0.0,0.0,0.0,0.0,0.0,0.0,0.0,0.0,0.0,0.0,0.0,0.0,0.0,0.0,0.0,0.0,0.0,0.0,0.0,-1.9096,-1.8928,-1.8881,-1.8928,-1.839,-1.7978,0.0,0.0,0.0,0.0,0.0,0.0,0.0,0.0,0.0,0.0,0.0,0.0,0.0,0.0,0.0,0.0,0.0,0.0,0.0,0.0,0.0,0.0,0.0,0.0,0.0,0.0,0.0,0.0,0.0,0.0,0.0,0.0,0.0,0.0,0.0,0.0,0.0,0.0,0.0,0.0,0.0,0.0,0.0,0.0,0.0,0.0,0.0,0.0,0.0,0.0,0.0,0.0,0.0,0.0,0.0,0.0,0.0,0.0,0.0,0.0,0.0,0.0,0.0,0.0,0.0,0.0,0.0,0.0,0.0,0.0,0.0,0.0,0.0,0.0,0.0,0.0,0.0,0.0,0.0,0.0,0.0,0.0,0.0,0.0,0.0,0.0,0.0,0.0,0.0,0.0,0.0,0.0,0.0,0.0,0.0,0.0,0.0,0.0,0.0,0.0,0.0,0.0,0.0,0.0,0.0,0.0,0.0,0.0,0.0,-1.825,0.0,-1.876,0.0,-1.8016,-1.7626,0.0,0.0,0.0,0.0,0.0,0.0,0.0,0.0,0.0,0.0,0.0,0.0,0.0,0.0,0.0,0.0,0.0,0.0,0.0,0.0,0.0,0.0,0.0,0.0,0.0,0.0,0.0,0.0,0.0,0.0,0.0,0.0,0.0,0.0,0.0,0.0,0.0,0.0,0.0,0.0,0.0,0.0,0.0,0.0,0.0,0.0,0.0,0.0,0.0,0.0,0.0,0.0,0.0,0.0,0.0,0.0,0.0,0.0,0.0,0.0,0.0,0.0,0.0,0.0,0.0,0.0,0.0,0.0,0.0,0.0,0.0,0.0,0.0,0.0,0.0,0.0,0.0,0.0,0.0,0.0,0.0,0.0,0.0,0.0,0.0,0.0,0.0,0.0,0.0,0.0,0.0,0.0,0.0,0.0,0.0,0.0,0.0,0.0,0.0,0.0,0.0,0.0,0.0,0.0,0.0,0.0,0.0,0.0,-1.822,-1.7687,-1.8567,-1.8625,-1.7715,-1.8114,-1.7792,0.0,0.0,0.0,0.0,0.0,0.0,0.0,0.0,0.0,0.0,0.0,0.0,0.0,0.0,0.0,0.0,0.0,0.0,0.0,0.0,0.0,0.0,0.0,0.0,0.0,0.0,0.0,0.0,0.0,0.0,0.0,0.0,0.0,0.0,0.0,0.0,0.0,0.0,0.0,0.0,0.0,0.0,0.0,0.0,0.0,0.0,0.0,0.0,0.0,0.0,0.0,0.0,0.0,0.0,0.0,0.0,0.0,0.0,0.0,0.0,0.0,0.0,0.0,0.0,0.0,0.0,0.0,0.0,0.0,0.0,0.0,0.0,0.0,0.0,0.0,0.0,0.0,0.0,0.0,0.0,0.0,0.0,0.0,0.0,0.0,0.0,0.0,0.0,0.0,0.0,0.0,0.0,0.0,0.0,0.0,0.0,0.0,0.0,0.0,0.0,0.0,0.0,0.0,0.0,0.0,0.0,0.0,0.0,0.0,-1.7636,-1.8304,-1.8698,-1.8633,-1.8504,-1.8357,0.0,0.0,0.0,0.0,0.0,0.0,0.0,0.0,0.0,0.0,0.0,0.0,0.0,0.0,0.0,0.0,0.0,0.0,0.0,0.0,0.0,0.0,0.0,0.0,0.0,0.0,0.0,0.0,0.0,0.0,0.0,0.0,0.0,0.0,0.0,0.0,0.0,0.0,0.0,0.0,0.0,0.0,0.0,0.0,0.0,0.0,0.0,0.0,0.0,0.0,0.0,0.0,0.0,0.0,0.0,0.0,0.0,0.0,0.0,0.0,0.0,0.0,0.0,0.0,0.0,0.0,0.0,0.0,0.0,0.0,0.0,0.0,0.0,0.0,0.0,0.0,0.0,0.0,0.0,0.0,0.0,0.0,0.0,0.0,0.0,0.0,0.0,0.0,0.0,0.0,0.0,0.0,0.0,0.0,0.0,0.0,0.0,0.0,0.0,0.0,0.0,0.0,0.0,0.0,0.0,0.0,0.0,0.0,0.0,-1.8198,-1.8682,-1.8997,-1.9116,-1.88,-1.8668,-1.8755,0.0,0.0,0.0,0.0,0.0,0.0,0.0,0.0,0.0,0.0,0.0,0.0,0.0,0.0,0.0,0.0,0.0,0.0,0.0,0.0,0.0,0.0,0.0,0.0,0.0,0.0,0.0,0.0,0.0,0.0,0.0,0.0,0.0,0.0,0.0,0.0,0.0,0.0,0.0,0.0,0.0,0.0,0.0,0.0,0.0,0.0,0.0,0.0,0.0,0.0,0.0,0.0,0.0,0.0,0.0,0.0,0.0,0.0,0.0,0.0,0.0,0.0,0.0,0.0,0.0,0.0,0.0,0.0,0.0,0.0,0.0,0.0,0.0,0.0,0.0,0.0,0.0,0.0,0.0,0.0,0.0,0.0,0.0,0.0,0.0,0.0,0.0,0.0,0.0,0.0,0.0,0.0,0.0,0.0,0.0,0.0,0.0,0.0,0.0,0.0,0.0,0.0,0.0,0.0,0.0,0.0,0.0,0.0,-1.9139,-1.9493,-1.9493,-1.9124,-1.9106,-1.8865,0.0,0.0,0.0,0.0,0.0,0.0,0.0,0.0,0.0,0.0,0.0,0.0,0.0,0.0,0.0,0.0,0.0,0.0,0.0,0.0,0.0,0.0,0.0,0.0,0.0,0.0,0.0,0.0,0.0,0.0,0.0,0.0,0.0,0.0,0.0,0.0,0.0,0.0,0.0,0.0,0.0,0.0,0.0,0.0,0.0,0.0,0.0,0.0,0.0,0.0,0.0,0.0,0.0,0.0,0.0,0.0,0.0,0.0,0.0,0.0,0.0,0.0,0.0,0.0,0.0,0.0,0.0,0.0,0.0,0.0,0.0,0.0,0.0,0.0,0.0,0.0,0.0,0.0,0.0,0.0,0.0,0.0,0.0,0.0,0.0,0.0,0.0,0.0,0.0,0.0,0.0,0.0,0.0,0.0,0.0,0.0,0.0,0.0,0.0,0.0,0.0,0.0,0.0,0.0,0.0,0.0,0.0,0.0,0.0,-1.953,-1.9654,-1.9639,-1.9545,-1.9682,-1.9712,0.0,0.0,0.0,0.0,0.0,0.0,0.0,0.0,0.0,0.0,0.0,0.0,0.0,0.0,0.0,0.0,0.0,0.0,0.0,0.0,0.0,0.0,0.0,0.0,0.0,0.0,0.0,0.0,0.0,0.0,0.0,0.0,0.0,0.0,0.0,0.0,0.0,0.0,0.0,0.0,0.0,0.0,0.0,0.0,0.0,0.0,0.0,0.0,0.0,0.0,0.0,0.0,0.0,0.0,0.0,0.0,0.0,0.0,0.0,0.0,0.0,0.0,0.0,0.0,0.0,0.0,0.0,0.0,0.0,0.0,0.0,0.0,0.0,0.0,0.0,0.0,0.0,0.0,0.0,0.0,0.0,0.0,0.0,0.0,0.0,0.0,0.0,0.0,0.0,0.0,0.0,0.0,0.0,0.0,0.0,0.0,0.0,0.0,0.0,0.0,0.0,0.0,0.0,0.0,0.0,0.0,0.0,0.0,-1.9848,-1.9726,-1.9705,-1.9726,-1.9762,-1.9935,-2.0005,0.0,0.0,0.0,0.0,0.0,0.0,0.0,0.0,0.0,0.0,0.0,0.0,0.0,0.0,0.0,0.0,0.0,0.0,0.0,0.0,0.0,0.0,0.0,0.0,0.0,0.0,0.0,0.0,0.0,0.0,0.0,0.0,0.0,0.0,0.0,0.0,0.0,0.0,0.0,0.0,0.0,0.0,0.0,0.0,0.0,0.0,0.0,0.0,0.0,0.0,0.0,0.0,0.0,0.0,0.0,0.0,0.0,0.0,0.0,0.0,0.0,0.0,0.0,0.0,0.0,0.0,0.0,0.0,0.0,0.0,0.0,0.0,0.0,0.0,0.0,0.0,0.0,0.0,0.0,0.0,0.0,0.0,0.0,0.0,0.0,0.0,0.0,0.0,0.0,0.0,0.0,0.0,0.0,0.0,0.0,0.0,0.0,0.0,0.0,0.0,0.0,0.0,0.0,0.0,0.0,0.0,0.0,0.0,-1.9726,-1.9726,-1.9726,-1.9741,-1.9812,-1.9935,-2.0005,0.0,0.0,0.0,0.0,0.0,0.0,0.0,0.0,0.0,0.0,0.0,0.0,0.0,0.0,0.0,0.0,0.0,0.0,0.0,0.0,0.0,0.0,0.0,0.0,0.0,0.0,0.0,0.0,0.0,0.0,0.0,0.0,0.0,0.0,0.0,0.0,0.0,0.0,0.0,0.0,0.0,0.0,0.0,0.0,0.0,0.0,0.0,0.0,0.0,0.0,0.0,0.0,0.0,0.0,0.0,0.0,0.0,0.0,0.0,0.0,0.0,0.0,0.0,0.0,0.0,0.0,0.0,0.0,0.0,0.0,0.0,0.0,0.0,0.0,0.0,0.0,0.0,0.0,0.0,0.0,0.0,0.0,0.0,0.0,0.0,0.0,0.0,0.0,0.0,0.0,0.0,0.0,0.0,0.0,0.0,0.0,0.0,0.0,0.0,0.0,0.0,0.0,0.0,0.0,0.0,0.0,0.0,0.0,-1.9899,-1.9762,-1.9726,-1.9726,-1.9797,-1.9919,-2.0025,0.0,0.0,0.0,0.0,0.0,0.0,0.0,0.0,0.0,0.0,0.0,0.0,0.0,0.0,0.0,0.0,0.0,0.0,0.0,0.0,0.0,0.0,0.0,0.0,0.0,0.0,0.0,0.0,0.0,0.0,0.0,0.0,0.0,0.0,0.0,0.0,0.0,0.0,0.0,0.0,0.0,0.0,0.0,0.0,0.0,0.0,0.0,0.0,-2.5273,0.0,0.0,0.0,0.0,0.0,0.0,0.0,0.0,0.0,0.0,0.0,0.0,0.0,0.0,0.0,0.0,0.0,0.0,0.0,0.0,0.0,0.0,0.0,0.0,0.0,0.0,0.0,0.0,0.0,0.0,0.0,0.0,0.0,0.0,0.0,0.0,0.0,0.0,0.0,0.0,0.0,0.0,0.0,0.0,0.0,0.0,0.0,0.0,0.0,0.0,0.0,0.0,0.0,0.0,0.0,0.0,0.0,0.0,0.0,-1.9884,-1.9797,-1.9762,-1.9797,-1.994,-2.0025,-2.008,0.0,0.0,0.0,0.0,0.0,0.0,0.0,0.0,0.0,0.0,0.0,0.0,0.0,0.0,0.0,0.0,0.0,0.0,0.0,0.0,0.0,0.0,0.0,0.0,0.0,0.0,0.0,0.0,0.0,0.0,0.0,0.0,0.0,0.0,0.0,0.0,0.0,0.0,0.0,0.0,0.0,0.0,0.0,0.0,0.0,0.0,0.0,0.0,0.0,0.0,0.0,0.0,0.0,0.0,0.0,0.0,0.0,0.0,0.0,0.0,0.0,0.0,0.0,0.0,0.0,0.0,0.0,0.0,0.0,0.0,0.0,0.0,0.0,0.0,0.0,0.0,0.0,0.0,0.0,0.0,0.0,0.0,0.0,0.0,0.0,0.0,0.0,0.0,0.0,0.0,0.0,0.0,0.0,0.0,0.0,0.0,0.0,0.0,0.0,0.0,0.0,0.0,0.0,0.0,0.0,0.0,0.0,-2.0025,-1.9939,-1.9833,-1.9939,-2.001,-2.0115,-2.0115,-2.0135,-2.0204,0.0,0.0,0.0,0.0,0.0,0.0,0.0,0.0,0.0,0.0,0.0,0.0,0.0,0.0,0.0,0.0,0.0,0.0,0.0,0.0,0.0,0.0,0.0,0.0,0.0,0.0,0.0,0.0,0.0,0.0,0.0,0.0,0.0,0.0,0.0,0.0,0.0,0.0,-2.4139,-2.5461,0.0,0.0,0.0,0.0,0.0,0.0,0.0,0.0,-2.7303,0.0,0.0,0.0,0.0,0.0,0.0,0.0,0.0,0.0,0.0,0.0,0.0,0.0,0.0,0.0,0.0,0.0,0.0,0.0,0.0,0.0,0.0,0.0,0.0,0.0,0.0,0.0,0.0,0.0,0.0,0.0,0.0,0.0,0.0,0.0,0.0,0.0,0.0,0.0,0.0,0.0,0.0,0.0,0.0,0.0,0.0,0.0,0.0,0.0,0.0,0.0,0.0,0.0,0.0,0.0,0.0,-2.0235,-2.0609,-2.0552,-2.0061,-2.0537,-2.0588,-2.0146,-2.0115,-2.0273,-2.0679,0.0,0.0,0.0,0.0,0.0,0.0,0.0,0.0,0.0,0.0,0.0,0.0,0.0,0.0,0.0,0.0,0.0,0.0,0.0,0.0,0.0,0.0,0.0,0.0,0.0,0.0,0.0,0.0,0.0,0.0,0.0,0.0,0.0,0.0,0.0,0.0,0.0,0.0,0.0,-2.662,-2.7483,0.0,0.0,0.0,0.0,0.0,0.0,0.0,0.0,-2.7714,0.0,0.0,0.0,0.0,0.0,0.0,0.0,0.0,0.0,0.0,0.0,0.0,0.0,0.0,0.0,0.0,0.0,0.0,0.0,0.0,0.0,0.0,0.0,0.0,0.0,0.0,0.0,0.0,0.0,0.0,0.0,0.0,0.0,0.0,0.0,0.0,0.0,0.0,0.0,0.0,0.0,0.0,0.0,0.0,0.0,0.0,0.0,0.0,0.0,0.0,0.0,0.0,0.0,0.0,0.0,-2.0676,-2.0935,-2.1103,-2.1185,-2.1469,-2.1354,-2.0753,-2.0707,-2.0852,0.0,0.0,0.0,0.0,0.0,0.0,0.0,0.0,0.0,0.0,0.0,0.0,0.0,0.0,0.0,0.0,0.0,0.0,0.0,0.0,0.0,0.0,0.0,0.0,0.0,0.0,0.0,0.0,0.0,0.0,0.0,0.0,0.0,0.0,0.0,0.0,0.0,0.0,0.0,0.0,-2.6729,-2.7587,-2.8793,0.0,0.0,0.0,0.0,0.0,0.0,-2.8184,-2.819,0.0,0.0,0.0,0.0,0.0,0.0,0.0,0.0,0.0,0.0,0.0,0.0,0.0,0.0,0.0,0.0,0.0,0.0,0.0,0.0,0.0,0.0,0.0,0.0,0.0,0.0,0.0,0.0,0.0,0.0,0.0,0.0,0.0,0.0,0.0,0.0,0.0,0.0,0.0,0.0,0.0,0.0,0.0,0.0,0.0,0.0,0.0,0.0,0.0,0.0,0.0,0.0,0.0,0.0,0.0,-2.1115,-2.1384,-2.1773,-2.2187,-2.234,-2.2079,-2.1337,-2.1342,-2.1387,0.0,0.0,0.0,0.0,0.0,0.0,0.0,0.0,0.0,0.0,0.0,0.0,0.0,0.0,0.0,0.0,0.0,0.0,0.0,0.0,0.0,0.0,0.0,0.0,0.0,0.0,0.0,0.0,0.0,0.0,0.0,0.0,0.0,0.0,0.0,0.0,0.0,0.0,0.0,0.0,0.0,-2.7735,-2.9017,-2.9265,0.0,0.0,0.0,0.0,-2.8669,-2.8583,0.0,0.0,0.0,0.0,0.0,0.0,0.0,0.0,0.0,0.0,0.0,0.0,0.0,0.0,0.0,0.0,0.0,0.0,0.0,0.0,0.0,0.0,0.0,0.0,0.0,0.0,0.0,0.0,0.0,0.0,0.0,0.0,0.0,0.0,0.0,0.0,0.0,0.0,0.0,0.0,0.0,0.0,0.0,0.0,0.0,0.0,0.0,0.0,0.0,0.0,0.0,0.0,0.0,0.0,0.0,0.0,-2.1316,-2.2394,-2.2762,-2.2347,-2.2886,-2.2578,-2.1368,-2.1592,-2.1591,0.0,0.0,0.0,0.0,0.0,0.0,0.0,0.0,0.0,0.0,0.0,0.0,0.0,0.0,0.0,0.0,0.0,0.0,0.0,0.0,0.0,0.0,0.0,0.0,0.0,0.0,0.0,0.0,0.0,0.0,0.0,0.0,0.0,0.0,0.0,0.0,0.0,0.0,0.0,0.0,0.0,-2.8631,-2.8833,-2.9119,-2.9184,0.0,0.0,-2.8558,-2.8394,-2.8633,0.0,0.0,0.0,0.0,0.0,0.0,0.0,0.0,0.0,0.0,0.0,0.0,0.0,0.0,0.0,0.0,0.0,0.0,0.0,0.0,0.0,0.0,0.0,0.0,0.0,0.0,0.0,0.0,0.0,0.0,0.0,0.0,0.0,0.0,0.0,0.0,0.0,0.0,0.0,0.0,0.0,0.0,0.0,0.0,0.0,0.0,0.0,0.0,0.0,0.0,0.0,0.0,0.0,0.0,0.0,-2.1443,-2.187,-2.2786,-2.3308,-2.344,-2.3717,-2.3225,-2.187,-2.2207,-2.1954,0.0,0.0,0.0,0.0,0.0,0.0,0.0,0.0,0.0,0.0,0.0,0.0,0.0,0.0,0.0,0.0,0.0,0.0,0.0,0.0,0.0,0.0,0.0,0.0,0.0,0.0,0.0,0.0,0.0,0.0,0.0,0.0,0.0,0.0,0.0,0.0,0.0,0.0,0.0,0.0,0.0,0.0,-2.9025,-2.8912,0.0,0.0,0.0,-2.8246,-2.8533,0.0,0.0,0.0,0.0,0.0,0.0,0.0,0.0,0.0,0.0,0.0,0.0,0.0,0.0,0.0,0.0,0.0,0.0,0.0,0.0,0.0,0.0,0.0,0.0,0.0,0.0,0.0,0.0,0.0,0.0,0.0,0.0,0.0,0.0,0.0,0.0,0.0,0.0,0.0,0.0,0.0,0.0,0.0,0.0,0.0,0.0,0.0,0.0,0.0,0.0,0.0,0.0,0.0,0.0,0.0,0.0,0.0,-2.2286,-2.3117,-2.3794,-2.4271,-2.4148,-2.3526,-2.2423,-2.2525,0.0,0.0,0.0,0.0,0.0,0.0,0.0,0.0,0.0,0.0,0.0,0.0,0.0,0.0,0.0,0.0,0.0,0.0,0.0,0.0,0.0,0.0,0.0,0.0,0.0,0.0,0.0,-2.0377,0.0,0.0,0.0,0.0,0.0,0.0,0.0,0.0,0.0,0.0,0.0,0.0,0.0,0.0,-2.7997,-2.9161,-2.8972,-2.903,0.0,0.0,-2.8154,-2.8873,-2.8659,-2.854,0.0,0.0,0.0,0.0,0.0,0.0,0.0,0.0,0.0,0.0,0.0,0.0,0.0,0.0,0.0,0.0,0.0,0.0,0.0,0.0,0.0,0.0,0.0,0.0,0.0,0.0,0.0,0.0,0.0,0.0,0.0,0.0,0.0,0.0,0.0,0.0,0.0,0.0,0.0,0.0,0.0,0.0,0.0,0.0,0.0,0.0,0.0,0.0,0.0,0.0,0.0,0.0,0.0,0.0,0.0,-2.2301,-2.3579,-2.4256,-2.4287,-2.3686,-2.3103,-2.2611,-2.2251,-2.1907,0.0,0.0,0.0,0.0,0.0,0.0,0.0,0.0,0.0,0.0,0.0,0.0,0.0,0.0,0.0,0.0,0.0,0.0,0.0,0.0,0.0,0.0,0.0,0.0,0.0,0.0,0.0,0.0,0.0,0.0,0.0,0.0,0.0,0.0,0.0,0.0,0.0,0.0,0.0,0.0,0.0,-2.8909,-2.8994,-2.9471,-2.9964,0.0,0.0,-2.8745,-2.9359,-2.9072,-2.881,-2.8994,0.0,0.0,0.0,0.0,0.0,0.0,0.0,0.0,0.0,0.0,0.0,0.0,0.0,0.0,0.0,0.0,0.0,0.0,0.0,0.0,0.0,0.0,0.0,0.0,0.0,0.0,0.0,0.0,0.0,0.0,0.0,0.0,0.0,0.0,0.0,0.0,0.0,0.0,0.0,0.0,0.0,0.0,0.0,0.0,0.0,0.0,0.0,0.0,0.0,0.0,0.0,0.0,0.0,-2.2056,-2.2301,-2.3625,-2.4302,-2.4302,-2.4056,-2.3489,-2.2627,-2.2631,-2.2241,0.0,0.0,0.0,0.0,0.0,0.0,0.0,0.0,0.0,0.0,0.0,0.0,0.0,0.0,0.0,0.0,0.0,0.0,0.0,0.0,0.0,0.0,0.0,0.0,0.0,0.0,0.0,0.0,-2.2065,-2.2255,-2.2185,0.0,0.0,0.0,0.0,0.0,0.0,0.0,0.0,0.0,0.0,-2.9194,-2.9883,-3.0003,0.0,0.0,-3.0487,-2.9846,-2.9875,-2.9721,-2.9637,-2.9727,-2.9732,0.0,0.0,0.0,0.0,0.0,0.0,0.0,0.0,0.0,0.0,0.0,0.0,0.0,0.0,0.0,0.0,0.0,0.0,0.0,0.0,0.0,0.0,0.0,0.0,0.0,0.0,0.0,0.0,0.0,0.0,0.0,0.0,0.0,0.0,0.0,0.0,0.0,0.0,0.0,0.0,0.0,0.0,0.0,0.0,0.0,0.0,0.0,0.0,0.0,0.0,0.0,0.0,-2.208,-2.2301,-2.3625,-2.4302,-2.4302,-2.4143,-2.3747,-2.302,-2.2929,-2.2536,0.0,0.0,0.0,0.0,0.0,0.0,0.0,0.0,0.0,0.0,0.0,0.0,0.0,0.0,0.0,0.0,0.0,0.0,0.0,0.0,0.0,0.0,0.0,0.0,0.0,0.0,0.0,0.0,-2.2712,-2.2771,-2.2942,0.0,0.0,0.0,0.0,0.0,0.0,0.0,0.0,0.0,0.0,-2.993,-3.0698,-3.07,-3.0982,-3.1995,-3.1343,-3.0767,-3.0768,-3.0808,-3.0759,-3.0595,0.0,0.0,0.0,0.0,0.0,0.0,0.0,0.0,0.0,0.0,0.0,0.0,0.0,0.0,0.0,0.0,0.0,0.0,0.0,0.0,0.0,0.0,0.0,0.0,0.0,0.0,0.0,-1.8898,0.0,0.0,-1.9391,0.0,0.0,0.0,0.0,0.0,0.0,0.0,0.0,0.0,0.0,0.0,0.0,0.0,0.0,0.0,0.0,0.0,0.0,0.0,0.0,0.0,0.0,-2.1655,-2.2286,-2.3609,-2.4317,-2.4287,-2.3871,-2.3747,-2.386,-2.3001,-2.2685,-2.3006,0.0,0.0,0.0,0.0,0.0,0.0,0.0,0.0,0.0,0.0,0.0,0.0,0.0,0.0,0.0,0.0,0.0,0.0,0.0,0.0,0.0,0.0,0.0,0.0,0.0,0.0,-2.2712,-2.2712,-2.3022,0.0,0.0,0.0,0.0,0.0,0.0,0.0,0.0,0.0,0.0,-3.0744,-3.1267,-3.1306,-3.1591,-3.2097,-3.2898,-3.1949,-3.1428,-3.2247,-3.2401,-3.2206,0.0,0.0,0.0,0.0,0.0,0.0,0.0,0.0,0.0,0.0,0.0,0.0,0.0,0.0,0.0,0.0,0.0,0.0,0.0,0.0,0.0,0.0,0.0,0.0,0.0,0.0,0.0,-1.9121,-1.9228,0.0,0.0,0.0,0.0,0.0,0.0,0.0,0.0,0.0,0.0,0.0,-2.1947,-2.2178,0.0,0.0,0.0,0.0,0.0,0.0,0.0,0.0,0.0,0.0,0.0,0.0,-2.2055,-2.2347,-2.373,-2.4508,-2.4508,-2.4697,-2.4654,-2.4374,-2.3749,-2.2922,-2.186,0.0,0.0,0.0,0.0,0.0,0.0,0.0,0.0,0.0,0.0,0.0,0.0,0.0,0.0,0.0,0.0,0.0,0.0,0.0,0.0,0.0,0.0,0.0,0.0,0.0,-2.2712,0.0,0.0,0.0,0.0,0.0,0.0,0.0,0.0,0.0,0.0,0.0,-3.013,-3.1135,-3.1732,-3.2331,-3.319,-3.3581,-3.4098,0.0,0.0,0.0,0.0,0.0,0.0,0.0,0.0,0.0,0.0,0.0,0.0,0.0,0.0,-3.682,-3.4526,-3.3352,-3.2976,-3.3753,0.0,0.0,0.0,0.0,0.0,0.0,0.0,0.0,0.0,0.0,0.0,0.0,0.0,0.0,-2.0184,0.0,-2.0848,0.0,0.0,0.0,0.0,0.0,0.0,0.0,0.0,-2.2717,-2.3148,-2.3363,-2.3594,-2.3579,0.0,-2.3579,-2.2994,0.0,0.0,0.0,0.0,0.0,0.0,0.0,0.0,-2.2447,-2.2786,-2.3973,-2.463,-2.4766,-2.513,-2.525,-2.4984,-2.4431,-2.3496,-2.2156,-2.1848,-2.143,0.0,0.0,0.0,0.0,0.0,0.0,0.0,0.0,0.0,0.0,0.0,0.0,0.0,0.0,0.0,0.0,0.0,0.0,0.0,0.0,0.0,0.0,0.0,-2.2738,0.0,0.0,0.0,0.0,0.0,0.0,0.0,0.0,0.0,-3.0505,-3.1141,-3.2036,-3.3178,-3.3556,-3.3996,-3.4787,0.0,0.0,0.0,0.0,0.0,0.0,0.0,-3.5202,-3.5532,-3.5705,-3.6081,-3.6928,-3.8022,-3.8662,-3.8371,0.0,0.0,-3.6893,-3.5892,-3.5647,-3.6466,-3.6364,-3.6135,-3.6189,-3.6561,-3.6587,0.0,0.0,0.0,0.0,0.0,0.0,0.0,0.0,-2.0965,-2.1674,0.0,-2.2903,0.0,0.0,0.0,0.0,0.0,-2.3332,0.0,0.0,-2.5256,-2.5918,-2.5318,-2.5903,-2.5933,-2.5364,-2.5903,-2.5564,-2.4317,-2.3055,0.0,0.0,0.0,0.0,0.0,0.0,-2.2786,-2.3678,-2.4333,-2.4782,-2.5053,-2.5217,-2.5454,-2.564,-2.5012,-2.4368,-2.3839,-2.3116,-2.2409,-2.172,-2.1651,0.0,0.0,0.0,0.0,0.0,0.0,0.0,0.0,0.0,0.0,0.0,0.0,0.0,0.0,0.0,0.0,0.0,0.0,0.0,0.0,-2.272,0.0,0.0,0.0,0.0,0.0,0.0,0.0,0.0,0.0,0.0,-3.343,-3.331,-3.3942,-3.5727,0.0,0.0,0.0,0.0,-3.615,-3.6204,-3.6216,-3.6234,-3.6216,-3.6945,-3.7302,-3.6875,0.0,0.0,-3.8558,-3.9241,-3.9618,-3.8826,-3.9409,-3.987,-3.9823,-3.9145,-3.8766,-3.8879,-3.8136,-3.7678,-3.7823,-3.781,-3.768,-2.255,0.0,0.0,0.0,0.0,-2.0765,-2.1473,-2.3169,-2.252,-2.2701,-2.3463,-2.3822,0.0,0.0,0.0,0.0,0.0,0.0,-2.3748,-2.401,-2.4148,-2.4333,-2.461,-2.481,-2.5041,-2.5333,-2.5518,-2.5656,-2.578,-2.541,-2.4133,-2.2093,0.0,0.0,0.0,0.0,-2.4356,-2.5092,-2.5582,-2.5839,-2.5919,-2.5826,-2.5763,-2.5715,-2.5507,-2.5166,-2.4649,-2.3898,-2.3392,-2.3171,-2.2651,0.0,0.0,0.0,0.0,0.0,0.0,0.0,0.0,0.0,0.0,0.0,0.0,0.0,0.0,0.0,0.0,0.0,0.0,0.0,-2.2712,-2.3168,-2.4056,0.0,0.0,0.0,0.0,0.0,0.0,0.0,0.0,0.0,-3.6138,-3.5754,-3.5608,0.0,0.0,-3.6457,-3.7008,-3.7099,-3.7301,-3.7869,-3.8103,0.0,-3.822,-3.8156,-3.8246,-3.8705,-3.9204,-3.9689,-4.0223,-4.068,-4.1051,-4.1377,-4.1322,-4.1219,-4.1126,-3.9927,-3.9276,-3.978,-3.9355,-3.9029,-3.9567,-3.967,-3.9442,-2.3519,-2.1861,-2.1847,-2.2269,-2.2865,-2.2073,-2.2637,-2.4124,-2.3739,-2.4043,-2.4741,-2.5317,-2.5319,-2.4859,-2.4569,0.0,0.0,0.0,-2.4594,-2.4702,-2.4579,-2.4733,-2.5087,-2.5118,-2.5333,-2.5733,-2.5821,-2.6096,-2.653,-2.6851,-2.5901,-2.3842,0.0,0.0,-2.385,-2.4766,-2.5642,-2.6356,-2.6595,-2.6759,-2.684,-2.6591,-2.6308,-2.5982,-2.5776,-2.561,-2.5424,-2.4701,-2.4285,-2.4261,-2.3554,-2.2989,0.0,0.0,0.0,0.0,0.0,0.0,0.0,0.0,0.0,0.0,0.0,-2.3876,-2.3301,0.0,0.0,0.0,-2.3676,-2.4058,-2.4594,-2.5397,0.0,0.0,0.0,0.0,0.0,0.0,0.0,-3.4917,-3.6127,-3.7184,-3.7881,-3.812,-3.7973,-3.7349,-3.7239,-3.7422,-3.79,0.0,-3.8309,-3.8799,-3.9091,-3.938,-3.972,-3.925,-3.915,-4.0116,-4.0722,-4.1205,-4.176,-4.1992,-4.2258,-4.2659,-4.2558,-4.2299,-4.2316,-4.1349,-4.0454,-4.0492,-4.0104,-3.9954,-4.0441,-4.0502,-4.0312,-2.4258,-2.4258,-2.4258,-2.4216,-2.4132,-2.3855,-2.396,-2.4408,-2.4746,-2.5515,-2.652,-2.7226,-2.7226,-2.6672,-2.601,0.0,-2.4764,-2.598,-2.6164,-2.5487,-2.6041,-2.6272,-2.6197,-2.6211,-2.6317,-2.6425,-2.6603,-2.6754,-2.6938,-2.7709,-2.7494,-2.6277,-2.6078,-2.6073,-2.6186,-2.6249,-2.6723,-2.756,-2.7512,-2.7589,-2.7705,-2.73,-2.6895,-2.6484,-2.5999,-2.5868,-2.6148,-2.5476,-2.5086,-2.5049,-2.4287,-2.351,-2.2833,0.0,0.0,0.0,0.0,0.0,0.0,0.0,0.0,0.0,0.0,0.0,0.0,0.0,0.0,0.0,-2.5235,0.0,-2.7654,-2.8599,0.0,0.0,0.0,-3.2454,-3.3114,-3.5129,-3.6211,-3.5477,0.0,0.0,-3.9001,-4.0175,-4.0561,-3.9093,-3.8903,-3.8934,-3.8934,-3.9211,-3.9332,-3.945,-3.9608,-4.0066,-4.0877,-4.045,-4.0352,-4.1303,-4.2371,-4.2975,-4.3145,-4.3184,-4.3184,-4.3376,-4.3278,-4.3184,-4.3201,-4.3047,-4.2604,-4.1046,-4.0662,-4.0604,-4.0518,-4.0499,-4.0463,-2.5458,-2.5458,-2.5458,-2.5191,-2.4751,-2.4261,-2.4755,-2.593,-2.5914,-2.6752,-2.8228,-2.871,-2.9135,-2.9458,-2.9273,-2.8842,-2.8196,-2.8011,-2.7565,-2.6872,-2.598,-2.5549,-2.5533,-2.5041,-2.5435,-2.657,-2.666,-2.734,-2.8479,-2.8744,-2.8785,-2.8662,-2.863,-2.8017,-2.692,-2.7567,-2.8302,-2.9018,-2.8662,-2.8214,-2.7705,-2.712,-2.6934,-2.7236,-2.6587,-2.6471,-2.6957,-2.6261,-2.5853,-2.5794,-2.4631,-2.3859,-2.3689,-2.2586,0.0,0.0,0.0,0.0,0.0,0.0,0.0,0.0,0.0,-2.5614,-2.434,0.0,-2.6162,0.0,-2.7068,-2.8067,-2.9098,-2.9916,0.0,0.0,-3.4043,-3.5015,-3.7173,-3.79,-3.8357,-3.878,-4.0005,-4.0744,-4.0561,-4.0919,-4.1043,-4.0657,-4.0792,-4.0903,-4.0932,-4.1199,-4.1387,-4.138,-4.1571,-4.1879,-4.2098,-4.2259,-4.2334,-4.2635,-4.2936,-4.3297,-4.3912,-4.4028,-4.422,-4.4797,-4.4432,-4.4085,-4.4008,-4.3528,-4.3047,-4.2527,-4.195,-4.1277,-4.0646,-4.0511,-4.0511,-2.5893,-2.5893,-2.5893,-2.5791,-2.5649,-2.4972,-2.5343,-2.6294,-2.6411,-2.709,-2.8256,-2.9035,-2.9797,-3.0412,-3.0376,-2.9874,-2.8965,-2.8581,-2.7873,-2.6888,-2.6134,-2.5795,-2.578,-2.5524,-2.5827,-2.6673,-2.6907,-2.7458,-2.8307,-2.879,-2.9006,-2.9198,-2.9504,-2.9235,-2.8366,-2.8544,-2.8973,-2.9649,-2.9426,-2.8935,-2.819,-2.7615,-2.7388,-2.7487,-2.6891,-2.6825,-2.7359,-2.6974,-2.6573,-2.6236,-2.5213,-2.4611,-2.4534,-2.3636,-2.3446,0.0,0.0,0.0,0.0,0.0,0.0,0.0,0.0,0.0,0.0,0.0,-2.7652,-2.8393,-2.9384,-3.064,-3.2262,-3.3143,-3.4433,-3.6431,-3.6916,-3.7728,-3.9327,-3.9778,-4.0124,-4.0585,-4.1309,-4.1774,-4.1793,-4.212,-4.2373,-4.2373,-4.2723,-4.2631,-4.1856,-4.2002,-4.2284,-4.2329,-4.254,-4.2757,-4.2814,-4.3632,-4.4066,-4.3739,-4.3951,-4.4374,-4.4797,-4.4874,-4.5047,-4.5451,-4.5201,-4.4874,-4.4855,-4.4547,-4.4124,-4.3662,-4.3258,-4.2624,-4.1835,-4.1335,-4.1085,-2.6006,-2.6006,-2.5921,-2.615,-2.6467,-2.5854,-2.5879,-2.6332,-2.6677,-2.7139,-2.7734,-2.8981,-2.992,-3.0551,-3.0551,-2.9858,-2.8673,-2.8673,-2.7919,-2.6626,-2.6579,-2.6563,-2.6593,-2.6691,-2.6823,-2.6945,-2.7333,-2.7634,-2.7747,-2.8527,-2.8919,-2.8951,-2.9594,-2.9918,-2.9886,-2.9146,-2.9097,-2.9772,-2.9772,-2.9464,-2.8874,-2.8485,-2.8092,-2.771,-2.725,-2.7139,-2.7496,-2.7625,-2.7379,-2.6736,-2.6185,-2.5755,-2.5565,-2.507,-2.503,0.0,-2.578,0.0,0.0,0.0,0.0,0.0,0.0,0.0,0.0,-2.861,-2.9425,-3.0933,-3.1982,-3.3542,-3.5842,-3.6821,-3.7759,-3.8877,-3.9583,-4.0075,-4.0367,-4.1077,-4.1564,-4.1582,-4.2266,-4.2733,-4.2751,-4.3361,-4.3786,-4.374,-4.4158,-4.395,-4.2589,-4.2673,-4.3078,-4.2985,-4.3177,-4.3534,-4.3645,-4.4643,-4.5259,-4.4701,-4.4989,-4.5566,-4.5528,-4.5547,-4.5566,-4.5586,-4.5547,-4.5547,-4.5586,-4.5547,-4.5316,-4.4605,-4.4297,-4.3855,-4.2931,-4.22,-4.1797,-2.6638,-2.6582,-2.6104,-2.615,-2.6496,-2.6366,-2.6755,-2.748,-2.7545,-2.816,-2.9089,-2.9889,-3.0597,-3.1182,-3.1197,-3.0766,-3.0043,-3.0043,-2.9304,-2.798,-2.7612,-2.744,-2.7439,-2.7174,-2.7438,-2.8152,-2.827,-2.8672,-2.941,-2.9599,-2.9708,-2.9708,-2.9837,-2.9918,-2.9886,0.0,0.0,0.0,-2.8984,-2.9088,-2.919,-2.914,-2.9048,-2.8935,-2.8271,0.0,-2.7712,-2.8285,-2.8561,-2.8428,-2.8417,0.0,0.0,0.0,0.0,0.0,0.0,0.0,0.0,0.0,0.0,0.0,-2.934,-2.9733,-3.0042,-3.1818,-3.3239,-3.3935,-3.4786,-3.5857,-3.735,-3.7646,-3.8377,-3.9898,-4.0232,-4.0585,-4.1263,-4.2001,-4.244,-4.2458,-4.3098,-4.3564,-4.3545,-4.3777,-4.3883,-4.3947,-4.4421,-4.4613,-4.4247,-4.4567,-4.4957,-4.5033,-4.4916,-4.5066,-4.5105,-4.5355,-4.5528,-4.5393,-4.5432,-4.5586,-4.5586,-4.5586,-4.5586,-4.5586,-4.5586,-4.5603,-4.5586,-4.5586,-4.5565,-4.5393,-4.4778,-4.3855,-4.2374,-4.1931,-4.1636,-2.7284,0.0,-2.661,-2.6714,0.0,-2.6957,-2.7291,-2.8103,-2.789,-2.8434,-2.9427,-2.9766,-3.0289,-3.0905,-3.0905,-3.0587,-3.0123,-3.0088,-2.963,-2.8763,-2.8498,-2.8372,-2.8402,-2.8326,-2.8519,-2.9018,-2.9106,-2.9431,-2.9902,-2.9918,-2.9918,-2.9918,-2.9918,-2.9918,-2.9902,-2.9146,-2.8806,-2.8806,-2.8806,-2.9105,-2.9733,-2.9337,-2.9353,-2.9848,-2.9401,0.0,0.0,0.0,0.0,0.0,0.0,0.0,0.0,0.0,0.0,-2.8138,-2.8513,-2.8727,-2.8744,-2.9119,-2.9869,-3.1064,-3.2545,-3.3162,-3.2517,-3.3916,-3.52,-3.6106,-3.6916,-3.7871,-3.9017,-3.9472,-4.0067,-4.0903,-4.133,-4.1757,-4.2184,-4.2897,-4.3348,-4.3367,-4.3669,-4.3915,-4.3897,-4.3929,-4.3986,-4.4151,-4.4511,-4.4849,-4.5007,-4.5342,-4.5586,-4.5586,-4.5586,-4.5586,-4.5586,-4.5586,-4.5586,-4.5586,-4.5586,-4.5586,-4.5586,-4.5586,-4.5586,-4.5603,-4.5635,-4.5703,-4.5717,-4.5726,-4.5735,-4.5659,-4.5066,-4.4143,-4.2835,-4.2206,-4.1788,-2.8003,-2.805,-2.7357,-2.7578,-2.8379,-2.7817,-2.7946,-2.8532,0.0,0.0,0.0,-2.9243,-2.9612,-3.0243,-3.0294,-3.0103,-2.984,-2.9842,-2.9579,-2.9137,-2.9167,-2.9183,-2.9167,-2.9441,-2.956,-2.9576,-2.9814,-2.9918,-2.9918,-2.9918,-2.9918,-2.9918,-2.9918,-2.9918,-2.9886,-2.9361,-2.9053,-2.901,-2.8854,-2.9261,-3.0212,-2.9496,-2.9566,-3.0628,-3.0309,-3.0211,-3.0348,-3.0467,-3.0254,-2.9704,-2.9888,-2.9892,-2.9653,-2.9733,-3.0011,-3.0457,-3.0636,-3.0707,-3.0725,-3.0975,-3.1813,-3.3401,-3.5275,-3.6002,-3.4952,-3.5616,-3.6526,-3.7724,-3.8545,-3.9372,-4.0327,-4.1126,-4.1664,-4.1794,-4.2407,-4.2835,-4.3039,-4.3578,-4.3968,-4.4005,-4.3986,-4.4005,-4.4005,-4.4048,-4.4151,-4.4374,-4.4657,-4.4985,-4.5222,-4.5476,-4.5586,-4.5586,-4.5586,-4.5586,-4.5586,-4.5586,-4.5586,-4.5586,-4.5603,-4.5603,-4.5622,-4.564,-4.564,-4.564,-4.5715,-4.5785,-4.5796,-4.5852,-4.5893,-4.5885,-4.5125,-4.4261,-4.3539,-4.2524,-4.1753,-2.8788,-2.9145,-2.8512,-2.8744,-2.9576,-2.947,-2.9371,-2.9227,-2.8624,-2.8424,-2.8535,-2.855,-2.8904,-2.955,-2.9766,-2.9868,-2.9824,-2.9956,-2.9722,-2.9137,-2.9335,-2.9425,-2.947,-2.971,-2.9858,-2.9858,-2.9858,-2.9918,-2.9918,-2.9918,-2.9918,-2.9918,-2.9918,-2.9918,-2.9902,-3.0015,-3.0009,-2.9811,-2.9124,-2.919,-3.0015,-2.9867,-3.0259,-3.1173,-3.0617,-3.0335,-3.0499,-3.1123,-3.1469,-3.1381,-3.2036,-3.2107,-3.1399,-3.1346,-3.11,-3.06,-3.1153,-3.1528,-3.1564,-3.2813,-3.4258,-3.5721,-3.6221,-3.6432,-3.6522,-3.7172,-3.7929,-3.8596,-3.9374,-3.9963,-4.0391,-4.1181,-4.1962,-4.2519,-4.2723,-4.3058,-4.3689,-4.3912,-4.4005,-4.4005,-4.4005,-4.4005,-4.4005,-4.421,-4.4346,-4.4465,-4.4849,-4.5243,-4.5438,-4.5568,-4.5586,-4.5586,-4.5586,-4.5586,-4.5586,-4.5586,-4.5586,-4.5586,-4.564,-4.5673,-4.5673,-4.5651,-4.5687,-4.5767,-4.5796,-4.5834,-4.588,-4.589,-4.592,-4.5862,-4.4792,-4.3665,-4.347,-4.2286,-4.1216,-2.9729,-2.9882,-2.9493,-2.974,-3.0277,-3.0198,-3.0051,-2.9884,-2.9643,-2.9073,-2.8473,-2.8912,-2.935,-2.9661,-3.0266,-3.0635,-3.0766,-3.0482,-3.0273,-3.0046,-2.9814,-2.9726,-2.9726,-2.9858,-2.9918,-2.9918,-2.9918,-2.9918,-2.9918,-2.9918,-2.9918,-2.9918,-2.9918,-2.9973,-3.013,-3.0351,-3.0502,-3.0584,-2.9642,-2.9663,-3.0641,-3.0381,-3.0819,-3.1989,-3.1377,-3.1293,-3.1778,-3.1724,-3.1898,-3.2335,-3.2715,-3.2741,-3.2392,-3.2335,-3.2367,-3.2456,-3.2795,-3.3169,-3.3598,-3.4686,-3.565,-3.6345,-3.6792,-3.7254,-3.7624,-3.8002,-3.8565,-3.9369,-4.0295,-4.11,-4.1664,-4.2426,-4.3058,-4.341,-4.3448,-4.3596,-4.3912,-4.4005,-4.4005,-4.4005,-4.4005,-4.4005,-4.4005,-4.4221,-4.4465,-4.4624,-4.5074,-4.5476,-4.5566,-4.5586,-4.5586,-4.5586,-4.5586,-4.5586,-4.5586,-4.5586,-4.5622,-4.564,-4.5673,-4.569,-4.5687,-4.568,-4.5738,-4.58,-4.5862,-4.5921,-4.5996,-4.6085,-4.6105,-4.5972,-4.4747,-4.3767,-4.3408,-4.2286,-4.1208,-3.0372,-3.045,-3.044,-3.069,-3.1091,-3.0914,-3.0782,-3.0695,-3.0695,-3.0068,-2.9208,-2.9728,-3.0045,-3.0206,-3.0954,-3.1421,-3.1502,-3.1149,-3.1001,-3.1059,-3.0603,-3.0263,-3.0117,-3.0101,-3.008,-2.9935,-2.9918,-2.9918,-2.9918,-2.9918,-2.9918,-2.9918,-2.9946,-3.0087,-3.0293,-3.0625,-3.0868,-3.101,-3.0314,-3.0454,-3.1401,-3.0917,-3.1255,-3.2515,-3.2036,-3.2063,-3.2827,-3.2277,-3.2242,-3.2862,-3.2916,-3.2916,-3.2916,-3.2916,-3.3169,-3.3776,-3.4008,-3.4508,-3.5418,-3.6042,-3.6488,-3.6667,-3.7292,-3.7845,-3.8252,-3.8597,-3.9116,-4.0031,-4.1167,-4.2129,-4.2686,-4.3466,-4.4005,-4.4005,-4.4005,-4.3986,-4.4005,-4.4005,-4.4005,-4.4005,-4.4005,-4.4005,-4.4048,-4.425,-4.4538,-4.4872,-4.5302,-4.5586,-4.5586,-4.5603,-4.5603,-4.562,-4.564,-4.5622,-4.5622,-4.562,-4.5637,-4.569,-4.5706,-4.5722,-4.5715,-4.5731,-4.5789,-4.5847,-4.5938,-4.6033,-4.6138,-4.6205,-4.627,-4.6168,-4.5067,-4.3935,-4.3343,-4.2213,-4.1244,-3.0553,-3.097,-3.1362,-3.1804,-3.2219,-3.2198,-3.199,-3.1721,-3.1675,-3.1408,-3.0935,-3.0767,-3.0848,-3.1081,-3.1453,-3.1662,-3.1694,-3.1789,-3.1868,-3.1898,-3.185,-3.1461,-3.0817,-3.083,-3.049,-3.0032,-2.9999,-3.0032,-2.9983,-2.9918,-2.9918,-2.9962,-3.0156,-3.0267,-3.0393,-3.0942,-3.1157,-3.0998,-3.1359,-3.1699,-3.1951,-3.1324,-3.1561,-3.2798,-3.2117,-3.2081,-3.2862,-3.2844,-3.2795,-3.2916,-3.2916,-3.2916,-3.2916,-3.2916,-3.292,-3.308,-3.374,-3.474,-3.6096,-3.6363,-3.6738,-3.7417,-3.7738,-3.802,-3.8158,-3.9154,-3.9988,-4.0574,-4.1832,-4.2649,-4.2835,-4.354,-4.4005,-4.4005,-4.4005,-4.4005,-4.4005,-4.4005,-4.4005,-4.4005,-4.4005,-4.4005,-4.4036,-4.425,-4.4606,-4.5033,-4.5381,-4.5605,-4.5622,-4.564,-4.5671,-4.5668,-4.5687,-4.5693,-4.5693,-4.5687,-4.5684,-4.5719,-4.575,-4.5765,-4.5781,-4.581,-4.5844,-4.5993,-4.6044,-4.613,-4.6218,-4.6289,-4.6289,-4.6172,-4.5371,-4.4316,-4.293,-4.1816,-4.1269,-3.097,-3.1437,-3.1951,-3.2358,-3.2664,-3.2703,-3.2694,-3.2672,-3.2709,-3.2692,-3.2644,-3.2577,-3.2339,-3.2139,-3.2787,-3.3079,-3.3063,-3.2773,-3.2643,-3.2595,-3.2222,-3.185,-3.1607,-3.1558,-3.1396,-3.1154,-3.1137,-3.0911,-3.0474,-3.0069,-2.9918,-3.0011,-3.0625,-3.0865,-3.0667,-3.1426,-3.1798,-3.1785,-3.1896,-3.2179,-3.2468,-3.2036,-3.2119,-3.2709,-3.2117,-3.2081,-3.2755,-3.2438,-3.2402,-3.2862,-3.2916,-3.2916,-3.2916,-3.2916,-3.3327,-3.4204,-3.5471,-3.6417,-3.7059,-3.7095,-3.7238,-3.7577,-3.7863,-3.8233,-3.8925,-4.002,-4.1015,-4.1783,-4.2426,-4.2965,-4.3448,-4.3819,-4.4005,-4.4005,-4.4005,-4.4005,-4.4005,-4.4005,-4.4005,-4.4005,-4.4005,-4.4005,-4.4048,-4.4374,-4.4776,-4.514,-4.5438,-4.5605,-4.5661,-4.5676,-4.5684,-4.5708,-4.5746,-4.5754,-4.5703,-4.5684,-4.5715,-4.5765,-4.58,-4.5815,-4.5805,-4.5805,-4.5877,-4.6065,-4.6105,-4.6162,-4.6285,-4.6289,-4.6289,-4.6055,-4.5019,-4.3711,-4.2031,-4.1445,-4.123,-3.1263,-3.1724,-3.2231,-3.2633,-3.3005,-3.2912,-3.3112,-3.3414,-3.3414,-3.3539,-3.3797,-3.3797,-3.3574,-3.3205,-3.3824,-3.4101,-3.4036,-3.3582,-3.3356,-3.3307,-3.2805,-3.2481,-3.2336,-3.2287,-3.219,-3.2044,-3.1996,-3.172,-3.1202,-3.0733,-3.0547,-3.0745,-3.1523,-3.1791,-3.1688,-3.2411,-3.2706,-3.2564,-3.2564,-3.2648,-3.2773,-3.2588,-3.2606,-3.2798,-3.2331,-3.2295,-3.2862,-3.2313,-3.2277,-3.288,-3.2916,-3.2916,-3.2916,-3.2916,-3.358,-3.5114,-3.6488,-3.7362,-3.7559,-3.7577,-3.7577,-3.7613,-3.7933,-3.8513,-3.9546,-4.0643,-4.1706,-4.26,-4.3002,-4.3429,-4.3875,-4.4005,-4.4005,-4.4005,-4.4005,-4.4005,-4.4005,-4.4005,-4.4005,-4.4005,-4.4005,-4.4005,-4.4067,-4.4393,-4.4751,-4.5052,-4.5342,-4.5569,-4.568,-4.5712,-4.5735,-4.5728,-4.5786,-4.5776,-4.5731,-4.5727,-4.5746,-4.5781,-4.581,-4.581,-4.58,-4.58,-4.5877,-4.6054,-4.6095,-4.6152,-4.6269,-4.6289,-4.6074,-4.5703,-4.4726,-4.3262,-4.2031,-4.1484,-4.1211,-3.1248,-3.1739,-3.2231,-3.2742,-3.3256,-3.3005,-3.3203,-3.3658,-3.3694,-3.3848,-3.405,-3.405,-3.4018,-3.3969,-3.4068,-3.4101,-3.4084,-3.4036,-3.4003,-3.3987,-3.3939,-3.3631,-3.3064,-3.3016,-3.2692,-3.2222,-3.2222,-3.2093,-3.1963,-3.1882,-3.2069,-3.2323,-3.2713,-3.3102,-3.3376,-3.3904,-3.3897,-3.3331,-3.3495,-3.3385,-3.2798,-3.2841,-3.2959,-3.3009,-3.2862,-3.2844,-3.2898,-3.2848,-3.288,-3.2916,-3.2916,-3.2934,-3.2952,-3.3005,-3.374,-3.5114,-3.6042,-3.6827,-3.747,-3.7577,-3.7613,-3.7703,-3.8158,-3.8747,-3.9721,-4.0929,-4.2006,-4.2742,-4.3485,-4.3931,-4.3986,-4.4005,-4.4005,-4.4005,-4.4005,-4.4005,-4.4005,-4.4005,-4.4005,-4.4005,-4.4005,-4.4005,-4.4036,-4.4231,-4.4599,-4.4896,-4.518,-4.5419,-4.5661,-4.5761,-4.5781,-4.5786,-4.58,-4.5805,-4.5776,-4.5776,-4.5786,-4.5819,-4.5805,-4.58,-4.58,-4.5819,-4.5935,-4.6048,-4.6085,-4.6152,-4.625,-4.6094,-4.5723,-4.5195,-4.4316,-4.3066,-4.1914,-4.1543,-4.1269,-3.1552,-3.2484,-3.2796,-3.3134,-3.3293,-3.3346,-3.3571,-3.3694,-3.3899,-3.4,-3.4101,-3.4101,-3.4101,-3.4101,-3.4101,-3.4101,-3.4101,-3.4101,-3.4101,-3.4101,-3.4101,-3.3971,-3.3761,-3.3744,-3.3631,-3.3388,-3.334,-3.3113,-3.2659,-3.2255,-3.2166,-3.2615,-3.3361,-3.3802,-3.3898,-3.4421,-3.4613,-3.4356,-3.4286,-3.4235,-3.4212,-3.4331,-3.4383,-3.4311,-3.3384,-3.2916,-3.2916,-3.2916,-3.3126,-3.3669,-3.318,-3.3344,-3.427,-3.4863,-3.5346,-3.5953,-3.672,-3.7291,-3.7541,-3.7577,-3.7667,-3.7899,-3.8658,-3.9557,-4.0556,-4.1687,-4.2705,-4.3429,-4.3763,-4.3986,-4.4005,-4.4005,-4.4005,-4.4005,-4.4005,-4.4005,-4.4005,-4.4005,-4.4005,-4.4005,-4.4005,-4.4036,-4.4188,-4.4365,-4.465,-4.4985,-4.5243,-4.5495,-4.5712,-4.5789,-4.581,-4.5805,-4.58,-4.58,-4.5805,-4.5805,-4.58,-4.58,-4.58,-4.58,-4.58,-4.5877,-4.5988,-4.6061,-4.6113,-4.6172,-4.625,-4.5762,-4.5371,-4.4467,-4.3589,-4.2789,-4.1738,-4.1365,-4.1187,-3.2064,-3.2935,-3.315,-3.3309,-3.3539,-3.3658,-3.3761,-3.3848,-3.4,-3.4101,-3.4101,-3.4101,-3.4101,-3.4101,-3.4101,-3.4101,-3.4101,-3.4101,-3.4101,-3.4101,-3.4101,-3.4101,-3.4101,-3.4101,-3.4101,-3.4084,-3.4101,-3.3841,-3.342,-3.3079,-3.3055,-3.3458,-3.4347,-3.482,-3.4915,-3.5439,-3.5665,-3.5419,-3.5188,-3.5172,-3.5223,-3.5204,-3.5204,-3.5061,-3.4169,-3.3633,-3.3633,-3.3633,-3.3877,-3.4297,-3.3931,-3.4112,-3.5129,-3.597,-3.6399,-3.6488,-3.7148,-3.7577,-3.7577,-3.7577,-3.7829,-3.8363,-3.9125,-4.0134,-4.1406,-4.2341,-4.3138,-4.3782,-4.4005,-4.4005,-4.4005,-4.4005,-4.4005,-4.4005,-4.4005,-4.4005,-4.4005,-4.4005,-4.4036,-4.4097,-4.4097,-4.4177,-4.4325,-4.4477,-4.4739,-4.5074,-4.5302,-4.5495,-4.5738,-4.5815,-4.581,-4.58,-4.58,-4.58,-4.58,-4.58,-4.58,-4.58,-4.58,-4.58,-4.5819,-4.5896,-4.599,-4.608,-4.6144,-4.6209,-4.5971,-4.5488,-4.4742,-4.3872,-4.3127,-4.239,-4.1707,-4.1201,-4.1101,-3.2726,-3.3203,-3.2989,-3.3361,-3.3899,-3.3797,-3.3864,-3.4034,-3.4101,-3.4101,-3.4101,-3.4101,-3.4101,-3.4101,-3.4101,-3.4101,-3.4101,-3.4101,-3.4101,-3.4101,-3.4101,-3.4101,-3.4101,-3.4101,-3.4101,-3.4101,-3.4101,-3.4084,-3.4003,-3.4268,-3.462,-3.5128,-3.5566,-3.6036,-3.6615,-3.6812,-3.6814,-3.6342,-3.6256,-3.6043,-3.5346,-3.5418,-3.5435,-3.5382,-3.5275,-3.5221,-3.5221,-3.5132,-3.5059,-3.5196,-3.5129,-3.5186,-3.5364,-3.606,-3.647,-3.6613,-3.7184,-3.7541,-3.7577,-3.7613,-3.8026,-3.8974,-3.9467,-4.0482,-4.2004,-4.2674,-4.3225,-4.3838,-4.4005,-4.4005,-4.4005,-4.4005,-4.4005,-4.4005,-4.4005,-4.4005,-4.4005,-4.4005,-4.4067,-4.4255,-4.4285,-4.4373,-4.4458,-4.4524,-4.4726,-4.5094,-4.5243,-4.54,-4.5727,-4.5805,-4.58,-4.58,-4.58,-4.58,-4.58,-4.58,-4.58,-4.58,-4.58,-4.58,-4.5819,-4.5891,-4.6007,-4.6094,-4.6157,-4.6222,-4.6132,-4.5597,-4.472,-4.3872,-4.301,-4.2145,-4.1543,-4.1116,-4.1114,-3.2827,-3.3058,-3.3346,-3.345,-3.3591,-3.3848,-3.3949,-3.3848,-3.4,-3.4101,-3.4101,-3.4101,-3.4101,-3.4101,-3.4101,-3.4101,-3.4101,-3.4101,-3.4101,-3.4101,-3.4101,-3.4101,-3.4101,-3.4101,-3.4101,-3.4101,-3.4101,-3.4101,-3.4201,-3.4497,-3.4866,-3.5241,-3.5824,-3.6404,-3.6869,-3.7152,-3.7199,-3.7183,-3.7184,-3.7059,-3.6845,-3.6827,-3.6845,-3.6827,-3.6845,-3.6845,-3.6792,-3.581,-3.5488,-3.5982,-3.5484,-3.5432,-3.6023,-3.6791,-3.7202,-3.7238,-3.7416,-3.7577,-3.7577,-3.7649,-3.8151,-3.9293,-4.0029,-4.1101,-4.2482,-4.3237,-4.3689,-4.3986,-4.4005,-4.4005,-4.4005,-4.4005,-4.4005,-4.4005,-4.4005,-4.4005,-4.4055,-4.4128,-4.4285,-4.4401,-4.443,-4.4515,-4.4605,-4.4632,-4.4827,-4.5201,-4.5322,-4.5475,-4.5708,-4.58,-4.58,-4.58,-4.58,-4.58,-4.58,-4.58,-4.58,-4.58,-4.58,-4.58,-4.5819,-4.588,-4.5991,-4.6049,-4.6132,-4.6072,-4.6005,-4.5386,-4.4377,-4.3732,-4.2868,-4.2084,-4.1361,-4.1108,-4.1108,-3.2773,-3.2951,-3.3346,-3.3503,-3.3503,-3.3949,-3.4,-3.3915,-3.4034,-3.4101,-3.4101,-3.4101,-3.4101,-3.4101,-3.4101,-3.4101,-3.4101,-3.4101,-3.4101,-3.4101,-3.4101,-3.4101,-3.4101,-3.4101,-3.4101,-3.4101,-3.4101,-3.4201,-3.4349,-3.4739,-3.5085,-3.5588,-3.6122,-3.6643,-3.7105,-3.7303,-3.7487,-3.7577,-3.7577,-3.7577,-3.7577,-3.7577,-3.7577,-3.7577,-3.7577,-3.7577,-3.7505,-3.6595,-3.6309,-3.6683,-3.6343,-3.6362,-3.6845,-3.7327,-3.7577,-3.7577,-3.7577,-3.7577,-3.7577,-3.7631,-3.8348,-3.974,-4.0518,-4.1559,-4.2897,-4.3782,-4.3986,-4.4005,-4.4005,-4.4005,-4.4005,-4.4085,-4.4116,-4.4116,-4.4036,-4.4036,-4.4116,-4.4266,-4.4411,-4.4542,-4.4578,-4.4659,-4.4719,-4.477,-4.49,-4.5239,-4.5361,-4.5456,-4.5661,-4.5771,-4.58,-4.58,-4.58,-4.58,-4.58,-4.58,-4.58,-4.58,-4.58,-4.58,-4.5819,-4.5893,-4.598,-4.5936,-4.5969,-4.5604,-4.546,-4.4426,-4.3453,-4.3001,-4.2611,-4.183,-4.1108,-4.1108,-4.1108,-3.2633,-3.2897,-3.3203,-3.3503,-3.371,-3.4,-3.4101,-3.4101,-3.4101,-3.4101,-3.4101,-3.4101,-3.4101,-3.4101,-3.4101,-3.4101,-3.4101,-3.4101,-3.4101,-3.4101,-3.4101,-3.4101,-3.4101,-3.4101,-3.4101,-3.4101,-3.4101,-3.43,-3.4659,-3.5008,-3.5498,-3.5985,-3.6554,-3.7071,-3.7238,-3.7466,-3.7559,-3.7577,-3.7577,-3.7577,-3.7577,-3.7577,-3.7577,-3.7577,-3.7577,-3.7577,-3.7541,-3.7416,-3.7434,-3.7595,-3.7434,-3.7399,-3.7559,-3.7577,-3.7577,-3.7577,-3.7577,-3.7613,-3.7613,-3.7828,-3.8671,-4.0477,-4.1003,-4.1708,-4.354,-4.3931,-4.4036,-4.4036,-4.4055,-4.4036,-4.4097,-4.4207,-4.4266,-4.4285,-4.4177,-4.4158,-4.4296,-4.4458,-4.4551,-4.4685,-4.4712,-4.4745,-4.487,-4.487,-4.4991,-4.5173,-4.5321,-4.5456,-4.5596,-4.5727,-4.5786,-4.58,-4.58,-4.58,-4.58,-4.58,-4.58,-4.58,-4.58,-4.5814,-4.5835,-4.5917,-4.6017,-4.5948,-4.5605,-4.5224,-4.4777,-4.3957,-4.3157,-4.2669,-4.2123,-4.1381,-4.1108,-4.1108,-4.1108,-3.2843,-3.2966,-3.3398,-3.3658,-3.3745,-3.4,-3.4101,-3.4101,-3.4101,-3.4101,-3.4101,-3.4101,-3.4101,-3.4101,-3.4101,-3.4101,-3.4101,-3.4101,-3.4101,-3.4101,-3.4101,-3.4101,-3.4101,-3.4101,-3.4101,-3.4101,-3.4151,-3.4284,-3.4691,-3.5055,-3.5498,-3.5898,-3.6626,-3.7023,-3.7087,-3.7429,-3.7577,-3.7577,-3.7577,-3.7577,-3.7577,-3.7577,-3.7577,-3.7577,-3.7577,-3.7577,-3.7577,-3.7577,-3.7577,-3.7577,-3.7577,-3.7577,-3.7577,-3.7577,-3.7577,-3.7577,-3.7613,-3.7685,-3.7971,-3.8384,-3.9474,-4.0895,-4.1519,-4.2537,-4.3812,-4.4005,-4.4067,-4.4177,-4.4207,-4.4266,-4.4354,-4.4411,-4.4477,-4.443,-4.4383,-4.4411,-4.4551,-4.4632,-4.4712,-4.4815,-4.4821,-4.4846,-4.487,-4.4895,-4.4986,-4.5151,-4.53,-4.5438,-4.5563,-4.5696,-4.5771,-4.58,-4.58,-4.58,-4.58,-4.58,-4.58,-4.58,-4.5814,-4.5794,-4.5879,-4.5959,-4.6059,-4.6114,-4.5293,-4.4789,-4.4624,-4.4153,-4.3372,-4.224,-4.2064,-4.1576,-4.1225,-4.1108,-4.1108,-3.2951,-3.3096,-3.3487,-3.3694,-3.3745,-3.4,-3.4101,-3.4101,-3.4101,-3.4101,-3.4101,-3.4101,-3.4101,-3.4101,-3.4101,-3.4101,-3.4101,-3.4101,-3.4101,-3.4101,-3.4101,-3.4101,-3.4101,-3.4101,-3.4101,-3.4151,-3.43,-3.4594,-3.4913,-3.5287,-3.5766,-3.6284,-3.6771,-3.7048,-3.7279,-3.7466,-3.7577,-3.7577,-3.7577,-3.7577,-3.7577,-3.7577,-3.7577,-3.7577,-3.7577,-3.7577,-3.7577,-3.7577,-3.7577,-3.7577,-3.7577,-3.7577,-3.7577,-3.7577,-3.7577,-3.7577,-3.7613,-3.7721,-3.8021,-3.8487,-3.9467,-4.085,-4.1724,-4.2673,-4.3769,-4.417,-4.4279,-4.4354,-4.4373,-4.443,-4.4487,-4.457,-4.4605,-4.464,-4.4659,-4.4685,-4.4712,-4.4764,-4.4796,-4.487,-4.4895,-4.4895,-4.4895,-4.4895,-4.4943,-4.5061,-4.5194,-4.5341,-4.5493,-4.5629,-4.5757,-4.5786,-4.58,-4.5814,-4.5814,-4.5814,-4.5854,-4.5841,-4.5893,-4.5861,-4.5925,-4.6005,-4.6098,-4.5941,-4.5078,-4.4418,-4.4257,-4.3743,-4.2454,-4.1752,-4.1849,-4.1752,-4.1303,-4.1108,-4.1108,-3.3112,-3.3346,-3.3658,-3.3761,-3.3797,-3.4,-3.4101,-3.4101,-3.4101,-3.4101,-3.4101,-3.4101,-3.4101,-3.4101,-3.4101,-3.4101,-3.4101,-3.4101,-3.4101,-3.4101,-3.4101,-3.4101,-3.4101,-3.4101,-3.4101,-3.4151,-3.4497,-3.4787,-3.5102,-3.5543,-3.6156,-3.6632,-3.6891,-3.7203,-3.7447,-3.7594,-3.7577,-3.7577,-3.7577,-3.7577,-3.7577,-3.7577,-3.7577,-3.7577,-3.7577,-3.7577,-3.7577,-3.7577,-3.7577,-3.7577,-3.7577,-3.7577,-3.7577,-3.7577,-3.7577,-3.7577,-3.7631,-3.7757,-3.8182,-3.8504,-3.9286,-4.108,-4.1687,-4.2359,-4.3882,-4.4383,-4.4476,-4.4542,-4.4515,-4.4542,-4.4597,-4.4659,-4.4745,-4.4821,-4.487,-4.4821,-4.4789,-4.4821,-4.4895,-4.4895,-4.4895,-4.4895,-4.4895,-4.4895,-4.4895,-4.4967,-4.5129,-4.53,-4.5419,-4.5563,-4.5692,-4.58,-4.5814,-4.5814,-4.5794,-4.5808,-4.5848,-4.5886,-4.5975,-4.5997,-4.5998,-4.6049,-4.6108,-4.5824,-4.5176,-4.4464,-4.3863,-4.2942,-4.181,-4.1303,-4.1459,-4.1322,-4.1108,-4.1108,-4.1108,-3.3555,-3.3642,-3.3915,-3.4,-3.4034,-3.4034,-3.4101,-3.4101,-3.4101,-3.4101,-3.4101,-3.4101,-3.4101,-3.4101,-3.4101,-3.4101,-3.4101,-3.4101,-3.4101,-3.4101,-3.4101,-3.4101,-3.4101,-3.4101,-3.4101,-3.4201,-3.4497,-3.4739,-3.4991,-3.5616,-3.6097,-3.635,-3.693,-3.7259,-3.7372,-3.754,-3.7577,-3.7577,-3.7577,-3.7577,-3.7577,-3.7577,-3.7577,-3.7577,-3.7577,-3.7577,-3.7577,-3.7577,-3.7577,-3.7577,-3.7577,-3.7577,-3.7577,-3.7577,-3.7612,-3.7684,-3.7702,-3.8115,-3.9057,-3.9621,-4.0557,-4.2044,-4.2735,-4.3535,-4.4117,-4.4421,-4.4557,-4.464,-4.4659,-4.4712,-4.477,-4.484,-4.4846,-4.4895,-4.4895,-4.487,-4.487,-4.4889,-4.4895,-4.4895,-4.4895,-4.4895,-4.4895,-4.4895,-4.4895,-4.4919,-4.5061,-4.5256,-4.5361,-4.5493,-4.5613,-4.5757,-4.5827,-4.5822,-4.5867,-4.5873,-4.5922,-4.5956,-4.6027,-4.6084,-4.6083,-4.6076,-4.6128,-4.5857,-4.5369,-4.4666,-4.4006,-4.2982,-4.2006,-4.1557,-4.1147,-4.1108,-4.1108,-4.1108,-4.1108,-3.3761,-3.3899,-3.4034,-3.4101,-3.4101,-3.4101,-3.4101,-3.4101,-3.4101,-3.4101,-3.4101,-3.4101,-3.4101,-3.4101,-3.4101,-3.4101,-3.4101,-3.4101,-3.4101,-3.4101,-3.4101,-3.4101,-3.4101,-3.4101,-3.4101,-3.4201,-3.4785,-3.5052,-3.5283,-3.5793,-3.6367,-3.6615,-3.693,-3.7164,-3.741,-3.7558,-3.7577,-3.7577,-3.7577,-3.7577,-3.7577,-3.7577,-3.7577,-3.7577,-3.7577,-3.7577,-3.7577,-3.7577,-3.7792,-3.7953,-3.7809,-3.7594,-3.7577,-3.7594,-3.7755,-3.8112,-3.8165,-3.8726,-3.9733,-4.038,-4.1115,-4.2525,-4.313,-4.3735,-4.4195,-4.4541,-4.4655,-4.477,-4.4796,-4.484,-4.4895,-4.4895,-4.4895,-4.4895,-4.4895,-4.4895,-4.4895,-4.4895,-4.4895,-4.4895,-4.4895,-4.4895,-4.4895,-4.4895,-4.4895,-4.4895,-4.4938,-4.5125,-4.5258,-4.54,-4.5528,-4.5661,-4.578,-4.5848,-4.5905,-4.5953,-4.6007,-4.6047,-4.6102,-4.6119,-4.6135,-4.6144,-4.6137,-4.5835,-4.5526,-4.5058,-4.4343,-4.3283,-4.2415,-4.1986,-4.1615,-4.1322,-4.1108,-4.1108,-4.1108,-3.3899,-3.4101,-3.4101,-3.4101,-3.4101,-3.4101,-3.4101,-3.4101,-3.4101,-3.4101,-3.4101,-3.4101,-3.4101,-3.4101,-3.4101,-3.4101,-3.4101,-3.4101,-3.4101,-3.4101,-3.4101,-3.4101,-3.4101,-3.4101,-3.4151,-3.4234,-3.4911,-3.5311,-3.5537,-3.6054,-3.6574,-3.7031,-3.6952,-3.7147,-3.7503,-3.7594,-3.7577,-3.7577,-3.7577,-3.7577,-3.7577,-3.7577,-3.7577,-3.7577,-3.7577,-3.7719,-3.7863,-3.7934,-3.8168,-3.8851,-3.8203,-3.7881,-3.7756,-3.763,-3.7951,-3.8701,-3.8701,-3.9315,-4.0329,-4.0853,-4.1426,-4.2459,-4.2965,-4.3577,-4.4299,-4.4632,-4.477,-4.4846,-4.487,-4.487,-4.4895,-4.4895,-4.4895,-4.4895,-4.4895,-4.4895,-4.4895,-4.4895,-4.4895,-4.4895,-4.4895,-4.4895,-4.4895,-4.4895,-4.4895,-4.4895,-4.4914,-4.4986,-4.5173,-4.5321,-4.5493,-4.5658,-4.5808,-4.5922,-4.5975,-4.6047,-4.6093,-4.6102,-4.6154,-4.6162,-4.6176,-4.6183,-4.6137,-4.603,-4.572,-4.5272,-4.4679,-4.371,-4.2982,-4.2494,-4.1849,-4.1264,-4.1108,-4.1108,-4.1104,-3.405,-3.4101,-3.4101,-3.4101,-3.4101,-3.4101,-3.4101,-3.4101,-3.4101,-3.4101,-3.4101,-3.4101,-3.4101,-3.4101,-3.4101,-3.4101,-3.4101,-3.4101,-3.4101,-3.4101,-3.4101,-3.4101,-3.4101,-3.4151,-3.425,-3.4399,-3.4802,-3.5085,-3.5464,-3.6079,-3.6597,-3.686,-3.715,-3.7449,-3.754,-3.7577,-3.7577,-3.7577,-3.7577,-3.7577,-3.7577,-3.7577,-3.7577,-3.7612,-3.7666,-3.7969,-3.8452,-3.8616,-3.8923,-3.9535,-3.8988,-3.8683,-3.8525,-3.8114,-3.8183,-3.8701,-3.9022,-3.9743,-4.1049,-4.1468,-4.2176,-4.3088,-4.3621,-4.393,-4.4421,-4.4693,-4.4821,-4.487,-4.4895,-4.4895,-4.4895,-4.4895,-4.4895,-4.4895,-4.4895,-4.4895,-4.4895,-4.4895,-4.4895,-4.4895,-4.4895,-4.4895,-4.4895,-4.4895,-4.4895,-4.4895,-4.4895,-4.5038,-4.5237,-4.5381,-4.5528,-4.5708,-4.5873,-4.5975,-4.6066,-4.613,-4.6181,-4.6154,-4.6189,-4.6189,-4.6196,-4.6196,-4.6156,-4.6072,-4.5953,-4.5664,-4.4936,-4.4022,-4.3255,-4.2552,-4.1849,-4.1127,-4.1104,-4.1117,-4.1085,-3.4101,-3.4101,-3.4101,-3.4101,-3.4101,-3.4101,-3.4101,-3.4101,-3.4101,-3.4101,-3.4101,-3.4101,-3.4101,-3.4101,-3.4101,-3.4101,-3.4101,-3.4101,-3.4101,-3.4101,-3.4101,-3.4101,-3.4101,-3.4201,-3.4267,-3.4349,-3.4594,-3.4913,-3.5311,-3.602,-3.6539,-3.6821,-3.7111,-3.7319,-3.754,-3.7577,-3.7577,-3.7577,-3.7577,-3.7577,-3.7577,-3.7577,-3.7577,-3.7666,-3.8005,-3.8415,-3.8719,-3.9238,-3.9727,-4.0213,-3.98,-3.9658,-3.9595,-3.933,-3.895,-3.9361,-3.9736,-4.0471,-4.1764,-4.2283,-4.2883,-4.3364,-4.3931,-4.4327,-4.456,-4.4719,-4.484,-4.487,-4.4895,-4.4895,-4.4895,-4.4895,-4.4895,-4.4895,-4.4895,-4.4895,-4.4895,-4.4895,-4.4895,-4.4895,-4.4895,-4.4895,-4.4895,-4.4895,-4.4895,-4.4895,-4.4895,-4.5065,-4.5281,-4.5438,-4.5582,-4.5723,-4.5905,-4.6007,-4.6093,-4.6154,-4.6196,-4.6196,-4.6196,-4.6196,-4.6196,-4.6196,-4.6211,-4.6178,-4.6032,-4.5742,-4.5091,-4.4153,-4.3372,-4.2552,-4.1791,-4.1182,-4.1133,-4.1105,-4.1086,-3.4101,-3.4101,-3.4101,-3.4101,-3.4101,-3.4101,-3.4101,-3.4101,-3.4101,-3.4101,-3.4101,-3.4101,-3.4101,-3.4101,-3.4101,-3.4101,-3.4101,-3.4101,-3.4101,-3.4101,-3.4101,-3.4101,-3.4101,-3.4151,-3.4201,-3.43,-3.4448,-3.4818,-3.5374,-3.5977,-3.644,-3.6821,-3.6978,-3.7188,-3.7522,-3.7577,-3.7577,-3.7577,-3.7577,-3.7577,-3.7577,-3.7577,-3.7702,-3.7826,-3.8469,-3.8897,-3.945,-3.9881,-4.0545,-4.0864,-4.0686,-4.0428,-4.0846,-4.0488,-4.0164,-4.0253,-4.0788,-4.1506,-4.2282,-4.2885,-4.3263,-4.3542,-4.4121,-4.4477,-4.4659,-4.4719,-4.4815,-4.487,-4.4895,-4.4895,-4.4895,-4.4895,-4.4895,-4.4895,-4.4895,-4.4895,-4.4895,-4.4895,-4.4895,-4.4895,-4.4895,-4.4895,-4.4895,-4.4895,-4.4895,-4.4943,-4.4943,-4.5109,-4.5321,-4.5457,-4.5599,-4.5737,-4.5886,-4.6027,-4.6102,-4.6154,-4.6196,-4.6196,-4.6196,-4.6196,-4.6196,-4.6196,-4.6143,-4.5961,-4.5753,-4.5408,-4.4838,-4.4169,-4.3193,-4.2311,-4.1612,-4.1211,-4.1115,-4.1056,-4.1039,-3.4101,-3.4101,-3.4101,-3.4101,-3.4101,-3.4101,-3.4101,-3.4101,-3.4101,-3.4101,-3.4101,-3.4101,-3.4101,-3.4101,-3.4101,-3.4101,-3.4101,-3.4101,-3.4101,-3.4101,-3.4182,-3.4182,-3.4101,-3.4234,-3.4283,-3.4316,-3.4448,-3.4849,-3.5396,-3.5975,-3.6399,-3.6821,-3.7243,-3.754,-3.7577,-3.7577,-3.7577,-3.7577,-3.7577,-3.7577,-3.7577,-3.7594,-3.7951,-3.8451,-3.8843,-3.9414,-4.0378,-4.0849,-4.1318,-4.1823,-4.1362,-4.1073,-4.1096,-4.1052,-4.0967,-4.0967,-4.1167,-4.155,-4.2451,-4.3014,-4.3389,-4.3675,-4.4229,-4.4505,-4.4712,-4.4796,-4.487,-4.487,-4.4895,-4.4895,-4.4895,-4.4895,-4.4895,-4.4895,-4.4895,-4.4895,-4.4895,-4.4895,-4.4895,-4.4895,-4.4895,-4.4895,-4.4895,-4.4895,-4.4895,-4.4967,-4.5057,-4.5194,-4.5361,-4.553,-4.568,-4.5822,-4.5941,-4.6066,-4.6111,-4.6162,-4.6196,-4.6196,-4.6196,-4.6196,-4.6196,-4.6131,-4.5704,-4.5522,-4.5316,-4.494,-4.4323,-4.3599,-4.2795,-4.2108,-4.1456,-4.1184,-4.1045,-4.102,-4.1006,-3.4101,-3.4101,-3.4101,-3.4101,-3.4101,-3.4101,-3.4101,-3.4101,-3.4101,-3.4101,-3.4101,-3.4101,-3.4101,-3.4101,-3.4101,-3.4101,-3.4101,-3.4133,-3.4101,-3.4295,-3.4489,-3.4505,-3.4279,-3.4507,-3.4672,-3.4431,-3.4513,-3.4955,-3.5512,-3.598,-3.6291,-3.6597,-3.7206,-3.7577,-3.7577,-3.7577,-3.7577,-3.7577,-3.7577,-3.7577,-3.7577,-3.7648,-3.7987,-3.879,-3.9218,-4.0057,-4.0877,-4.1614,-4.1886,-4.2234,-4.1907,-4.1777,-4.1777,-4.1765,-4.177,-4.177,-4.177,-4.2029,-4.244,-4.2995,-4.3406,-4.3754,-4.4221,-4.464,-4.4789,-4.4865,-4.4895,-4.4895,-4.4895,-4.4895,-4.4895,-4.4895,-4.4895,-4.4895,-4.4895,-4.4895,-4.4895,-4.4895,-4.4895,-4.4895,-4.4895,-4.4895,-4.4895,-4.4895,-4.4895,-4.4919,-4.5038,-4.5175,-4.5419,-4.5645,-4.5794,-4.5941,-4.6026,-4.6093,-4.6111,-4.6154,-4.6196,-4.6196,-4.6196,-4.6196,-4.6196,-4.6021,-4.5631,-4.5051,-4.4618,-4.4199,-4.3704,-4.308,-4.2314,-4.1798,-4.1334,-4.1156,-4.1013,-4.0999,-4.0996,-3.4101,-3.4101,-3.4101,-3.4101,-3.4101,-3.4101,-3.4101,-3.4101,-3.4101,-3.4101,-3.4101,-3.4101,-3.4101,-3.4101,-3.4117,-3.4214,-3.4408,-3.4376,-3.4522,-3.4797,-3.5088,-3.5153,-3.4991,-3.5172,-3.5031,-3.4561,-3.453,-3.5119,-3.5816,-3.6288,-3.6509,-3.6508,-3.7574,-3.7754,-3.7612,-3.7577,-3.7577,-3.7577,-3.7577,-3.7577,-3.7612,-3.7844,-3.838,-3.9075,-3.9825,-4.0592,-4.1359,-4.1877,-4.2234,-4.2269,-4.2251,-4.218,-4.2198,-4.218,-4.2221,-4.2221,-4.2279,-4.2342,-4.2655,-4.3087,-4.3419,-4.3844,-4.427,-4.477,-4.4846,-4.4895,-4.4895,-4.4895,-4.4895,-4.4895,-4.4895,-4.4895,-4.4895,-4.4895,-4.4895,-4.4895,-4.4895,-4.4895,-4.4895,-4.4895,-4.4895,-4.4895,-4.4895,-4.4895,-4.4895,-4.4919,-4.5019,-4.5178,-4.5436,-4.5747,-4.5879,-4.6017,-4.6066,-4.613,-4.6146,-4.6162,-4.6196,-4.6196,-4.6196,-4.6196,-4.6196,-4.5988,-4.5636,-4.4956,-4.4095,-4.3279,-4.2674,-4.2275,-4.1891,-4.1479,-4.1136,-4.1077,-4.0996,-4.0988,-4.098,-3.4101,-3.4101,-3.4101,-3.4101,-3.4101,-3.4101,-3.4101,-3.4101,-3.4101,-3.4101,-3.4101,-3.4101,-3.4101,-3.4101,-3.4165,-3.4441,-3.5056,-3.5104,-3.5396,-3.5817,-3.6189,-3.6092,-3.5918,-3.5646,-3.5473,-3.5279,-3.5136,-3.5578,-3.6387,-3.72,-3.7256,-3.7387,-3.8298,-3.8142,-3.8005,-3.8005,-3.7969,-3.7951,-3.7933,-3.7862,-3.8023,-3.8397,-3.9093,-3.9807,-4.0592,-4.1377,-4.2144,-4.2251,-4.2287,-4.2287,-4.2287,-4.2287,-4.2287,-4.2287,-4.2346,-4.2387,-4.2463,-4.257,-4.2902,-4.3177,-4.3572,-4.4016,-4.4457,-4.487,-4.4895,-4.4895,-4.4895,-4.4895,-4.4895,-4.4895,-4.4895,-4.4895,-4.4895,-4.4895,-4.4895,-4.4895,-4.4895,-4.4895,-4.4895,-4.4895,-4.4895,-4.4895,-4.4895,-4.4895,-4.4895,-4.4895,-4.518,-4.5362,-4.5603,-4.5866,-4.5958,-4.6046,-4.6093,-4.6138,-4.6189,-4.6196,-4.6196,-4.6196,-4.6196,-4.6203,-4.6203,-4.5903,-4.5449,-4.4521,-4.3574,-4.2605,-4.1788,-4.1613,-4.1409,-4.1162,-4.0976,-4.096,-4.0952,-4.0935,-4.0926,-3.4101,-3.4101,-3.4101,-3.4101,-3.4101,-3.4101,-3.4101,-3.4101,-3.4101,-3.4101,-3.4101,-3.4101,-3.4101,-3.4101,-3.4149,-3.4505,-3.5104,-3.5169,-3.5704,-3.6254,-3.6627,-3.6643,-3.6502,-3.6543,-3.6551,-3.6231,-3.6056,-3.6671,-3.7959,-3.8322,-3.8884,-3.9241,-3.9461,-3.9281,-3.9093,-3.8861,-3.8915,-3.8933,-3.895,-3.8986,-3.9075,-3.9272,-3.9843,-4.061,-4.0806,-4.1502,-4.2144,-4.2269,-4.2287,-4.2287,-4.2287,-4.2287,-4.2287,-4.2287,-4.2328,-4.2387,-4.2445,-4.2688,-4.3032,-4.3334,-4.3735,-4.4336,-4.4726,-4.4895,-4.4895,-4.4895,-4.4895,-4.4895,-4.4895,-4.4895,-4.4895,-4.4895,-4.4895,-4.4895,-4.4895,-4.4895,-4.4895,-4.4895,-4.4895,-4.4895,-4.4895,-4.4895,-4.4895,-4.4895,-4.4895,-4.4919,-4.5243,-4.556,-4.5769,-4.5936,-4.6027,-4.6091,-4.6119,-4.6146,-4.6196,-4.6196,-4.6196,-4.6196,-4.6196,-4.6112,-4.6008,-4.5479,-4.4923,-4.3983,-4.3118,-4.2268,-4.1621,-4.1227,-4.1018,-4.0996,-4.0952,-4.0926,-4.0917,-4.0888,-4.0888,-3.4,-3.4,-3.4,-3.4,-3.4101,-3.4101,-3.4101,-3.4101,-3.4101,-3.4101,-3.4101,-3.4101,-3.4101,-3.4133,-3.4392,-3.4862,-3.5509,-3.5849,-3.6335,-3.6902,-3.7371,-3.7307,-3.727,-3.7232,-3.7278,-3.7072,-3.7032,-3.7603,-3.899,-3.952,-4.0078,-4.0539,-4.0717,-4.0463,-3.9825,-3.9914,-3.9914,-3.9896,-3.9896,-3.9896,-3.986,-4.0164,-4.0396,-4.1074,-4.1324,-4.1716,-4.2162,-4.2287,-4.2287,-4.2287,-4.2287,-4.2287,-4.2287,-4.2287,-4.2346,-4.2387,-4.2486,-4.2649,-4.3032,-4.3539,-4.4016,-4.4629,-4.4796,-4.4895,-4.4895,-4.4895,-4.4895,-4.4895,-4.4895,-4.4895,-4.4895,-4.4895,-4.4895,-4.4895,-4.4895,-4.4895,-4.4895,-4.4895,-4.4895,-4.4895,-4.4895,-4.4919,-4.4995,-4.5,-4.5118,-4.5182,-4.5435,-4.5699,-4.5891,-4.6027,-4.6065,-4.6127,-4.6162,-4.6189,-4.6196,-4.6196,-4.6196,-4.6196,-4.6144,-4.5916,-4.5665,-4.5148,-4.4332,-4.3297,-4.251,-4.1914,-4.1468,-4.1089,-4.0988,-4.0952,-4.0935,-4.0917,-4.0907,-4.0888,-4.0888,-3.3694,-3.3694,-3.3761,-3.3899,-3.4101,-3.4101,-3.4101,-3.4117,-3.4182,-3.423,-3.4327,-3.4311,-3.4295,-3.4408,-3.4878,-3.5461,-3.6206,-3.6772,-3.7355,-3.7906,-3.8124,-3.8342,-3.8241,-3.8025,-3.7941,-3.7821,-3.7798,-3.8304,-3.9721,-3.9836,-4.0691,-4.1623,-4.1765,-4.1377,-4.0075,-3.995,-3.995,-3.995,-4.0075,-4.0164,-4.0342,-4.0824,-4.1127,-4.1377,-4.1787,-4.2144,-4.2234,-4.2287,-4.2287,-4.2287,-4.2287,-4.2287,-4.2287,-4.2287,-4.2346,-4.2445,-4.2503,-4.2727,-4.3105,-4.3831,-4.4402,-4.4777,-4.4895,-4.4895,-4.4895,-4.4895,-4.4895,-4.4895,-4.4895,-4.4895,-4.4895,-4.4895,-4.4895,-4.4895,-4.4895,-4.4895,-4.4895,-4.4895,-4.4895,-4.4895,-4.4895,-4.4943,-4.5045,-4.5159,-4.5323,-4.5468,-4.5665,-4.5847,-4.6027,-4.6093,-4.6138,-4.6154,-4.6189,-4.6196,-4.6196,-4.6196,-4.6196,-4.6196,-4.6092,-4.5864,-4.5414,-4.4835,-4.3886,-4.2711,-4.2061,-4.1563,-4.126,-4.0963,-4.0935,-4.0935,-4.0926,-4.0907,-4.0888,-4.0888,-4.0888,-3.3694,-3.3694,-3.3899,-3.4,-3.4101,-3.4101,-3.4101,-3.4182,-3.4603,-3.5072,-3.5493,-3.5558,-3.5558,-3.5558,-3.5331,-3.5849,-3.6805,-3.6546,-3.7145,-3.8311,-3.8464,-3.856,-3.8541,-3.8559,-3.8574,-3.8611,-3.8593,-3.9009,-4.044,-4.0319,-4.1051,-4.2008,-4.2251,-4.2002,-4.1627,-4.1502,-4.1502,-4.1502,-4.152,-4.1502,-4.1502,-4.1698,-4.1841,-4.1841,-4.2162,-4.2287,-4.2287,-4.2287,-4.2287,-4.2287,-4.2287,-4.2287,-4.2287,-4.2287,-4.2346,-4.2427,-4.2468,-4.2957,-4.3539,-4.426,-4.4707,-4.487,-4.4895,-4.4895,-4.4895,-4.4895,-4.4895,-4.4895,-4.4895,-4.4895,-4.4895,-4.4895,-4.4895,-4.4895,-4.4895,-4.4895,-4.4895,-4.4895,-4.4895,-4.4895,-4.4895,-4.4962,-4.5061,-4.5285,-4.5466,-4.5596,-4.5757,-4.5936,-4.6111,-4.6146,-4.6189,-4.6189,-4.6196,-4.6196,-4.6196,-4.6196,-4.6079,-4.5981,-4.5943,-4.583,-4.5285,-4.4374,-4.3507,-4.2353,-4.1799,-4.1285,-4.1081,-4.0926,-4.0917,-4.0888,-4.0888,-4.0888,-4.0888,-4.0888,-4.0888,-3.3555,-3.3607,-3.3848,-3.4,-3.4101,-3.4101,-3.4214,-3.4522,-3.4991,-3.5606,-3.6173,-3.6287,-3.6254,-3.6108,-3.5946,-3.6108,-3.7209,-3.695,-3.7161,-3.8311,-3.8448,-3.856,-3.8655,-3.8821,-3.8832,-3.904,-3.9309,-3.9782,-4.0668,-4.0784,-4.1356,-4.2044,-4.2287,-4.2216,-4.2162,-4.2144,-4.2162,-4.2109,-4.2073,-4.2109,-4.2144,-4.2234,-4.2234,-4.2234,-4.2287,-4.2287,-4.2287,-4.2287,-4.2287,-4.2287,-4.2287,-4.2287,-4.2287,-4.2346,-4.2346,-4.2427,-4.2691,-4.3195,-4.3943,-4.4318,-4.4655,-4.4889,-4.4895,-4.4895,-4.4895,-4.4895,-4.4895,-4.4895,-4.4895,-4.4895,-4.4895,-4.4895,-4.4895,-4.4895,-4.4895,-4.4895,-4.4895,-4.4895,-4.4895,-4.4895,-4.4943,-4.501,-4.5084,-4.5361,-4.5626,-4.5725,-4.5832,-4.6027,-4.6181,-4.6189,-4.6196,-4.6196,-4.6196,-4.6196,-4.6196,-4.6196,-4.604,-4.5787,-4.5696,-4.565,-4.4308,-4.3259,-4.2627,-4.2089,-4.1509,-4.1072,-4.0994,-4.0888,-4.0888,-4.0888,-4.0888,-4.0888,-4.0888,-4.0907,-4.0907,-3.3309,-3.3346,-3.3607,-3.3864,-3.4084,-3.4101,-3.4473,-3.5137,-3.5218,-3.5687,-3.6351,-3.6481,-3.6627,-3.6497,-3.6384,-3.6772,-3.7258,-3.729,-3.7728,-3.8197,-3.8448,-3.8504,-3.8655,-3.875,-3.8914,-3.9077,-3.9292,-3.9799,-4.0707,-4.1082,-4.1596,-4.2103,-4.2287,-4.2287,-4.2287,-4.2287,-4.2287,-4.2287,-4.2287,-4.2287,-4.2287,-4.2287,-4.2287,-4.2287,-4.2287,-4.2287,-4.2287,-4.2287,-4.2287,-4.2287,-4.2287,-4.2287,-4.2328,-4.2463,-4.2503,-4.2627,-4.2939,-4.3539,-4.4125,-4.4374,-4.4602,-4.487,-4.4895,-4.4895,-4.4895,-4.4895,-4.4895,-4.4895,-4.4895,-4.4895,-4.4895,-4.4895,-4.4895,-4.4895,-4.4895,-4.4895,-4.4895,-4.4895,-4.4919,-4.4943,-4.501,-4.508,-4.5194,-4.5436,-4.5626,-4.5757,-4.5863,-4.6036,-4.6162,-4.6196,-4.6196,-4.6196,-4.6196,-4.6196,-4.6196,-4.6196,-4.6098,-4.5864,-4.5509,-4.5226,-4.3711,-4.2583,-4.2286,-4.1877,-4.1224,-4.0888,-4.0888,-4.0888,-4.0888,-4.0888,-4.0907,-4.0888,-4.0888,-4.0907,-4.0995,-3.3256,-3.3607,-3.3642,-3.3848,-3.4101,-3.4101,-3.4522,-3.5185,-3.572,-3.6384,-3.7048,-3.7582,-3.7614,-3.7776,-3.7258,-3.7485,-3.7598,-3.7711,-3.7873,-3.8132,-3.8351,-3.8567,-3.875,-3.886,-3.9023,-3.9148,-3.9398,-3.9799,-4.0802,-4.1356,-4.1831,-4.2246,-4.2287,-4.2287,-4.2287,-4.2287,-4.2287,-4.2287,-4.2287,-4.2287,-4.2287,-4.2287,-4.2287,-4.2287,-4.2287,-4.2287,-4.2287,-4.2287,-4.2287,-4.2287,-4.2287,-4.231,-4.2418,-4.249,-4.2566,-4.3069,-4.344,-4.3831,-4.4299,-4.4584,-4.4777,-4.487,-4.4895,-4.4895,-4.4895,-4.4895,-4.4895,-4.4895,-4.4895,-4.4895,-4.4895,-4.4895,-4.4895,-4.4895,-4.4895,-4.4895,-4.4895,-4.4919,-4.4943,-4.4967,-4.5033,-4.5103,-4.5237,-4.54,-4.5587,-4.5736,-4.5883,-4.6036,-4.6162,-4.6189,-4.6196,-4.6196,-4.6196,-4.6196,-4.6196,-4.6196,-4.6098,-4.5956,-4.5523,-4.4911,-4.373,-4.2792,-4.2259,-4.1782,-4.1343,-4.1063,-4.0888,-4.1024,-4.1412,-4.0985,-4.0927,-4.0907,-4.0907,-4.0898,-4.1257,-3.315,-3.3555,-3.3642,-3.3848,-3.4101,-3.4101,-3.4376,-3.4894,-3.5849,-3.6691,-3.7371,-3.8051,-3.8246,-3.7792,-3.7209,-3.7064,-3.7339,-3.6724,-3.6869,-3.776,-3.8179,-3.8332,-3.858,-3.886,-3.8969,-3.9148,-3.9398,-3.9799,-4.0802,-4.1727,-4.2287,-4.2287,-4.2287,-4.2287,-4.2287,-4.2287,-4.2287,-4.2287,-4.2287,-4.2287,-4.2287,-4.2287,-4.2287,-4.2287,-4.2287,-4.2287,-4.2287,-4.2287,-4.2287,-4.2328,-4.2328,-4.2391,-4.2516,-4.2552,-4.2957,-4.3389,-4.3707,-4.4095,-4.453,-4.4758,-4.487,-4.4895,-4.4895,-4.4895,-4.4895,-4.4895,-4.4895,-4.4895,-4.4895,-4.4895,-4.4895,-4.4895,-4.4895,-4.4895,-4.4895,-4.4938,-4.4938,-4.4943,-4.4967,-4.4991,-4.5057,-4.5125,-4.5258,-4.5381,-4.5541,-4.5708,-4.5871,-4.6027,-4.6146,-4.6196,-4.6196,-4.6196,-4.6196,-4.6196,-4.6196,-4.6164,-4.5975,-4.5766,-4.5389,-4.4666,-4.3651,-4.2916,-4.2337,-4.1933,-4.1586,-4.1441,-4.1412,-4.184,-4.2131,-4.1626,-4.1228,-4.1296,-4.1199,-4.0908,-4.1431,-3.3043,-3.3361,-3.3591,-3.3848,-3.4101,-3.4101,-3.4117,-3.4262,-3.5574,-3.6578,-3.7242,-3.797,-3.7987,-3.7663,-3.7193,-3.6788,-3.6886,-3.6481,-3.6724,-3.7371,-3.7767,-3.8137,-3.8541,-3.875,-3.8969,-3.9094,-3.9345,-3.9799,-4.0784,-4.1727,-4.2287,-4.2287,-4.2287,-4.2287,-4.2287,-4.2287,-4.2287,-4.2287,-4.2287,-4.2287,-4.2287,-4.2287,-4.2287,-4.2287,-4.2287,-4.2287,-4.2287,-4.2287,-4.2305,-4.2346,-4.2427,-4.249,-4.2591,-4.2691,-4.3178,-4.3609,-4.3849,-4.426,-4.4629,-4.487,-4.487,-4.4895,-4.4895,-4.4895,-4.4895,-4.4895,-4.4895,-4.4895,-4.4895,-4.4895,-4.4895,-4.4895,-4.4895,-4.4895,-4.4919,-4.4919,-4.4919,-4.4943,-4.501,-4.5033,-4.508,-4.5167,-4.5213,-4.5342,-4.549,-4.5679,-4.5815,-4.5968,-4.6138,-4.6196,-4.6196,-4.6196,-4.6196,-4.6196,-4.6196,-4.6105,-4.5832,-4.5553,-4.5323,-4.4726,-4.3928,-4.3153,-4.2408,-4.2179,-4.2005,-4.2082,-4.217,-4.2539,-4.2587,-4.2111,-4.1829,-4.1819,-4.1615,-4.1362,-4.1779,-3.2812,-3.3293,-3.3607,-3.3848,-3.4101,-3.4101,-3.4101,-3.4182,-3.504,-3.5866,-3.6594,-3.7258,-3.7776,-3.7809,-3.7647,-3.7323,-3.6967,-3.6756,-3.7355,-3.7621,-3.7838,-3.8193,-3.8717,-3.886,-3.9023,-3.9202,-3.9415,-3.9901,-4.0784,-4.1683,-4.2287,-4.2287,-4.2287,-4.2287,-4.2287,-4.2287,-4.2287,-4.2287,-4.2287,-4.2287,-4.2287,-4.2287,-4.2287,-4.2287,-4.2287,-4.2287,-4.2328,-4.2405,-4.244,-4.2476,-4.2526,-4.2609,-4.2727,-4.2824,-4.3213,-4.3754,-4.3924,-4.4318,-4.4681,-4.4895,-4.4895,-4.4895,-4.4895,-4.4895,-4.4895,-4.4895,-4.4895,-4.4895,-4.4895,-4.4895,-4.4895,-4.4895,-4.4895,-4.4919,-4.4943,-4.4919,-4.4919,-4.4967,-4.501,-4.5057,-4.5103,-4.5148,-4.5213,-4.5321,-4.5454,-4.5587,-4.5675,-4.584,-4.6074,-4.6196,-4.6196,-4.6196,-4.6196,-4.6196,-4.6196,-4.617,-4.5936,-4.5906,-4.5799,-4.5071,-4.4231,-4.3513,-4.2859,-4.2655,-4.252,-4.2753,-4.2947,-4.3044,-4.2976,-4.2586,-4.2624,-4.269,-4.2617,-4.2393,-4.2722,-3.2687,-3.315,-3.3555,-3.3848,-3.405,-3.4101,-3.4101,-3.4165,-3.4538,-3.5121,-3.5914,-3.6788,-3.7404,-3.7533,-3.7469,-3.7452,-3.6967,-3.6837,-3.707,-3.7432,-3.791,-3.8351,-3.8712,-3.8952,-3.9077,-3.9325,-3.985,-4.0417,-4.0896,-4.1727,-4.2287,-4.2287,-4.2287,-4.2287,-4.2287,-4.2287,-4.2287,-4.2287,-4.2287,-4.2287,-4.2287,-4.2287,-4.2287,-4.2287,-4.2287,-4.2287,-4.2346,-4.2445,-4.2503,-4.2526,-4.2631,-4.2864,-4.2995,-4.3105,-4.349,-4.3924,-4.4213,-4.4346,-4.4707,-4.4895,-4.4895,-4.4895,-4.4895,-4.4895,-4.4895,-4.4895,-4.4895,-4.4895,-4.4895,-4.4895,-4.4895,-4.4895,-4.4919,-4.4962,-4.4967,-4.4967,-4.4991,-4.5014,-4.5033,-4.5033,-4.508,-4.5125,-4.5173,-4.5303,-4.5453,-4.5665,-4.575,-4.5883,-4.6102,-4.6196,-4.6196,-4.6196,-4.6196,-4.6196,-4.6196,-4.6203,-4.6147,-4.6156,-4.6132,-4.5476,-4.4663,-4.3953,-4.3355,-4.3394,-4.351,-4.3714,-4.3869,-4.3947,-4.3596,-4.3214,-4.3385,-4.3625,-4.3504,-4.3312,-4.3343,-3.2648,-3.2989,-3.3466,-3.3797,-3.405,-3.4101,-3.4101,-3.4101,-3.4133,-3.4538,-3.5347,-3.6594,-3.6756,-3.661,-3.6448,-3.6448,-3.6562,-3.6821,-3.7026,-3.7259,-3.7688,-3.8341,-3.8799,-3.9023,-3.9148,-3.9609,-4.0187,-4.0514,-4.0832,-4.1727,-4.2287,-4.2287,-4.2287,-4.2287,-4.2287,-4.2287,-4.2287,-4.2287,-4.2287,-4.2287,-4.2287,-4.2287,-4.2287,-4.2287,-4.2287,-4.2287,-4.2328,-4.2427,-4.249,-4.2637,-4.2774,-4.3032,-4.3246,-4.3403,-4.3799,-4.4165,-4.4327,-4.453,-4.4802,-4.4895,-4.4895,-4.4895,-4.4895,-4.4895,-4.4895,-4.4895,-4.4895,-4.4895,-4.4895,-4.4895,-4.4895,-4.4919,-4.4962,-4.4986,-4.4967,-4.4991,-4.5014,-4.5038,-4.5014,-4.5033,-4.5057,-4.5103,-4.5197,-4.5323,-4.5486,-4.5694,-4.5871,-4.6037,-4.6146,-4.6189,-4.6196,-4.6196,-4.6196,-4.6196,-4.6203,-4.6203,-4.6206,-4.6166,-4.6067,-4.5616,-4.5187,-4.4744,-4.4481,-4.4481,-4.4617,-4.4646,-4.483,-4.4955,-4.4505,-4.4005,-4.4323,-4.457,-4.4215,-4.4001,-4.3665,-3.2742,-3.3256,-3.3361,-3.3658,-3.405,-3.4101,-3.4101,-3.4101,-3.4117,-3.4489,-3.5266,-3.6044,-3.6627,-3.7112,-3.7128,-3.7145,-3.7161,-3.7177,-3.7286,-3.7574,-3.8123,-3.8646,-3.899,-3.9148,-3.9272,-3.9661,-4.0237,-4.0707,-4.0926,-4.177,-4.2287,-4.2287,-4.2287,-4.2287,-4.2287,-4.2287,-4.2287,-4.2287,-4.2287,-4.2287,-4.2287,-4.2287,-4.2287,-4.2287,-4.2287,-4.2287,-4.2328,-4.2508,-4.257,-4.2734,-4.2977,-4.322,-4.3476,-4.3666,-4.4016,-4.4327,-4.4484,-4.461,-4.4802,-4.4895,-4.4895,-4.4895,-4.4895,-4.4895,-4.4895,-4.4895,-4.4895,-4.4895,-4.4895,-4.4919,-4.4938,-4.4986,-4.501,-4.4986,-4.4967,-4.4967,-4.4991,-4.5014,-4.5014,-4.5057,-4.5103,-4.5148,-4.5213,-4.5342,-4.5519,-4.5722,-4.5914,-4.6075,-4.6181,-4.6189,-4.6196,-4.6196,-4.6196,-4.6209,-4.6196,-4.6203,-4.6197,-4.615,-4.6075,-4.5806,-4.5685,-4.5813,-4.5627,-4.5239,-4.5278,-4.5364,-4.5587,-4.5553,-4.551,-4.5124,-4.5402,-4.5506,-4.5034,-4.4655,-4.4315]}]]